[[{"header":{"parameterUnit":"m.s-1","parameterCategory":1,"la1":31.0,"la2":29.5877,"lo1":-88.7671,"lo2":-86.6584,"dx":0.0162,"dy":0.0185,"nx":115,"ny":88,"refTime":"2023-01-18T06:00:00:Z","depth":0,"parameterNumber":2,"parameterNumberName":"U-component_of_WINDS"},"data":[0.0,0.0,0.0,0.0,0.0,0.0,0.0,0.0,0.0,0.0,0.0,0.0,0.0,0.0,0.0,0.0,0.0,0.0,0.0,0.0,0.0,0.0,0.0,0.0,0.0,0.0,0.0,0.0,0.0,0.0,0.0,0.0,0.0,0.0,0.0,0.0,0.0,0.0,0.0,0.0,0.0,0.0,0.0,0.0,0.0,0.0,0.0,0.0,0.0,0.0,0.0,0.0,0.0,0.0,0.0,0.0,0.0,0.0,0.0,0.0,0.0,0.0,0.0,0.0,0.0,0.0,0.0,0.0,0.0,0.0,0.0,0.0,0.0,0.0,0.0,0.0,0.0,0.0,0.0,0.0,0.0,0.0,0.0,0.0,0.0,0.0,0.0,0.0,0.0,0.0,0.0,0.0,0.0,0.0,0.0,0.0,0.0,0.0,0.0,0.0,0.0,0.0,0.0,0.0,0.0,0.0,0.0,0.0,0.0,0.0,0.0,0.0,0.0,0.0,0.0,0.0,0.0,0.0,0.0,0.0,0.0,0.0,0.0,0.0,0.0,0.0,0.0,0.0,0.0,0.0,0.0,0.0,0.0,0.0,0.0,0.0,0.0,0.0,0.0,0.0,0.0,0.0,0.0,0.0,0.0,0.0,0.0,0.0,0.0,0.0,0.0,0.0,0.0,0.0,0.0,0.0,0.0,0.0,0.0,0.0,0.0,0.0,0.0,0.0,0.0,0.0,0.0,0.0,0.0,0.0,0.0,0.0,0.0,0.0,0.0,0.0,0.0,0.0,0.0,0.0,0.0,0.0,0.0,0.0,0.0,0.0,0.0,0.0,0.0,0.0,0.0,0.0,0.0,0.0,0.0,0.0,0.0,0.0,0.0,0.0,0.0,0.0,0.0,0.0,0.0,0.0,0.0,0.0,0.0,0.0,0.0,0.0,0.0,0.0,0.0,0.0,0.0,0.0,0.0,0.0,0.0,0.0,0.0,0.0,0.0,0.0,0.0,0.0,0.0,0.0,0.0,0.0,0.0,0.0,0.0,0.0,0.0,0.0,0.0,0.0,0.0,0.0,0.0,0.0,0.0,0.0,0.0,0.0,0.0,0.0,0.0,0.0,0.0,0.0,0.0,0.0,0.0,0.0,0.0,0.0,0.0,0.0,0.0,0.0,0.0,0.0,0.0,0.0,0.0,0.0,0.0,0.0,0.0,0.0,0.0,0.0,0.0,0.0,0.0,0.0,0.0,0.0,0.0,0.0,0.0,0.0,0.0,0.0,0.0,0.0,0.0,0.0,0.0,0.0,0.0,0.0,0.0,0.0,0.0,0.0,0.0,0.0,0.0,0.0,0.0,0.0,0.0,0.0,0.0,0.0,0.0,0.0,0.0,0.0,0.0,0.0,0.0,0.0,0.0,0.0,0.0,0.0,0.0,0.0,0.0,0.0,0.0,0.0,0.0,0.0,0.0,0.0,0.0,0.0,0.0,0.0,0.0,0.0,0.0,0.0,0.0,0.0,0.0,0.0,0.0,0.0,0.0,0.0,0.0,0.0,0.0,0.0,0.0,0.0,0.0,0.0,0.0,0.0,0.0,0.0,0.0,0.0,0.0,0.0,0.0,0.0,0.0,0.0,0.0,0.0,0.0,0.0,0.0,0.0,0.0,0.0,0.0,0.0,0.0,0.0,0.0,0.0,0.0,0.0,0.0,0.0,0.0,0.0,0.0,0.0,0.0,0.0,0.0,0.0,0.0,0.0,0.0,0.0,0.0,0.0,0.0,0.0,0.0,0.0,0.0,0.0,0.0,0.0,0.0,0.0,0.0,0.0,0.0,0.0,0.0,0.0,0.0,0.0,0.0,0.0,0.0,0.0,0.0,0.0,0.0,0.0,0.0,0.0,0.0,0.0,0.0,0.0,0.0,0.0,0.0,0.0,0.0,0.0,0.0,0.0,0.0,0.0,0.0,0.0,0.0,0.0,0.0,0.0,0.0,0.0,0.0,0.0,0.0,0.0,0.0,0.0,0.0,0.0,0.0,0.0,0.0,0.0,0.0,0.0,0.0,0.0,0.0,0.0,0.0,0.0,0.0,0.0,0.0,0.0,0.0,0.0,0.0,0.0,0.0,0.0,0.0,0.0,0.0,0.0,0.0,0.0,0.0,0.0,0.0,0.0,0.0,0.0,0.0,0.0,0.0,0.0,0.0,0.0,0.0,0.0,0.0,0.0,0.0,0.0,0.0,0.0,0.0,0.0,0.0,0.0,0.0,0.0,0.0,0.0,0.0,0.0,0.0,0.0,0.0,0.0,0.0,0.0,0.0,0.0,0.0,0.0,0.0,0.0,0.0,0.0,0.0,0.0,0.0,0.0,0.0,0.0,0.0,0.0,0.0,0.0,0.0,0.0,0.0,0.0,0.0,0.0,0.0,0.0,0.0,0.0,0.0,0.0,0.0,0.0,0.0,0.0,0.0,0.0,0.0,0.0,0.0,0.0,0.0,0.0,0.0,0.0,0.0,0.0,0.0,0.0,0.0,0.0,0.0,0.0,0.0,0.0,0.0,0.0,0.0,0.0,0.0,0.0,0.0,0.0,0.0,0.0,0.0,0.0,0.0,0.0,0.0,0.0,0.0,0.0,0.0,0.0,0.0,0.0,0.0,0.0,0.0,0.0,0.0,0.0,0.0,0.0,0.0,0.0,0.0,0.0,0.0,0.0,0.0,0.0,0.0,0.0,0.0,0.0,0.0,0.0,0.0,0.0,0.0,0.0,0.0,0.0,0.0,0.0,0.0,0.0,0.0,0.0,0.0,0.0,0.0,0.0,0.0,0.0,0.0,0.0,0.0,0.0,0.0,0.0,0.0,0.0,0.0,0.0,0.0,0.0,0.0,0.0,0.0,0.0,0.0,0.0,0.0,0.0,0.0,0.0,0.0,0.0,0.0,0.0,0.0,0.0,0.0,0.0,0.0,0.0,0.0,0.0,0.0,0.0,0.0,0.0,0.0,0.0,0.0,0.0,0.0,0.0,0.0,0.0,0.0,0.0,0.0,0.0,0.0,0.0,0.0,0.0,0.0,0.0,0.0,0.0,0.0,0.0,0.0,0.0,0.0,0.0,0.0,0.0,0.0,0.0,0.0,0.0,0.0,0.0,0.0,0.0,0.0,0.0,0.0,0.0,0.0,0.0,0.0,0.0,0.0,0.0,0.0,0.0,0.0,0.0,0.0,0.0,0.0,0.0,0.0,0.0,0.0,0.0,0.0,0.0,0.0,0.0,0.0,0.0,0.0,0.0,0.0,0.0,0.0,0.0,0.0,0.0,0.0,0.0,0.0,0.0,0.0,0.0,0.0,0.0,0.0,0.0,0.0,0.0,0.0,0.0,0.0,0.0,0.0,0.0,0.0,0.0,0.0,0.0,0.0,0.0,0.0,0.0,0.0,0.0,0.0,0.0,0.0,0.0,0.0,0.0,0.0,0.0,0.0,0.0,0.0,0.0,0.0,0.0,0.0,0.0,0.0,0.0,0.0,0.0,0.0,0.0,0.0,0.0,0.0,0.0,0.0,0.0,0.0,0.0,0.0,0.0,0.0,0.0,0.0,0.0,0.0,0.0,0.0,0.0,0.0,0.0,0.0,0.0,0.0,0.0,0.0,0.0,0.0,0.0,0.0,0.0,0.0,0.0,0.0,0.0,0.0,0.0,0.0,0.0,0.0,0.0,0.0,0.0,0.0,0.0,0.0,0.0,0.0,0.0,0.0,0.0,0.0,0.0,0.0,0.0,0.0,0.0,0.0,0.0,0.0,0.0,0.0,0.0,0.0,0.0,0.0,0.0,0.0,0.0,0.0,0.0,0.0,0.0,0.0,0.0,0.0,0.0,0.0,0.0,0.0,0.0,0.0,0.0,0.0,0.0,0.0,0.0,0.0,0.0,0.0,0.0,0.0,0.0,0.0,0.0,0.0,0.0,0.0,0.0,0.0,0.0,0.0,0.0,0.0,0.0,0.0,0.0,0.0,0.0,0.0,0.0,0.0,0.0,0.0,0.0,0.0,0.0,0.0,0.0,0.0,0.0,0.0,0.0,0.0,0.0,0.0,0.0,0.0,0.0,0.0,0.0,0.0,0.0,0.0,0.0,0.0,0.0,0.0,0.0,0.0,0.0,0.0,0.0,0.0,0.0,0.0,0.0,0.0,0.0,0.0,0.0,0.0,0.0,0.0,0.0,0.0,0.0,0.0,0.0,0.0,0.0,0.0,0.0,0.0,0.0,0.0,0.0,0.0,0.0,1.7146,0.0,0.0,0.0,0.0,0.0,0.0,0.0,0.0,0.0,0.0,0.0,0.0,0.0,0.0,0.0,0.0,0.0,0.0,0.0,0.0,0.0,0.0,0.0,0.0,0.0,0.0,0.0,0.0,0.0,0.0,0.0,0.0,0.0,0.0,0.0,0.0,0.0,0.0,0.0,0.0,0.0,0.0,0.0,0.0,0.0,0.0,0.0,0.0,0.0,0.0,0.0,0.0,0.0,0.0,0.0,0.0,0.0,0.0,0.0,0.0,0.0,0.0,0.0,0.0,0.0,0.0,0.0,0.0,0.0,0.0,0.0,0.0,0.0,0.0,0.0,0.0,0.0,0.0,0.0,0.0,0.0,0.0,0.0,0.0,0.0,0.0,0.0,0.0,0.0,0.0,0.0,0.0,0.0,0.0,0.0,0.0,0.0,0.0,0.0,0.0,0.0,0.0,0.0,0.0,0.0,0.0,0.0,0.0,0.0,0.0,1.7608,1.7608,1.7608,1.745,1.7199,0.0,0.0,0.0,0.0,0.0,0.0,0.0,0.0,0.0,0.0,0.0,0.0,0.0,0.0,0.0,0.0,0.0,0.0,0.0,0.0,0.0,0.0,0.0,0.0,0.0,0.0,0.0,0.0,0.0,0.0,0.0,0.0,0.0,0.0,0.0,0.0,0.0,0.0,0.0,0.0,0.0,0.0,0.0,0.0,0.0,0.0,0.0,0.0,0.0,0.0,0.0,0.0,0.0,0.0,0.0,0.0,0.0,0.0,0.0,0.0,0.0,0.0,0.0,0.0,0.0,0.0,0.0,0.0,0.0,0.0,0.0,0.0,0.0,0.0,0.0,0.0,0.0,0.0,0.0,0.0,0.0,0.0,0.0,0.0,0.0,0.0,0.0,0.0,0.0,0.0,0.0,0.0,0.0,0.0,0.0,0.0,0.0,0.0,0.0,0.0,0.0,0.0,0.0,0.0,0.0,0.0,0.0,0.0,0.0,0.0,0.0,0.0,1.7608,1.7477,1.7199,0.0,0.0,0.0,0.0,0.0,0.0,0.0,0.0,0.0,0.0,0.0,0.0,0.0,0.0,0.0,0.0,0.0,0.0,0.0,0.0,0.0,0.0,0.0,0.0,0.0,0.0,0.0,0.0,0.0,0.0,0.0,0.0,0.0,0.0,0.0,0.0,0.0,0.0,0.0,0.0,0.0,0.0,0.0,0.0,0.0,0.0,0.0,0.0,0.0,0.0,0.0,0.0,0.0,0.0,0.0,0.0,0.0,0.0,0.0,0.0,0.0,0.0,0.0,0.0,0.0,0.0,0.0,0.0,0.0,0.0,0.0,0.0,0.0,0.0,0.0,0.0,0.0,0.0,0.0,0.0,0.0,0.0,0.0,0.0,0.0,0.0,0.0,0.0,0.0,0.0,0.0,0.0,0.0,0.0,0.0,0.0,0.0,0.0,0.0,0.0,0.0,0.0,0.0,0.0,0.0,0.0,0.0,0.0,0.0,0.0,1.7608,1.7608,1.7608,0.0,1.7226,0.0,0.0,0.0,0.0,0.0,0.0,0.0,0.0,0.0,0.0,0.0,0.0,0.0,0.0,0.0,0.0,0.0,0.0,0.0,0.0,0.0,0.0,0.0,0.0,0.0,0.0,0.0,0.0,0.0,0.0,0.0,0.0,0.0,0.0,0.0,0.0,0.0,0.0,0.0,0.0,0.0,0.0,0.0,0.0,0.0,0.0,0.0,0.0,0.0,0.0,0.0,0.0,0.0,0.0,0.0,0.0,0.0,0.0,0.0,0.0,0.0,0.0,0.0,0.0,0.0,0.0,0.0,0.0,0.0,0.0,0.0,0.0,0.0,0.0,0.0,0.0,0.0,0.0,0.0,0.0,0.0,0.0,0.0,0.0,0.0,0.0,0.0,0.0,0.0,0.0,0.0,0.0,0.0,0.0,0.0,0.0,0.0,0.0,0.0,0.0,0.0,0.0,0.0,0.0,0.0,0.0,0.0,0.0,0.0,0.0,1.7608,1.7608,1.7608,1.7556,0.0,0.0,0.0,0.0,0.0,0.0,0.0,0.0,0.0,0.0,0.0,0.0,0.0,0.0,0.0,0.0,0.0,0.0,0.0,0.0,0.0,0.0,0.0,0.0,0.0,0.0,0.0,0.0,0.0,0.0,0.0,0.0,0.0,0.0,0.0,0.0,0.0,0.0,0.0,0.0,0.0,0.0,0.0,0.0,0.0,0.0,0.0,0.0,0.0,0.0,0.0,0.0,0.0,0.0,0.0,0.0,0.0,0.0,0.0,0.0,0.0,0.0,0.0,0.0,0.0,0.0,0.0,0.0,0.0,0.0,0.0,0.0,0.0,0.0,0.0,0.0,0.0,0.0,0.0,0.0,0.0,0.0,0.0,0.0,0.0,0.0,0.0,0.0,0.0,0.0,0.0,0.0,0.0,0.0,0.0,0.0,0.0,0.0,0.0,0.0,0.0,0.0,0.0,0.0,0.0,0.0,0.0,0.0,0.0,0.0,1.7608,1.7608,1.7608,1.7608,1.7608,1.7608,0.0,0.0,0.0,0.0,0.0,0.0,0.0,0.0,0.0,0.0,0.0,0.0,0.0,0.0,0.0,0.0,0.0,0.0,0.0,0.0,0.0,0.0,0.0,0.0,0.0,0.0,0.0,0.0,0.0,0.0,0.0,0.0,0.0,0.0,0.0,0.0,0.0,0.0,0.0,0.0,0.0,0.0,0.0,0.0,0.0,0.0,0.0,0.0,0.0,0.0,0.0,0.0,0.0,0.0,0.0,0.0,0.0,0.0,0.0,0.0,0.0,0.0,0.0,0.0,0.0,0.0,0.0,0.0,0.0,0.0,0.0,0.0,0.0,0.0,0.0,0.0,0.0,0.0,0.0,0.0,0.0,0.0,0.0,0.0,0.0,0.0,0.0,0.0,0.0,0.0,0.0,0.0,0.0,0.0,0.0,0.0,0.0,0.0,0.0,0.0,0.0,0.0,0.0,0.0,0.0,0.0,0.0,0.0,0.0,1.7622,1.7622,1.7635,1.7622,1.7622,0.0,0.0,0.0,0.0,0.0,0.0,0.0,0.0,0.0,0.0,0.0,0.0,0.0,0.0,0.0,0.0,0.0,0.0,0.0,0.0,0.0,0.0,0.0,0.0,0.0,0.0,0.0,0.0,0.0,0.0,0.0,0.0,0.0,0.0,0.0,0.0,0.0,0.0,0.0,0.0,0.0,0.0,0.0,0.0,0.0,0.0,0.0,0.0,0.0,0.0,0.0,0.0,0.0,0.0,0.0,0.0,0.0,0.0,0.0,0.0,0.0,0.0,0.0,0.0,0.0,0.0,0.0,0.0,0.0,0.0,0.0,0.0,0.0,0.0,0.0,0.0,0.0,0.0,0.0,0.0,0.0,0.0,0.0,0.0,0.0,0.0,0.0,0.0,0.0,0.0,0.0,0.0,0.0,0.0,0.0,0.0,0.0,0.0,0.0,0.0,0.0,0.0,0.0,0.0,0.0,0.0,0.0,0.0,0.0,1.817,1.817,1.8197,1.817,1.8156,1.8197,0.0,0.0,0.0,0.0,0.0,0.0,0.0,0.0,0.0,0.0,0.0,0.0,0.0,0.0,0.0,0.0,0.0,0.0,0.0,0.0,0.0,0.0,0.0,0.0,0.0,0.0,0.0,0.0,0.0,0.0,0.0,0.0,0.0,0.0,0.0,0.0,0.0,0.0,0.0,0.0,0.0,0.0,0.0,0.0,0.0,0.0,0.0,0.0,0.0,0.0,0.0,0.0,0.0,0.0,0.0,0.0,0.0,0.0,0.0,0.0,0.0,0.0,0.0,0.0,0.0,0.0,0.0,0.0,0.0,0.0,0.0,0.0,0.0,0.0,0.0,0.0,0.0,0.0,0.0,0.0,0.0,0.0,0.0,0.0,0.0,0.0,0.0,0.0,0.0,0.0,0.0,0.0,0.0,0.0,0.0,0.0,0.0,0.0,0.0,0.0,0.0,0.0,0.0,0.0,0.0,0.0,0.0,0.0,0.0,1.8463,0.0,1.849,1.849,1.849,1.849,0.0,0.0,0.0,0.0,0.0,0.0,0.0,0.0,0.0,0.0,0.0,0.0,0.0,0.0,0.0,0.0,0.0,0.0,0.0,0.0,0.0,0.0,0.0,0.0,0.0,0.0,0.0,0.0,0.0,0.0,0.0,0.0,0.0,0.0,0.0,0.0,0.0,0.0,0.0,0.0,0.0,0.0,0.0,0.0,0.0,0.0,0.0,0.0,0.0,0.0,0.0,0.0,0.0,0.0,0.0,0.0,0.0,0.0,0.0,0.0,0.0,0.0,0.0,0.0,0.0,0.0,0.0,0.0,0.0,0.0,0.0,0.0,0.0,0.0,0.0,0.0,0.0,0.0,0.0,0.0,0.0,0.0,0.0,0.0,0.0,0.0,0.0,0.0,0.0,0.0,0.0,0.0,0.0,0.0,0.0,0.0,0.0,0.0,0.0,0.0,0.0,0.0,0.0,0.0,0.0,0.0,0.0,0.0,1.8198,1.8504,1.8517,1.8531,1.8504,1.8531,1.8517,0.0,0.0,0.0,0.0,0.0,0.0,0.0,0.0,0.0,0.0,0.0,0.0,0.0,0.0,0.0,0.0,0.0,0.0,0.0,0.0,0.0,0.0,0.0,0.0,0.0,0.0,0.0,0.0,0.0,0.0,0.0,0.0,0.0,0.0,0.0,0.0,0.0,0.0,0.0,0.0,0.0,0.0,0.0,0.0,0.0,0.0,0.0,0.0,0.0,0.0,0.0,0.0,0.0,0.0,0.0,0.0,0.0,0.0,0.0,0.0,0.0,0.0,0.0,0.0,0.0,0.0,0.0,0.0,0.0,0.0,0.0,0.0,0.0,0.0,0.0,0.0,0.0,0.0,0.0,0.0,0.0,0.0,0.0,0.0,0.0,0.0,0.0,0.0,0.0,0.0,0.0,0.0,0.0,0.0,0.0,0.0,0.0,0.0,0.0,0.0,0.0,0.0,0.0,0.0,0.0,0.0,0.0,0.0,0.0,1.9105,1.912,1.912,1.912,1.912,1.912,0.0,0.0,0.0,0.0,0.0,0.0,0.0,0.0,0.0,0.0,0.0,0.0,0.0,0.0,0.0,0.0,0.0,0.0,0.0,0.0,0.0,0.0,0.0,0.0,0.0,0.0,0.0,0.0,0.0,0.0,0.0,0.0,0.0,0.0,0.0,0.0,0.0,0.0,0.0,0.0,0.0,0.0,0.0,0.0,0.0,0.0,0.0,0.0,0.0,0.0,0.0,0.0,0.0,0.0,0.0,0.0,0.0,0.0,0.0,0.0,0.0,0.0,0.0,0.0,0.0,0.0,0.0,0.0,0.0,0.0,0.0,0.0,0.0,0.0,0.0,0.0,0.0,0.0,0.0,0.0,0.0,0.0,0.0,0.0,0.0,0.0,0.0,0.0,0.0,0.0,0.0,0.0,0.0,0.0,0.0,0.0,0.0,0.0,0.0,0.0,0.0,0.0,0.0,0.0,0.0,0.0,0.0,0.0,0.0,1.9546,1.9669,1.9693,1.9722,1.9615,1.9562,1.9548,0.0,0.0,0.0,0.0,0.0,0.0,0.0,0.0,0.0,0.0,0.0,0.0,0.0,0.0,0.0,0.0,0.0,0.0,0.0,0.0,0.0,0.0,0.0,0.0,0.0,0.0,0.0,0.0,0.0,0.0,0.0,0.0,0.0,0.0,0.0,0.0,0.0,0.0,0.0,0.0,0.0,0.0,0.0,0.0,0.0,0.0,0.0,0.0,0.0,0.0,0.0,0.0,0.0,0.0,0.0,0.0,0.0,0.0,0.0,0.0,0.0,0.0,0.0,0.0,0.0,0.0,0.0,0.0,0.0,0.0,0.0,0.0,0.0,0.0,0.0,0.0,0.0,0.0,0.0,0.0,0.0,0.0,0.0,0.0,0.0,0.0,0.0,0.0,0.0,0.0,0.0,0.0,0.0,0.0,0.0,0.0,0.0,0.0,0.0,0.0,0.0,0.0,0.0,0.0,0.0,0.0,0.0,0.0,1.981,2.0104,2.0224,2.0184,1.9947,1.98,0.0,0.0,0.0,0.0,0.0,0.0,0.0,0.0,0.0,0.0,0.0,0.0,0.0,0.0,0.0,0.0,0.0,0.0,0.0,0.0,0.0,0.0,0.0,0.0,0.0,0.0,0.0,0.0,0.0,0.0,0.0,0.0,0.0,0.0,0.0,0.0,0.0,0.0,0.0,0.0,0.0,0.0,0.0,0.0,0.0,0.0,0.0,0.0,0.0,0.0,0.0,0.0,0.0,0.0,0.0,0.0,0.0,0.0,0.0,0.0,0.0,0.0,0.0,0.0,0.0,0.0,0.0,0.0,0.0,0.0,0.0,0.0,0.0,0.0,0.0,0.0,0.0,0.0,0.0,0.0,0.0,0.0,0.0,0.0,0.0,0.0,0.0,0.0,0.0,0.0,0.0,0.0,0.0,0.0,0.0,0.0,0.0,0.0,0.0,0.0,0.0,0.0,0.0,0.0,0.0,0.0,0.0,0.0,0.0,2.041,2.0722,2.0637,2.0224,1.9947,1.98,0.0,0.0,0.0,0.0,0.0,0.0,0.0,0.0,0.0,0.0,0.0,0.0,0.0,0.0,0.0,0.0,0.0,0.0,0.0,0.0,0.0,0.0,0.0,0.0,0.0,0.0,0.0,0.0,0.0,0.0,0.0,0.0,0.0,0.0,0.0,0.0,0.0,0.0,0.0,0.0,0.0,0.0,0.0,0.0,0.0,0.0,0.0,0.0,0.0,0.0,0.0,0.0,0.0,0.0,0.0,0.0,0.0,0.0,0.0,0.0,0.0,0.0,0.0,0.0,0.0,0.0,0.0,0.0,0.0,0.0,0.0,0.0,0.0,0.0,0.0,0.0,0.0,0.0,0.0,0.0,0.0,0.0,0.0,0.0,0.0,0.0,0.0,0.0,0.0,0.0,0.0,0.0,0.0,0.0,0.0,0.0,0.0,0.0,0.0,0.0,0.0,0.0,0.0,0.0,0.0,0.0,0.0,0.0,2.0015,2.0668,2.0962,2.0949,2.0584,2.0321,2.0107,0.0,0.0,0.0,0.0,0.0,0.0,0.0,0.0,0.0,0.0,0.0,0.0,0.0,0.0,0.0,0.0,0.0,0.0,0.0,0.0,0.0,0.0,0.0,0.0,0.0,0.0,0.0,0.0,0.0,0.0,0.0,0.0,0.0,0.0,0.0,0.0,0.0,0.0,0.0,0.0,0.0,0.0,0.0,0.0,0.0,0.0,0.0,0.0,0.0,0.0,0.0,0.0,0.0,0.0,0.0,0.0,0.0,0.0,0.0,0.0,0.0,0.0,0.0,0.0,0.0,0.0,0.0,0.0,0.0,0.0,0.0,0.0,0.0,0.0,0.0,0.0,0.0,0.0,0.0,0.0,0.0,0.0,0.0,0.0,0.0,0.0,0.0,0.0,0.0,0.0,0.0,0.0,0.0,0.0,0.0,0.0,0.0,0.0,0.0,0.0,0.0,0.0,0.0,0.0,0.0,0.0,0.0,0.0,2.0384,2.0753,2.0975,2.1109,2.1096,2.086,2.0535,0.0,0.0,0.0,0.0,0.0,0.0,0.0,0.0,0.0,0.0,0.0,0.0,0.0,0.0,0.0,0.0,0.0,0.0,0.0,0.0,0.0,0.0,0.0,0.0,0.0,0.0,0.0,0.0,0.0,0.0,0.0,0.0,0.0,0.0,0.0,0.0,0.0,0.0,0.0,0.0,0.0,0.0,0.0,0.0,0.0,0.0,0.0,0.0,0.0,0.0,0.0,0.0,0.0,0.0,0.0,0.0,0.0,0.0,0.0,0.0,0.0,0.0,0.0,0.0,0.0,0.0,0.0,0.0,0.0,0.0,0.0,0.0,0.0,0.0,0.0,0.0,0.0,0.0,0.0,0.0,0.0,0.0,0.0,0.0,0.0,0.0,0.0,0.0,0.0,0.0,0.0,0.0,0.0,0.0,0.0,0.0,0.0,0.0,0.0,0.0,0.0,0.0,0.0,0.0,0.0,0.0,0.0,0.0,2.0445,2.1015,2.1082,2.1109,2.1109,2.0828,2.0535,0.0,0.0,0.0,0.0,0.0,0.0,0.0,0.0,0.0,0.0,0.0,0.0,0.0,0.0,0.0,0.0,0.0,0.0,0.0,0.0,0.0,0.0,0.0,0.0,0.0,0.0,0.0,0.0,0.0,0.0,0.0,0.0,0.0,0.0,0.0,0.0,0.0,0.0,0.0,0.0,0.0,0.0,0.0,0.0,0.0,0.0,0.0,0.0,1.8619,0.0,0.0,0.0,0.0,0.0,0.0,0.0,0.0,0.0,0.0,0.0,0.0,0.0,0.0,0.0,0.0,0.0,0.0,0.0,0.0,0.0,0.0,0.0,0.0,0.0,0.0,0.0,0.0,0.0,0.0,0.0,0.0,0.0,0.0,0.0,0.0,0.0,0.0,0.0,0.0,0.0,0.0,0.0,0.0,0.0,0.0,0.0,0.0,0.0,0.0,0.0,0.0,0.0,0.0,0.0,0.0,0.0,0.0,0.0,2.1004,2.1341,2.1323,2.1256,2.1109,2.0962,2.0748,0.0,0.0,0.0,0.0,0.0,0.0,0.0,0.0,0.0,0.0,0.0,0.0,0.0,0.0,0.0,0.0,0.0,0.0,0.0,0.0,0.0,0.0,0.0,0.0,0.0,0.0,0.0,0.0,0.0,0.0,0.0,0.0,0.0,0.0,0.0,0.0,0.0,0.0,0.0,0.0,0.0,0.0,0.0,0.0,0.0,0.0,0.0,0.0,0.0,0.0,0.0,0.0,0.0,0.0,0.0,0.0,0.0,0.0,0.0,0.0,0.0,0.0,0.0,0.0,0.0,0.0,0.0,0.0,0.0,0.0,0.0,0.0,0.0,0.0,0.0,0.0,0.0,0.0,0.0,0.0,0.0,0.0,0.0,0.0,0.0,0.0,0.0,0.0,0.0,0.0,0.0,0.0,0.0,0.0,0.0,0.0,0.0,0.0,0.0,0.0,0.0,0.0,0.0,0.0,0.0,0.0,0.0,2.1341,2.1649,2.1649,2.1617,2.1432,2.1147,2.1107,2.0974,2.0659,0.0,0.0,0.0,0.0,0.0,0.0,0.0,0.0,0.0,0.0,0.0,0.0,0.0,0.0,0.0,0.0,0.0,0.0,0.0,0.0,0.0,0.0,0.0,0.0,0.0,0.0,0.0,0.0,0.0,0.0,0.0,0.0,0.0,0.0,0.0,0.0,0.0,0.0,1.8244,1.8512,0.0,0.0,0.0,0.0,0.0,0.0,0.0,0.0,1.8153,0.0,0.0,0.0,0.0,0.0,0.0,0.0,0.0,0.0,0.0,0.0,0.0,0.0,0.0,0.0,0.0,0.0,0.0,0.0,0.0,0.0,0.0,0.0,0.0,0.0,0.0,0.0,0.0,0.0,0.0,0.0,0.0,0.0,0.0,0.0,0.0,0.0,0.0,0.0,0.0,0.0,0.0,0.0,0.0,0.0,0.0,0.0,0.0,0.0,0.0,0.0,0.0,0.0,0.0,0.0,0.0,2.1451,2.1764,2.1943,2.1911,2.1615,2.1391,2.1339,2.1149,2.0877,2.0554,0.0,0.0,0.0,0.0,0.0,0.0,0.0,0.0,0.0,0.0,0.0,0.0,0.0,0.0,0.0,0.0,0.0,0.0,0.0,0.0,0.0,0.0,0.0,0.0,0.0,0.0,0.0,0.0,0.0,0.0,0.0,0.0,0.0,0.0,0.0,0.0,0.0,0.0,0.0,1.7985,1.8105,0.0,0.0,0.0,0.0,0.0,0.0,0.0,0.0,1.6973,0.0,0.0,0.0,0.0,0.0,0.0,0.0,0.0,0.0,0.0,0.0,0.0,0.0,0.0,0.0,0.0,0.0,0.0,0.0,0.0,0.0,0.0,0.0,0.0,0.0,0.0,0.0,0.0,0.0,0.0,0.0,0.0,0.0,0.0,0.0,0.0,0.0,0.0,0.0,0.0,0.0,0.0,0.0,0.0,0.0,0.0,0.0,0.0,0.0,0.0,0.0,0.0,0.0,0.0,0.0,2.176,2.1885,2.1851,2.1651,2.1438,2.1273,2.1165,2.0826,2.06,0.0,0.0,0.0,0.0,0.0,0.0,0.0,0.0,0.0,0.0,0.0,0.0,0.0,0.0,0.0,0.0,0.0,0.0,0.0,0.0,0.0,0.0,0.0,0.0,0.0,0.0,0.0,0.0,0.0,0.0,0.0,0.0,0.0,0.0,0.0,0.0,0.0,0.0,0.0,0.0,1.714,1.7249,1.6899,0.0,0.0,0.0,0.0,0.0,0.0,1.5672,1.5898,0.0,0.0,0.0,0.0,0.0,0.0,0.0,0.0,0.0,0.0,0.0,0.0,0.0,0.0,0.0,0.0,0.0,0.0,0.0,0.0,0.0,0.0,0.0,0.0,0.0,0.0,0.0,0.0,0.0,0.0,0.0,0.0,0.0,0.0,0.0,0.0,0.0,0.0,0.0,0.0,0.0,0.0,0.0,0.0,0.0,0.0,0.0,0.0,0.0,0.0,0.0,0.0,0.0,0.0,0.0,2.1992,2.1956,2.1816,2.1457,2.1355,2.1161,2.083,2.0353,2.0148,0.0,0.0,0.0,0.0,0.0,0.0,0.0,0.0,0.0,0.0,0.0,0.0,0.0,0.0,0.0,0.0,0.0,0.0,0.0,0.0,0.0,0.0,0.0,0.0,0.0,0.0,0.0,0.0,0.0,0.0,0.0,0.0,0.0,0.0,0.0,0.0,0.0,0.0,0.0,0.0,0.0,1.6231,1.6157,1.5647,0.0,0.0,0.0,0.0,1.4184,1.4628,0.0,0.0,0.0,0.0,0.0,0.0,0.0,0.0,0.0,0.0,0.0,0.0,0.0,0.0,0.0,0.0,0.0,0.0,0.0,0.0,0.0,0.0,0.0,0.0,0.0,0.0,0.0,0.0,0.0,0.0,0.0,0.0,0.0,0.0,0.0,0.0,0.0,0.0,0.0,0.0,0.0,0.0,0.0,0.0,0.0,0.0,0.0,0.0,0.0,0.0,0.0,0.0,0.0,0.0,0.0,0.0,2.2258,2.2194,2.2064,2.1925,2.1591,2.1113,2.0544,1.9924,1.9404,0.0,0.0,0.0,0.0,0.0,0.0,0.0,0.0,0.0,0.0,0.0,0.0,0.0,0.0,0.0,0.0,0.0,0.0,0.0,0.0,0.0,0.0,0.0,0.0,0.0,0.0,0.0,0.0,0.0,0.0,0.0,0.0,0.0,0.0,0.0,0.0,0.0,0.0,0.0,0.0,0.0,1.5034,1.492,1.4554,1.4179,0.0,0.0,1.3353,1.3507,1.358,0.0,0.0,0.0,0.0,0.0,0.0,0.0,0.0,0.0,0.0,0.0,0.0,0.0,0.0,0.0,0.0,0.0,0.0,0.0,0.0,0.0,0.0,0.0,0.0,0.0,0.0,0.0,0.0,0.0,0.0,0.0,0.0,0.0,0.0,0.0,0.0,0.0,0.0,0.0,0.0,0.0,0.0,0.0,0.0,0.0,0.0,0.0,0.0,0.0,0.0,0.0,0.0,0.0,0.0,0.0,2.1468,2.157,2.1455,2.1258,2.1054,2.0656,2.0321,2.0074,1.8995,1.8466,0.0,0.0,0.0,0.0,0.0,0.0,0.0,0.0,0.0,0.0,0.0,0.0,0.0,0.0,0.0,0.0,0.0,0.0,0.0,0.0,0.0,0.0,0.0,0.0,0.0,0.0,0.0,0.0,0.0,0.0,0.0,0.0,0.0,0.0,0.0,0.0,0.0,0.0,0.0,0.0,0.0,0.0,1.3486,1.3384,0.0,0.0,0.0,1.2504,1.2342,0.0,0.0,0.0,0.0,0.0,0.0,0.0,0.0,0.0,0.0,0.0,0.0,0.0,0.0,0.0,0.0,0.0,0.0,0.0,0.0,0.0,0.0,0.0,0.0,0.0,0.0,0.0,0.0,0.0,0.0,0.0,0.0,0.0,0.0,0.0,0.0,0.0,0.0,0.0,0.0,0.0,0.0,0.0,0.0,0.0,0.0,0.0,0.0,0.0,0.0,0.0,0.0,0.0,0.0,0.0,0.0,0.0,2.0888,2.0609,2.0311,2.0002,1.9647,1.9357,1.9193,1.7958,0.0,0.0,0.0,0.0,0.0,0.0,0.0,0.0,0.0,0.0,0.0,0.0,0.0,0.0,0.0,0.0,0.0,0.0,0.0,0.0,0.0,0.0,0.0,0.0,0.0,0.0,0.0,1.1972,0.0,0.0,0.0,0.0,0.0,0.0,0.0,0.0,0.0,0.0,0.0,0.0,0.0,0.0,1.2767,1.2543,1.2486,1.2432,0.0,0.0,1.189,1.1602,1.175,1.1858,0.0,0.0,0.0,0.0,0.0,0.0,0.0,0.0,0.0,0.0,0.0,0.0,0.0,0.0,0.0,0.0,0.0,0.0,0.0,0.0,0.0,0.0,0.0,0.0,0.0,0.0,0.0,0.0,0.0,0.0,0.0,0.0,0.0,0.0,0.0,0.0,0.0,0.0,0.0,0.0,0.0,0.0,0.0,0.0,0.0,0.0,0.0,0.0,0.0,0.0,0.0,0.0,0.0,0.0,0.0,2.0592,1.9863,1.9426,1.9262,1.8885,1.8406,1.7852,1.7002,1.6462,0.0,0.0,0.0,0.0,0.0,0.0,0.0,0.0,0.0,0.0,0.0,0.0,0.0,0.0,0.0,0.0,0.0,0.0,0.0,0.0,0.0,0.0,0.0,0.0,0.0,0.0,0.0,0.0,0.0,0.0,0.0,0.0,0.0,0.0,0.0,0.0,0.0,0.0,0.0,0.0,0.0,1.234,1.2497,1.2176,1.1973,0.0,0.0,1.1496,1.1655,1.1696,1.1783,1.1921,0.0,0.0,0.0,0.0,0.0,0.0,0.0,0.0,0.0,0.0,0.0,0.0,0.0,0.0,0.0,0.0,0.0,0.0,0.0,0.0,0.0,0.0,0.0,0.0,0.0,0.0,0.0,0.0,0.0,0.0,0.0,0.0,0.0,0.0,0.0,0.0,0.0,0.0,0.0,0.0,0.0,0.0,0.0,0.0,0.0,0.0,0.0,0.0,0.0,0.0,0.0,0.0,0.0,1.9191,1.9107,1.861,1.8324,1.8259,1.7961,1.7661,1.7348,1.6189,1.5584,0.0,0.0,0.0,0.0,0.0,0.0,0.0,0.0,0.0,0.0,0.0,0.0,0.0,0.0,0.0,0.0,0.0,0.0,0.0,0.0,0.0,0.0,0.0,0.0,0.0,0.0,0.0,0.0,1.1305,1.127,1.1145,0.0,0.0,0.0,0.0,0.0,0.0,0.0,0.0,0.0,0.0,1.1853,1.1952,1.1893,0.0,0.0,1.1664,1.1513,1.1503,1.151,1.1497,1.1516,1.1439,0.0,0.0,0.0,0.0,0.0,0.0,0.0,0.0,0.0,0.0,0.0,0.0,0.0,0.0,0.0,0.0,0.0,0.0,0.0,0.0,0.0,0.0,0.0,0.0,0.0,0.0,0.0,0.0,0.0,0.0,0.0,0.0,0.0,0.0,0.0,0.0,0.0,0.0,0.0,0.0,0.0,0.0,0.0,0.0,0.0,0.0,0.0,0.0,0.0,0.0,0.0,0.0,1.8167,1.786,1.7441,1.7228,1.7237,1.6774,1.6507,1.6385,1.5351,1.4785,0.0,0.0,0.0,0.0,0.0,0.0,0.0,0.0,0.0,0.0,0.0,0.0,0.0,0.0,0.0,0.0,0.0,0.0,0.0,0.0,0.0,0.0,0.0,0.0,0.0,0.0,0.0,0.0,1.12,1.1159,1.0988,0.0,0.0,0.0,0.0,0.0,0.0,0.0,0.0,0.0,0.0,1.1748,1.1755,1.1837,1.1898,1.1898,1.1775,1.1611,1.1538,1.1525,1.147,1.1356,0.0,0.0,0.0,0.0,0.0,0.0,0.0,0.0,0.0,0.0,0.0,0.0,0.0,0.0,0.0,0.0,0.0,0.0,0.0,0.0,0.0,0.0,0.0,0.0,0.0,0.0,0.0,0.0,0.0,0.0,2.1426,0.0,0.0,0.0,0.0,0.0,0.0,0.0,0.0,0.0,0.0,0.0,0.0,0.0,0.0,0.0,0.0,0.0,0.0,0.0,0.0,0.0,0.0,1.7616,1.7098,1.6472,1.6131,1.6131,1.5305,1.4915,1.4867,1.4461,1.4065,1.3752,0.0,0.0,0.0,0.0,0.0,0.0,0.0,0.0,0.0,0.0,0.0,0.0,0.0,0.0,0.0,0.0,0.0,0.0,0.0,0.0,0.0,0.0,0.0,0.0,0.0,0.0,1.1213,1.12,1.12,0.0,0.0,0.0,0.0,0.0,0.0,0.0,0.0,0.0,0.0,1.19,1.2091,1.2091,1.2091,1.2098,1.2098,1.1925,1.1786,1.178,1.178,1.1739,0.0,0.0,0.0,0.0,0.0,0.0,0.0,0.0,0.0,0.0,0.0,0.0,0.0,0.0,0.0,0.0,0.0,0.0,0.0,0.0,0.0,0.0,0.0,0.0,0.0,0.0,0.0,2.084,2.089,0.0,0.0,0.0,0.0,0.0,0.0,0.0,0.0,0.0,0.0,0.0,1.7919,1.7846,0.0,0.0,0.0,0.0,0.0,0.0,0.0,0.0,0.0,0.0,0.0,0.0,1.616,1.6007,1.5393,1.5038,1.5046,1.4822,1.4708,1.4602,1.4191,1.3734,1.3249,0.0,0.0,0.0,0.0,0.0,0.0,0.0,0.0,0.0,0.0,0.0,0.0,0.0,0.0,0.0,0.0,0.0,0.0,0.0,0.0,0.0,0.0,0.0,0.0,0.0,1.1606,0.0,0.0,0.0,0.0,0.0,0.0,0.0,0.0,0.0,0.0,0.0,1.1694,1.1891,1.2088,1.2254,1.2254,1.221,1.2216,0.0,0.0,0.0,0.0,0.0,0.0,0.0,0.0,0.0,0.0,0.0,0.0,0.0,0.0,1.131,1.1204,1.1203,1.127,1.1505,0.0,0.0,0.0,0.0,0.0,0.0,0.0,0.0,0.0,0.0,0.0,0.0,0.0,0.0,1.9754,0.0,1.9844,0.0,0.0,0.0,0.0,0.0,0.0,0.0,0.0,1.7387,1.7154,1.6776,1.6776,1.6835,0.0,1.6972,1.7283,0.0,0.0,0.0,0.0,0.0,0.0,0.0,0.0,1.5405,1.5121,1.4645,1.436,1.4367,1.4298,1.4215,1.4122,1.3771,1.3409,1.3077,1.2793,1.2637,0.0,0.0,0.0,0.0,0.0,0.0,0.0,0.0,0.0,0.0,0.0,0.0,0.0,0.0,0.0,0.0,0.0,0.0,0.0,0.0,0.0,0.0,0.0,1.1911,0.0,0.0,0.0,0.0,0.0,0.0,0.0,0.0,0.0,1.1782,1.1823,1.1925,1.2152,1.2271,1.2366,1.2366,0.0,0.0,0.0,0.0,0.0,0.0,0.0,1.2193,1.2247,1.2257,1.2315,1.2223,1.2047,1.1884,1.1789,0.0,0.0,1.141,1.1356,1.1391,1.1601,1.1671,1.1741,1.1951,1.1986,1.2,0.0,0.0,0.0,0.0,0.0,0.0,0.0,0.0,1.8925,1.851,0.0,1.8542,0.0,0.0,0.0,0.0,0.0,1.7686,0.0,0.0,1.6038,1.5577,1.5285,1.5293,1.5242,1.5242,1.5647,1.5837,1.5883,1.717,0.0,0.0,0.0,0.0,0.0,0.0,1.5261,1.4519,1.4215,1.4088,1.4088,1.3624,1.3417,1.3403,1.3309,1.3227,1.3214,1.3077,1.2935,1.2713,1.2596,0.0,0.0,0.0,0.0,0.0,0.0,0.0,0.0,0.0,0.0,0.0,0.0,0.0,0.0,0.0,0.0,0.0,0.0,0.0,0.0,1.2118,0.0,0.0,0.0,0.0,0.0,0.0,0.0,0.0,0.0,0.0,1.2152,1.221,1.2305,1.2318,0.0,0.0,0.0,0.0,1.2515,1.2515,1.24,1.2311,1.2318,1.2318,1.2359,1.2494,0.0,0.0,1.2542,1.2322,1.2145,1.2132,1.2145,1.2036,1.1692,1.166,1.1633,1.1633,1.1633,1.1633,1.1633,1.1669,1.1703,1.7982,0.0,0.0,0.0,0.0,1.8964,1.8509,1.7847,1.786,1.7545,1.6952,1.7087,0.0,0.0,0.0,0.0,0.0,0.0,1.6242,1.5744,1.5805,1.583,1.5698,1.5705,1.5705,1.569,1.5583,1.5506,1.5541,1.5839,1.6202,1.6649,0.0,0.0,0.0,0.0,1.4585,1.4491,1.4076,1.3885,1.3885,1.3758,1.3626,1.3566,1.3484,1.3444,1.3342,1.3234,1.3132,1.3051,1.2908,0.0,0.0,0.0,0.0,0.0,0.0,0.0,0.0,0.0,0.0,0.0,0.0,0.0,0.0,0.0,0.0,0.0,0.0,0.0,1.2717,1.2603,1.2494,0.0,0.0,0.0,0.0,0.0,0.0,0.0,0.0,0.0,1.2724,1.2644,1.2644,0.0,0.0,1.2827,1.2867,1.2867,1.2834,1.2873,1.2839,0.0,1.2805,1.2805,1.2819,1.2867,1.2907,1.2921,1.288,1.2799,1.2744,1.2737,1.2744,1.271,1.2576,1.2254,1.1965,1.1975,1.1975,1.1968,1.1938,1.1968,1.1989,1.6982,1.8021,1.7981,1.7905,1.7826,1.7814,1.7447,1.6824,1.6936,1.6613,1.6081,1.6256,1.6387,1.651,1.6685,0.0,0.0,0.0,1.5661,1.5403,1.542,1.5416,1.5416,1.5424,1.5424,1.5409,1.5223,1.5123,1.5123,1.5037,1.5199,1.5609,0.0,0.0,1.5106,1.4598,1.4302,1.4223,1.393,1.3795,1.3795,1.3795,1.3754,1.3673,1.3673,1.3626,1.3538,1.3492,1.341,1.3356,1.3214,1.3105,0.0,0.0,0.0,0.0,0.0,0.0,0.0,0.0,0.0,0.0,0.0,1.2074,0.0,0.0,0.0,0.0,1.263,1.2759,1.2982,1.2874,0.0,0.0,0.0,0.0,0.0,0.0,0.0,1.2657,1.2732,1.284,1.3057,1.3017,1.299,1.3003,1.3003,1.3003,1.3003,0.0,1.3003,1.3003,1.3003,1.3003,1.3003,1.3003,1.3016,1.3077,1.3084,1.3084,1.3084,1.3043,1.3003,1.3003,1.3003,1.3003,1.3003,1.2696,1.2458,1.2458,1.2458,1.2458,1.2458,1.2458,1.2458,1.6326,1.6311,1.611,1.6302,1.6696,1.6325,1.6189,1.6151,1.6098,1.5787,1.5385,1.578,1.5787,1.5423,1.5833,0.0,1.6007,1.556,1.5325,1.5332,1.489,1.4714,1.4714,1.476,1.4708,1.476,1.4701,1.4694,1.4687,1.4733,1.4694,1.4719,1.5031,1.4944,1.45,1.4493,1.4264,1.3835,1.3835,1.3835,1.3835,1.3835,1.3829,1.3815,1.3815,1.3808,1.3795,1.3795,1.3741,1.3605,1.3512,1.337,1.3275,0.0,0.0,0.0,0.0,0.0,0.0,0.0,0.0,0.0,0.0,0.0,0.0,0.0,0.0,0.0,1.3057,0.0,1.3071,1.3071,0.0,0.0,0.0,1.2834,1.3003,1.2854,1.2827,1.3016,0.0,0.0,1.3268,1.3349,1.3294,1.3071,1.301,1.3037,1.3037,1.305,1.3037,1.3057,1.3043,1.3037,1.3064,1.3057,1.3105,1.3173,1.3234,1.3193,1.3227,1.3139,1.305,1.305,1.3043,1.3043,1.3037,1.299,1.3037,1.3016,1.2996,1.2982,1.2955,1.2948,1.2941,1.5501,1.5501,1.5419,1.5728,1.6234,1.6143,1.5924,1.5605,1.5605,1.5287,1.4876,1.4968,1.515,1.543,1.5514,1.556,1.556,1.5104,1.4876,1.4883,1.4908,1.4916,1.4916,1.4916,1.4916,1.4909,1.4748,1.4694,1.4694,1.4694,1.4694,1.4733,1.4778,1.4737,1.4486,1.4377,1.4322,1.419,1.419,1.419,1.419,1.419,1.4136,1.4021,1.4014,1.396,1.3802,1.3795,1.3781,1.3747,1.3714,1.3722,1.3639,1.3546,0.0,0.0,0.0,0.0,0.0,0.0,0.0,0.0,0.0,1.2562,1.2867,0.0,1.3057,0.0,1.3498,1.3592,1.3592,1.3634,0.0,0.0,1.3336,1.3207,1.3132,1.3132,1.3166,1.3281,1.3431,1.3559,1.3626,1.3369,1.3157,1.3085,1.3181,1.3336,1.3295,1.3295,1.3295,1.3295,1.3254,1.3295,1.3295,1.3295,1.3308,1.3342,1.3349,1.3349,1.3349,1.3322,1.3295,1.3295,1.3295,1.3295,1.3295,1.3295,1.3295,1.3281,1.3159,1.3003,1.3003,1.3003,1.3003,1.5181,1.5181,1.5181,1.5412,1.5721,1.5721,1.5537,1.5306,1.5306,1.5167,1.4936,1.4936,1.5075,1.5306,1.5306,1.5313,1.5313,1.5029,1.4936,1.4943,1.5025,1.5065,1.5112,1.5112,1.5065,1.5105,1.4977,1.4936,1.4936,1.4936,1.4936,1.489,1.4875,1.4801,1.4713,1.457,1.4496,1.4496,1.4496,1.4496,1.4496,1.4451,1.4421,1.4278,1.4272,1.4197,1.4004,1.4004,1.3971,1.3953,1.3946,1.3869,1.3802,1.372,1.3612,0.0,0.0,0.0,0.0,0.0,0.0,0.0,0.0,0.0,0.0,0.0,1.3417,1.3538,1.3707,1.3795,1.3795,1.3795,1.3768,1.3687,1.3605,1.3559,1.3478,1.3305,1.3206,1.325,1.3125,1.3075,1.3146,1.2944,1.2773,1.2815,1.2902,1.2969,1.2969,1.2969,1.2969,1.2969,1.2969,1.3053,1.3215,1.3425,1.3558,1.3593,1.36,1.3558,1.3558,1.3593,1.3551,1.36,1.3558,1.3558,1.3551,1.36,1.3558,1.3573,1.3464,1.3315,1.3227,1.32,1.32,1.5181,1.5181,1.5181,1.5181,1.5181,1.5181,1.5181,1.5181,1.5181,1.5181,1.5181,1.5181,1.5181,1.5181,1.5181,1.5181,1.5181,1.5181,1.5181,1.5181,1.5181,1.5181,1.5181,1.5181,1.5181,1.5181,1.5181,1.5181,1.5181,1.5181,1.5181,1.5181,1.5059,1.5044,1.5037,1.4869,1.4735,1.4694,1.4694,1.4694,1.4694,1.4694,1.4633,1.455,1.4543,1.4482,1.4367,1.434,1.4278,1.4207,1.4143,1.4075,1.3916,1.3896,1.3822,0.0,1.3695,0.0,0.0,0.0,0.0,0.0,0.0,0.0,0.0,1.3666,1.3829,1.3829,1.3842,1.3856,1.3856,1.3813,1.377,1.377,1.3707,1.3657,1.3657,1.3307,1.3006,1.2963,1.2601,1.2354,1.228,1.2225,1.2188,1.2156,1.2064,1.2009,1.2089,1.2275,1.246,1.2392,1.2392,1.2613,1.2955,1.3311,1.3525,1.3574,1.3646,1.3709,1.3696,1.3738,1.3788,1.3788,1.3774,1.3781,1.3795,1.3788,1.3788,1.3774,1.3754,1.368,1.3519,1.3458,1.3458,1.5181,1.5181,1.5181,1.5181,1.5181,1.5181,1.5181,1.5181,1.5181,1.5181,1.5181,1.5181,1.5181,1.5181,1.5181,1.5181,1.5181,1.5181,1.5181,1.5181,1.5181,1.5181,1.5181,1.5181,1.5181,1.5181,1.5181,1.5181,1.5181,1.5181,1.5181,1.5181,1.5153,1.514,1.514,0.0,0.0,0.0,1.4694,1.4694,1.4694,1.4694,1.4681,1.4654,1.4654,0.0,1.4606,1.4536,1.4516,1.4559,1.4496,0.0,0.0,0.0,0.0,0.0,0.0,0.0,0.0,0.0,0.0,0.0,1.3892,1.3892,1.3734,1.3926,1.4027,1.4034,1.4143,1.4211,1.4217,1.3859,1.3639,1.3632,1.3229,1.2892,1.2892,1.2811,1.2631,1.2196,1.2158,1.2052,1.161,1.1257,1.1036,1.0986,1.0677,1.046,1.046,1.1537,1.2318,1.2392,1.2293,1.2404,1.2521,1.2582,1.2699,1.2693,1.303,1.3214,1.327,1.3564,1.3808,1.3779,1.3795,1.3808,1.3808,1.3795,1.3815,1.3802,1.3802,1.3781,1.3727,1.3714,1.3714,1.5404,1.5404,1.5404,1.5411,0.0,1.5411,1.5411,1.5398,1.5248,1.5181,1.5181,1.5181,1.5181,1.5181,1.5181,1.5181,1.5181,1.5181,1.5181,1.5181,1.5181,1.5181,1.5181,1.5181,1.5181,1.5181,1.5181,1.5181,1.5181,1.5181,1.5181,1.5181,1.5181,1.5181,1.5181,1.5181,1.5106,1.4957,1.4964,1.4957,1.4957,1.4957,1.4923,1.4855,1.4855,0.0,0.0,0.0,0.0,0.0,0.0,0.0,0.0,0.0,0.0,1.4478,1.4441,1.4322,1.4248,1.4241,1.4241,1.4241,1.4131,1.4067,1.414,1.4245,1.4231,1.4082,1.411,1.4067,1.3746,1.3521,1.3386,1.3386,1.292,1.261,1.2565,1.2163,1.167,1.1133,1.0955,1.068,1.0183,0.9911,0.9776,0.9776,0.9594,0.9364,0.9486,1.0407,1.1204,1.1307,1.1544,1.1654,1.1749,1.1938,1.2154,1.2426,1.2642,1.2907,1.3129,1.335,1.3483,1.3527,1.3652,1.3775,1.3813,1.3941,1.4068,1.4025,1.4025,1.4068,1.4011,1.3903,1.3795,1.5587,1.5587,1.5587,1.5587,1.5587,1.5587,1.5587,1.5573,0.0,0.0,0.0,1.5262,1.5262,1.5262,1.5235,1.5221,1.5221,1.5194,1.5181,1.5181,1.5181,1.5181,1.5181,1.5181,1.5181,1.5181,1.5181,1.5181,1.5181,1.5181,1.5181,1.5181,1.5181,1.5181,1.5181,1.5181,1.5181,1.5181,1.5181,1.5181,1.5181,1.5181,1.5126,1.5011,1.5057,1.495,1.4775,1.4748,1.4794,1.4769,1.4794,1.4748,1.4769,1.4794,1.4735,1.4735,1.4708,1.4694,1.4694,1.4694,1.4649,1.4603,1.414,1.4004,1.4376,1.4325,1.4146,1.386,1.3866,1.3638,1.3135,1.2998,1.2901,1.2815,1.2306,1.194,1.1894,1.1161,1.0367,0.9784,0.9362,0.891,0.8354,0.8259,0.827,0.827,0.8209,0.827,0.8393,0.9146,0.9887,0.9997,1.0278,1.0548,1.0622,1.0861,1.139,1.1719,1.1918,1.226,1.2678,1.2946,1.3038,1.3087,1.3401,1.3649,1.3681,1.3867,1.4113,1.4107,1.4196,1.424,1.422,1.4096,1.3971,1.5593,1.5587,1.5587,1.5587,1.5587,1.5587,1.5587,1.5587,1.5546,1.5526,1.5526,1.5526,1.5526,1.5567,1.5438,1.5377,1.5371,1.5242,1.5181,1.5181,1.5181,1.5181,1.5181,1.5181,1.5181,1.5181,1.5181,1.5181,1.5181,1.5181,1.5181,1.5181,1.5181,1.5181,1.5181,1.5181,1.5181,1.5181,1.5181,1.5181,1.5181,1.5181,1.5221,1.52,1.5153,1.5147,1.512,1.5004,1.4997,1.5106,1.5004,1.4991,1.5106,1.4997,1.4936,1.493,1.4814,1.4694,1.4694,1.4694,1.4512,1.4101,1.3592,1.3534,1.4023,1.3652,1.3339,1.3318,1.3285,1.3135,1.2626,1.2226,1.1773,1.1309,1.0478,0.9926,0.9935,0.9429,0.8739,0.7863,0.7668,0.726,0.6481,0.6293,0.6296,0.6244,0.6259,0.6244,0.6478,0.7791,0.884,0.8986,0.9036,0.9086,0.9115,0.9149,0.9434,0.983,1.0257,1.0681,1.1238,1.1973,1.2386,1.2546,1.2855,1.3157,1.3242,1.3321,1.3375,1.3414,1.3686,1.401,1.4004,1.4223,1.4413,1.5879,1.5879,1.5879,1.5879,1.5879,1.5879,1.5879,1.5879,1.5879,1.5784,1.5593,1.5587,1.5587,1.5587,1.5567,1.5533,1.5485,1.5459,1.5432,1.5432,1.5432,1.5377,1.5432,1.5432,1.5384,1.5425,1.5343,1.5309,1.5303,1.5221,1.5181,1.5181,1.5181,1.5181,1.5181,1.5181,1.5181,1.5181,1.5181,1.5181,1.5181,1.5181,1.5181,1.5181,1.5181,1.5181,1.5181,1.512,1.5113,1.5181,1.512,1.5166,1.5174,1.5166,1.5132,1.5086,1.4739,1.456,1.456,1.4288,1.3963,1.3446,1.2935,1.2609,1.2609,1.2824,1.272,1.2272,1.2237,1.191,1.1165,1.0885,1.0558,1.004,0.9058,0.8501,0.836,0.7748,0.7048,0.6345,0.6204,0.5826,0.4841,0.47,0.4604,0.4416,0.4369,0.4322,0.4367,0.5071,0.6138,0.7044,0.727,0.7287,0.7363,0.7326,0.7654,0.8314,0.8641,0.9105,0.9806,1.0646,1.102,1.116,1.163,1.2044,1.2131,1.2535,1.2735,1.2861,1.3227,1.3501,1.3592,1.3775,1.3978,1.6178,1.6185,1.6185,1.6164,1.613,1.6096,1.6133,1.6133,1.6126,1.5954,1.5757,1.5737,1.5737,1.5688,1.5703,1.5689,1.5683,1.5607,1.5587,1.5587,1.5587,1.5587,1.5587,1.5587,1.5587,1.558,1.552,1.5459,1.5445,1.5343,1.5282,1.5282,1.5282,1.5282,1.5282,1.5282,1.5289,1.5282,1.5282,1.5248,1.5181,1.5181,1.5181,1.5181,1.5181,1.5181,1.5181,1.5181,1.5181,1.5181,1.5181,1.5181,1.5181,1.5087,1.504,1.4993,1.4523,1.4194,1.4052,1.3487,1.2975,1.245,1.1931,1.1411,1.0886,1.1188,1.1455,1.1112,1.0975,1.046,0.9604,0.9371,0.9138,0.847,0.7619,0.709,0.7002,0.6193,0.5385,0.4911,0.472,0.424,0.3526,0.3288,0.3142,0.2855,0.2764,0.2764,0.2764,0.2716,0.3418,0.4487,0.5179,0.5381,0.552,0.557,0.5995,0.6907,0.7093,0.7463,0.8222,0.8893,0.9328,0.9496,1.0112,1.0629,1.0801,1.131,1.1726,1.1819,1.224,1.2777,1.2927,1.2973,1.3263,1.6476,1.6483,1.6469,1.6402,1.6279,1.6144,1.609,1.6139,1.6133,1.6069,1.6042,1.6042,1.6035,1.6022,1.5942,1.5881,1.5874,1.5703,1.56,1.56,1.5587,1.5587,1.5607,1.56,1.5587,1.56,1.558,1.5615,1.5566,1.5546,1.5546,1.5553,1.5546,1.5539,1.5539,1.5588,1.5546,1.5546,1.5546,1.5418,1.5201,1.5181,1.5181,1.5181,1.5187,1.5181,1.5201,1.5181,1.5181,1.5181,1.5187,1.5181,1.514,1.4758,1.4476,1.4422,1.4012,1.3541,1.3022,1.2172,1.1411,1.0933,1.0422,0.9716,0.8814,0.8328,0.8652,0.9478,0.9522,0.8853,0.7952,0.7813,0.7388,0.6535,0.5823,0.553,0.5347,0.4623,0.3813,0.3338,0.3011,0.2337,0.1959,0.1815,0.1765,0.1668,0.1669,0.1669,0.1669,0.1669,0.1716,0.2094,0.2664,0.3424,0.3859,0.4002,0.443,0.5242,0.5482,0.5765,0.6381,0.7144,0.7809,0.7901,0.8557,0.9157,0.9346,0.9728,1.0144,1.0301,1.0869,1.1653,1.2087,1.2159,1.2399,1.6517,1.6517,1.6517,1.649,1.6429,1.6368,1.6341,1.6341,1.6341,1.6341,1.6341,1.6341,1.6246,1.6076,1.6064,1.6037,1.603,1.5927,1.59,1.59,1.59,1.59,1.59,1.59,1.59,1.5886,1.5811,1.5764,1.575,1.5683,1.5587,1.5587,1.5587,1.5587,1.5587,1.5587,1.5587,1.5587,1.5587,1.5526,1.5472,1.5452,1.5452,1.5452,1.5452,1.5452,1.5452,1.5452,1.5452,1.5397,1.5079,1.489,1.4883,1.4339,1.3864,1.3487,1.2786,1.1983,1.1179,1.0753,1.016,0.9446,0.8929,0.8277,0.7649,0.6782,0.6492,0.6722,0.7096,0.6998,0.6342,0.5987,0.5526,0.481,0.4011,0.354,0.3542,0.2909,0.2328,0.2134,0.1989,0.1649,0.1163,0.0772,0.0624,0.0621,0.0,0.0,0.0,0.062,0.062,0.0668,0.1001,0.1526,0.224,0.243,0.2811,0.3289,0.3527,0.3766,0.4621,0.5289,0.5908,0.6149,0.6859,0.7331,0.7328,0.7999,0.8573,0.8759,0.9328,1.0129,1.0318,1.0365,1.0649,1.6646,1.6639,1.6554,1.6585,1.6527,1.6537,1.6517,1.6517,1.6517,1.6517,1.6517,1.6517,1.6408,1.6218,1.6198,1.6198,1.6198,1.6205,1.6205,1.6198,1.6198,1.6205,1.6205,1.6205,1.6205,1.6185,1.6096,1.6042,1.6029,1.594,1.581,1.5783,1.5776,1.5749,1.5715,1.5611,1.5513,1.5513,1.5367,1.5318,1.527,1.5318,1.5327,1.5358,1.5248,1.5151,1.5151,1.5151,1.5151,1.5145,1.4758,1.4412,1.4262,1.3698,1.2984,1.2169,1.136,1.0406,0.9403,0.9216,0.8713,0.7752,0.7275,0.6809,0.6167,0.5296,0.4561,0.4164,0.4504,0.4662,0.452,0.416,0.3738,0.3207,0.2494,0.2111,0.2061,0.162,0.1325,0.1325,0.1176,0.0982,0.0638,0.0,0.0,0.0,0.0,0.0,0.0,0.0,0.0,0.0,0.0,0.0382,0.1144,0.1383,0.1526,0.1859,0.2193,0.2431,0.3097,0.3573,0.4004,0.4385,0.5002,0.5477,0.5668,0.6286,0.7049,0.7287,0.7758,0.828,0.828,0.828,0.8612,1.6965,1.6937,1.6757,1.6702,1.6682,1.6554,1.653,1.6551,1.6537,1.653,1.6544,1.6537,1.6517,1.6503,1.6503,1.6497,1.649,1.6476,1.6476,1.6476,1.6483,1.6497,1.6503,1.6503,1.649,1.6463,1.6442,1.6442,1.6412,1.6412,1.6415,1.6229,1.6152,1.6148,1.5934,1.5509,1.531,1.526,1.4862,1.4557,1.4557,1.4557,1.4595,1.464,1.4382,1.4146,1.4091,1.4085,1.4085,1.4085,1.3982,1.3776,1.3291,1.2795,1.1809,1.0405,0.9777,0.8997,0.8015,0.7427,0.6704,0.5781,0.5536,0.51,0.4278,0.3639,0.3051,0.2456,0.2162,0.2111,0.2405,0.2502,0.2258,0.1815,0.162,0.1524,0.1524,0.1083,0.0835,0.0786,0.0443,0.0,0.0,0.0,0.0,0.0,0.0,0.0,0.0,0.0,0.0,0.0,0.0,0.0191,0.0715,0.0811,0.1001,0.124,0.1383,0.1573,0.1716,0.1955,0.2288,0.267,0.3383,0.3907,0.4097,0.4621,0.5385,0.5765,0.5953,0.6238,0.6378,0.6286,0.6669,1.7263,1.7256,1.7149,1.7127,1.7026,1.6971,1.6897,1.6815,1.6815,1.6815,1.6815,1.6815,1.6815,1.6815,1.6815,1.6707,1.653,1.6517,1.6517,1.6517,1.6517,1.6517,1.6517,1.6517,1.6517,1.6517,1.6517,1.6517,1.6473,1.6166,1.5993,1.5851,1.5532,1.5297,1.5259,1.5094,1.4993,1.4942,1.4485,1.418,1.4067,1.3514,1.3013,1.2775,1.3427,1.3638,1.3292,1.3292,1.3292,1.3292,1.288,1.2585,1.2286,1.1197,0.9989,0.8769,0.8134,0.7401,0.6373,0.5783,0.5163,0.4502,0.3762,0.3376,0.2943,0.2449,0.1899,0.1451,0.1207,0.1059,0.0906,0.1148,0.1288,0.1091,0.0747,0.0,0.05,0.04,0.03,0.025,0.0,0.0,0.0,0.0,0.0,0.0,0.0,0.0,0.0,0.0,0.0,0.0,0.0,0.0048,0.0239,0.0286,0.0334,0.0429,0.0572,0.0811,0.1001,0.1144,0.1478,0.1764,0.2288,0.2526,0.2811,0.3097,0.3859,0.4145,0.4288,0.4526,0.4573,0.4621,0.5099,1.7419,1.7419,1.7419,1.7358,1.727,1.7263,1.7216,1.7127,1.7121,1.7121,1.7127,1.7121,1.7121,1.7121,1.7121,1.7019,1.6809,1.672,1.6673,1.6666,1.6666,1.6563,1.6408,1.6357,1.6254,1.615,1.6099,1.6099,1.6099,1.5744,1.5563,1.5474,1.4901,1.4568,1.4533,1.4219,1.4008,1.3905,1.3289,1.2929,1.2827,1.2055,1.1227,1.0694,1.1393,1.1979,1.1878,1.1928,1.1933,1.1868,1.1512,1.1073,1.0613,0.9462,0.8236,0.7237,0.6645,0.5844,0.4846,0.4195,0.3657,0.3175,0.2522,0.2024,0.1884,0.158,0.1121,0.0715,0.0563,0.036,0.0154,0.0356,0.0555,0.0505,0.0203,0.0,0.0,0.0,0.0,0.0,0.0,0.0,0.0,0.0,0.0,0.0,0.0,0.0,0.0,0.0,0.0,0.0,0.0,0.0,0.0,0.0,0.0,0.0,0.0,0.0,0.0,0.0,0.0,0.0,0.1193,0.1335,0.1526,0.1812,0.2145,0.2526,0.2716,0.2954,0.3002,0.305,0.3621,1.7433,1.7446,1.7372,1.7439,1.7426,1.7426,1.7419,1.7392,1.7392,1.7372,1.7358,1.7392,1.7318,1.7338,1.7257,1.7331,1.7136,1.6875,1.6821,1.6873,1.6873,1.6551,1.6111,1.6059,1.5777,1.5351,1.5271,1.5265,1.5246,1.5135,1.504,1.4904,1.4255,1.3789,1.3922,1.2915,1.2384,1.2188,1.1367,1.0785,1.0617,1.017,0.9346,0.8407,0.839,0.8855,0.9736,0.9831,0.9866,0.9871,0.9815,0.9315,0.8362,0.7683,0.6877,0.5781,0.5175,0.4401,0.3416,0.2739,0.2218,0.1859,0.1605,0.1292,0.0931,0.0828,0.0621,0.0207,0.0,0.0,0.0,0.0,0.0,0.0,0.0,0.0,0.0,0.0,0.0,0.0,0.0,0.0,0.0,0.0,0.0,0.0,0.0,0.0,0.0,0.0,0.0,0.0,0.0,0.0,0.0,0.0,0.0,0.0,0.0,0.0,0.0,0.0,0.0,0.0,0.0,0.0815,0.0957,0.1196,0.1288,0.1526,0.1526,0.0,0.1811,0.2002,0.2098,1.7724,1.7724,1.7724,1.7663,1.7527,1.7527,1.7467,1.7426,1.7419,1.7419,1.7419,1.7419,1.715,1.6826,1.6766,1.6556,1.6172,1.609,1.6267,1.6474,1.6207,1.5942,1.5708,1.5636,1.5322,1.4715,1.4276,1.4118,1.4019,1.376,1.3528,1.3343,1.2548,1.2055,1.1968,1.1281,1.091,1.0752,0.9754,0.918,0.9075,0.8229,0.7387,0.681,0.6705,0.6547,0.612,0.6991,0.7518,0.7569,0.7566,0.7204,0.6534,0.5962,0.5185,0.4151,0.3475,0.2905,0.2231,0.1609,0.1247,0.1038,0.0727,0.0467,0.026,0.0,0.0,0.0,0.0,0.0,0.0,0.0,0.0,0.0,0.0,0.0,0.0,0.0,0.0,0.0,0.0,0.0,0.0,0.0,0.0,0.0,0.0,0.0,0.0,0.0,0.0,0.0,0.0,0.0,0.0,0.0,0.0,0.0,0.0,0.0,0.0,0.0,0.0,0.0,0.0,0.0,0.0,0.0,0.0,0.0,0.0,0.0,0.0,0.1097,0.1288,1.7915,1.7915,1.7915,1.7812,1.7731,1.7731,1.7677,1.7534,1.7317,1.7262,1.7208,1.699,1.6711,1.6439,1.6323,1.6003,1.5457,1.5239,1.5075,1.5149,1.5392,1.5051,1.4545,1.411,1.3755,1.3258,1.2661,1.2389,1.2389,1.2074,1.1918,1.1704,1.0738,1.0153,1.0096,0.94,0.8968,0.8861,0.8057,0.747,0.7149,0.6341,0.5536,0.4893,0.4732,0.4242,0.3479,0.4287,0.494,0.5241,0.5341,0.5079,0.461,0.4193,0.3615,0.283,0.2201,0.1677,0.131,0.0892,0.0524,0.0419,0.0157,0.0,0.0,0.0,0.0,0.0,0.0,0.0,0.0,0.0,0.0,0.0,0.0,0.0,0.0,0.0,0.0,0.0,0.0,0.0,0.0,0.0,0.0,0.0,0.0,0.0,0.0,0.0,0.0,0.0,0.0,0.0,0.0,0.0,0.0,0.0,0.0,0.0,0.0,0.0,0.0,0.0,0.0,0.0,0.0,0.0,0.0,0.0,0.0,0.0,0.0,0.0,0.062,1.7915,1.7915,1.7915,1.7915,1.7853,1.7798,1.7729,1.7736,1.7184,1.6839,1.6735,1.6329,1.5954,1.5911,1.5715,1.5328,1.4914,1.4287,1.3334,1.2946,1.339,1.3559,1.2827,1.1826,1.132,1.1104,1.0511,1.019,1.0174,1.0119,1.0205,1.0023,0.9042,0.846,0.8281,0.7316,0.6815,0.6755,0.6164,0.5565,0.5072,0.4478,0.3768,0.2729,0.2728,0.2447,0.2001,0.1941,0.2308,0.3146,0.3453,0.3241,0.2715,0.2558,0.2234,0.1701,0.1172,0.0958,0.0745,0.0425,0.0,0.0,0.0,0.0,0.0,0.0,0.0,0.0,0.0,0.0,0.0,0.0,0.0,0.0,0.0,0.0,0.0,0.0,0.0,0.0,0.0,0.0,0.0,0.0,0.0,0.0,0.0,0.0,0.0,0.0,0.0,0.0,0.0,0.0,0.0,0.0,0.0,0.0,0.0,0.0,0.0,0.0,0.0,0.0,0.0,0.0,0.0,0.0,0.0,0.0,0.0,0.0,0.0,0.0,0.0,1.7915,1.7915,1.7915,1.7915,1.7805,1.7424,1.7203,1.7148,1.6594,1.6034,1.5702,1.5535,1.4869,1.4203,1.4092,1.3536,1.2752,1.2423,1.142,1.0181,1.0258,1.0908,1.09,0.991,0.9288,0.9182,0.8368,0.7807,0.781,0.7819,0.7816,0.781,0.7112,0.6727,0.6613,0.5582,0.5029,0.4811,0.3991,0.3501,0.3282,0.2736,0.2298,0.2024,0.1916,0.164,0.1145,0.0654,0.0974,0.2028,0.2131,0.2131,0.1867,0.1547,0.1281,0.1067,0.0587,0.0,0.0,0.0,0.0,0.0,0.0,0.0,0.0,0.0,0.0,0.0,0.0,0.0,0.0,0.0,0.0,0.0,0.0,0.0,0.0,0.0,0.0,0.0,0.0,0.0,0.0,0.0,0.0,0.0,0.0,0.0,0.0,0.0,0.0,0.0,0.0,0.0,0.0,0.0,0.0,0.0,0.0,0.0,0.0,0.0,0.0,0.0,0.0,0.0,0.0,0.0,0.0,0.0,0.0,0.0,0.0,0.0,0.0,1.7915,1.786,1.7646,1.7535,1.7424,1.6871,1.6483,1.6151,1.5591,1.498,1.4425,1.3864,1.3314,1.2646,1.2367,1.1587,1.0579,1.0524,0.9519,0.8011,0.739,0.7928,0.856,0.8076,0.7622,0.7512,0.6459,0.5965,0.5857,0.5634,0.5524,0.5418,0.4972,0.4696,0.4589,0.3759,0.3261,0.3152,0.2543,0.2156,0.188,0.1549,0.1217,0.1051,0.0995,0.0773,0.0495,0.0164,0.0327,0.0864,0.097,0.097,0.097,0.07,0.0539,0.0485,0.0,0.0,0.0,0.0,0.0,0.0,0.0,0.0,0.0,0.0,0.0,0.0,0.0,0.0,0.0,0.0,0.0,0.0,0.0,0.0,0.0,0.0,0.0,0.0,0.0,0.0,0.0,0.0,0.0,0.0,0.0,0.0,0.0,0.0,0.0,0.0,0.0,0.0,0.0,0.0,0.0,0.0,0.0,0.0,0.0,0.0,0.0,0.0,0.0,0.0,0.0,0.0,0.0,0.0,0.0,0.0,0.0,0.0,0.0,1.7749,1.7646,1.7148,1.6871,1.6705,1.6151,1.548,1.4864,1.4203,1.3597,1.2813,1.181,1.1309,1.1197,1.0472,0.969,0.8737,0.857,0.7396,0.5997,0.5045,0.5153,0.6213,0.6039,0.5813,0.5648,0.4707,0.431,0.4082,0.3695,0.3475,0.3469,0.2967,0.269,0.2796,0.2129,0.174,0.1793,0.1623,0.1287,0.0951,0.0783,0.0615,0.0,0.0,0.0,0.0,0.0,0.0,0.0,0.0,0.0,0.0,0.0,0.0,0.0,0.0,0.0,0.0,0.0,0.0,0.0,0.0,0.0,0.0,0.0,0.0,0.0,0.0,0.0,0.0,0.0,0.0,0.0,0.0,0.0,0.0,0.0,0.0,0.0,0.0,0.0,0.0,0.0,0.0,0.0,0.0,0.0,0.0,0.0,0.0,0.0,0.0,0.0,0.0,0.0,0.0,0.0,0.0,0.0,0.0,0.0,0.0,0.0,0.0,0.0,0.0,0.0,0.0,0.0,0.0,0.0,0.0,0.0,0.0,1.6926,1.6483,1.6373,1.6034,1.5535,1.4925,1.4092,1.3025,1.2418,1.1643,1.0695,0.991,0.9296,0.8849,0.829,0.7566,0.6839,0.6335,0.5213,0.3533,0.2749,0.2525,0.3141,0.3365,0.3533,0.3365,0.2806,0.2413,0.2357,0.2357,0.2188,0.2132,0.202,0.1964,0.1852,0.1403,0.1067,0.101,0.0674,0.0,0.0,0.0,0.0,0.0,0.0,0.0,0.0,0.0,0.0,0.0,0.0,0.0,0.0,0.0,0.0,0.0,0.0,0.0,0.0,0.0,0.0,0.0,0.0,0.0,0.0,0.0,0.0,0.0,0.0,0.0,0.0,0.0,0.0,0.0,0.0,0.0,0.0,0.0,0.0,0.0,0.0,0.0,0.0,0.0,0.0,0.0,0.0,0.0,0.0,0.0,0.0,0.0,0.0,0.0,0.0,0.0,0.0,0.0,0.0,0.0,0.0,0.0,0.0,0.0,0.0,0.0,0.0,0.0,0.0,0.0,0.0,0.0,0.0,0.0,0.0,1.5979,1.5646,1.5036,1.4481,1.3864,1.3253,1.2367,1.1304,1.0635,0.991,0.8964,0.8126,0.7396,0.678,0.6165,0.5493,0.4654,0.3982,0.3253,0.2301,0.1683,0.1403,0.1291,0.1459,0.1627,0.2019,0.1683,0.1403,0.1347,0.1123,0.0954,0.0954,0.0,0.0898,0.0954,0.0,0.0505,0.0449,0.0,0.0,0.0,0.0,0.0,0.0,0.0,0.0,0.0,0.0,0.0,0.0,0.0,0.0,0.0,0.0,0.0,0.0,0.0,0.0,0.0,0.0,0.0,0.0,0.0,0.0,0.0,0.0,0.0,0.0,0.0,0.0,0.0,0.0,0.0,0.0,0.0,0.0,0.0,0.0,0.0,0.0,0.0,0.0,0.0,0.0,0.0,0.0,0.0,0.0,0.0,0.0,0.0,0.0,0.0,0.0,0.0,0.0,0.0,0.0,0.0,0.0,0.0,0.0,0.0,0.0,0.0,0.0,0.0,0.0,0.0,0.0,0.0,0.0,0.0,0.0,0.0,1.4753,1.4586,1.3425,1.2585,1.1913,1.1416,1.0472,0.9355,0.8849,0.8122,0.7451,0.6335,0.5551,0.4935,0.4373,0.3476,0.2636,0.2076,0.174,0.1403,0.0954,0.0786,0.0674,0.0505,0.0617,0.1403,0.101,0.0786,0.0618,0.0,0.0,0.0,0.0,0.0,0.0,0.0,0.0,0.0,0.0,0.0,0.0,0.0,0.0,0.0,0.0,0.0,0.0,0.0,0.0,0.0,0.0,0.0,0.0,0.0,0.0,0.0,0.0,0.0,0.0,0.0,0.0,0.0,0.0,0.0,0.0,0.0,0.0,0.0,0.0,0.0,0.0,0.0,0.0,0.0,0.0,0.0,0.0,0.0,0.0,0.0,0.0,0.0,0.0,0.0,0.0,0.0,0.0,0.0,0.0,0.0,0.0,0.0,0.0,0.0,0.0,0.0,0.0,0.0,0.0,0.0,0.0,0.0,0.0,0.0,0.0,0.0,0.0,0.0,0.0,0.0,0.0,0.0,0.0,0.0,0.0,1.2641,1.2145,1.142,1.0528,0.9627,0.9463,0.8458,0.7063,0.6783,0.6109,0.5101,0.4374,0.3758,0.3197,0.2525,0.1852,0.1347,0.1066,0.0842,0.0,0.0,0.0,0.0,0.0,0.0,0.0225,0.0,0.0,0.0,0.0,0.0,0.0,0.0,0.0,0.0,0.0,0.0,0.0,0.0,0.0,0.0,0.0,0.0,0.0,0.0,0.0,0.0,0.0,0.0,0.0,0.0,0.0,0.0,0.0,0.0,0.0,0.0,0.0,0.0,0.0,0.0,0.0,0.0,0.0,0.0,0.0,0.0,0.0,0.0,0.0,0.0,0.0,0.0,0.0,0.0,0.0,0.0,0.0,0.0,0.0,0.0,0.0,0.0,0.0,0.0,0.0,0.0,0.0,0.0,0.0,0.0,0.0,0.0,0.0,0.0,0.0,0.0,0.0,0.0,0.0,0.0,0.0,0.0,0.0,0.0,0.0,0.0,0.0,0.0,0.0,0.0,0.0,0.0,0.0,0.0,1.052,1.0189,0.9296,0.8405,0.7619,0.7228,0.65,0.5381,0.471,0.4094,0.3532,0.2917,0.2356,0.1796,0.1515,0.101,0.0,0.0393,0.0225,0.0,0.0,0.0,0.0,0.0,0.0,0.0,0.0,0.0,0.0,0.0,0.0,0.0,0.0,0.0,0.0,0.0,0.0,0.0,0.0,0.0,0.0,0.0,0.0,0.0,0.0,0.0,0.0,0.0,0.0,0.0,0.0,0.0,0.0,0.0,0.0,0.0,0.0,0.0,0.0,0.0,0.0,0.0,0.0,0.0,0.0,0.0,0.0,0.0,0.0,0.0,0.0,0.0,0.0,0.0,0.0,0.0,0.0,0.0,0.0,0.0,0.0,0.0,0.0,0.0,0.0,0.0,0.0,0.0,0.0,0.0,0.0,0.0,0.0,0.0,0.0,0.0,0.0,0.0,0.0,0.0,0.0,0.0,0.0,0.0,0.0,0.0,0.0,0.0,0.0,0.0,0.0,0.0,0.0,0.0,0.0,0.857,0.8346,0.7175,0.6335,0.5719,0.5103,0.4541,0.3812,0.2973,0.2524,0.2244,0.1852,0.1347,0.0842,0.0674,0.0,0.0,0.0,0.0,0.0,0.0,0.0,0.0,0.0,0.0,0.0,0.0,0.0,0.0,0.0,0.0,0.0,0.0,0.0,0.0,0.0,0.0,0.0,0.0,0.0,0.0,0.0,0.0,0.0,0.0,0.0,0.0,0.0,0.0,0.0,0.0,0.0,0.0,0.0,0.0,0.0,0.0,0.0,0.0,0.0,0.0,0.0,0.0,0.0,0.0,0.0,0.0,0.0,0.0,0.0,0.0,0.0,0.0,0.0,0.0,0.0,0.0,0.0,0.0,0.0,0.0,0.0,0.0,0.0,0.0,0.0,0.0,0.0,0.0,0.0,0.0,0.0,0.0,0.0,0.0,0.0,0.0,0.0,0.0,0.0,0.0,0.0,0.0,0.0,0.0,0.0,0.0,0.0,0.0,0.0,0.0,0.0,0.0,0.0,0.0,0.7063,0.6505,0.5325,0.4486,0.387,0.3309,0.2692,0.2188,0.1964,0.1572,0.1178,0.1066,0.0674,0.0,0.0,0.0,0.0,0.0,0.0,0.0,0.0,0.0,0.0,0.0,0.0,0.0,0.0,0.0,0.0,0.0,0.0,0.0,0.0,0.0,0.0,0.0,0.0,0.0,0.0,0.0,0.0,0.0,0.0,0.0,0.0,0.0,0.0,0.0,0.0,0.0,0.0,0.0,0.0,0.0,0.0,0.0,0.0,0.0,0.0,0.0,0.0,0.0,0.0,0.0,0.0,0.0,0.0,0.0,0.0,0.0,0.0,0.0,0.0,0.0,0.0,0.0,0.0,0.0,0.0,0.0,0.0,0.0,0.0,0.0,0.0,0.0,0.0,0.0,0.0,0.0,0.0,0.0,0.0,0.0,0.0,0.0,0.0,0.0,0.0,0.0,0.0,0.0,0.0,0.0,0.0,0.0,0.0,0.0,0.0,0.0,0.0,0.0,0.0,0.0,0.0,0.471,0.4654,0.3477,0.2804,0.2525,0.1964,0.1571,0.1235,0.0898,0.0618,0.0393,0.0393,0.0225,0.0,0.0,0.0,0.0,0.0,0.0,0.0,0.0,0.0,0.0,0.0,0.0,0.0,0.0,0.0,0.0,0.0,0.0,0.0,0.0,0.0,0.0,0.0,0.0,0.0,0.0,0.0,0.0,0.0,0.0,0.0,0.0,0.0,0.0,0.0,0.0,0.0,0.0,0.0,0.0,0.0,0.0,0.0,0.0,0.0,0.0,0.0,0.0,0.0,0.0,0.0,0.0,0.0,0.0,0.0,0.0,0.0,0.0,0.0,0.0,0.0,0.0,0.0,0.0,0.0,0.0,0.0,0.0,0.0,0.0,0.0,0.0,0.0,0.0,0.0,0.0,0.0,0.0,0.0,0.0,0.0,0.0,0.0,0.0,0.0,0.0,0.0,0.0,0.0,0.0,0.0,0.0,0.0,0.0,0.0,0.0,0.0,0.0,0.0,0.0,0.0,0.0,0.2524,0.2804,0.1964,0.1572,0.1516,0.0954,0.0674,0.0618,0.0225,0.0,0.0,0.0,0.0,0.0,0.0,0.0,0.0,0.0,0.0,0.0,0.0,0.0,0.0,0.0,0.0,0.0,0.0,0.0,0.0,0.0,0.0,0.0,0.0,0.0,0.0,0.0,0.0,0.0,0.0,0.0,0.0,0.0,0.0,0.0,0.0,0.0,0.0,0.0,0.0,0.0,0.0,0.0,0.0,0.0,0.0,0.0,0.0,0.0,0.0,0.0,0.0,0.0,0.0,0.0,0.0,0.0,0.0,0.0,0.0,0.0,0.0,0.0,0.0,0.0,0.0,0.0,0.0,0.0,0.0,0.0,0.0,0.0,0.0,0.0,0.0,0.0,0.0,0.0,0.0,0.0,0.0,0.0,0.0,0.0,0.0,0.0,0.0,0.0,0.0,0.0,0.0,0.0,0.0,0.0,0.0,0.0,0.0,0.0,0.0,0.0,0.0,0.0,0.0,0.0,0.0,0.1066,0.1066,0.101,0.0954,0.0954,0.0337,0.0,0.0,0.0,0.0,0.0,0.0,0.0,0.0,0.0,0.0,0.0,0.0,0.0,0.0,0.0,0.0,0.0,0.0,0.0,0.0,0.0,0.0,0.0,0.0,0.0,0.0,0.0,0.0,0.0,0.0,0.0,0.0,0.0,0.0,0.0,0.0,0.0,0.0,0.0,0.0,0.0,0.0,0.0,0.0,0.0,0.0,0.0,0.0,0.0,0.0,0.0,0.0,0.0,0.0,0.0,0.0,0.0,0.0,0.0,0.0,0.0,0.0,0.0,0.0,0.0,0.0,0.0,0.0,0.0,0.0,0.0,0.0,0.0,0.0,0.0,0.0,0.0,0.0,0.0,0.0,0.0,0.0,0.0,0.0,0.0,0.0,0.0,0.0,0.0,0.0,0.0,0.0,0.0,0.0,0.0,0.0,0.0,0.0,0.0,0.0,0.0,0.0,0.0,0.0,0.0,0.0,0.0,0.0,0.0,0.0337,0.0337,0.0337,0.0337,0.0337,0.0112,0.0,0.0,0.0,0.0,0.0,0.0,0.0,0.0,0.0,0.0,0.0,0.0,0.0,0.0,0.0,0.0,0.0,0.0,0.0,0.0,0.0,0.0,0.0,0.0,0.0,0.0,0.0,0.0,0.0,0.0,0.0,0.0,0.0,0.0,0.0,0.0,0.0,0.0,0.0,0.0,0.0,0.0,0.0,0.0,0.0,0.0,0.0,0.0,0.0,0.0,0.0,0.0,0.0,0.0,0.0,0.0,0.0,0.0,0.0,0.0,0.0,0.0,0.0,0.0,0.0,0.0,0.0,0.0,0.0,0.0,0.0,0.0,0.0,0.0,0.0,0.0,0.0,0.0,0.0,0.0,0.0,0.0,0.0,0.0,0.0,0.0,0.0,0.0,0.0,0.0,0.0,0.0,0.0,0.0,0.0,0.0,0.0,0.0,0.0,0.0,0.0,0.0,0.0,0.0,0.0,0.0,0.0,0.0,0.0,0.0,0.0,0.0,0.0,0.0,0.0,0.0,0.0,0.0,0.0,0.0,0.0,0.0,0.0,0.0,0.0,0.0,0.0,0.0,0.0,0.0,0.0,0.0,0.0,0.0,0.0,0.0,0.0,0.0,0.0,0.0,0.0,0.0,0.0,0.0,0.0,0.0,0.0,0.0,0.0,0.0,0.0,0.0,0.0,0.0,0.0,0.0,0.0,0.0,0.0,0.0,0.0,0.0,0.0,0.0,0.0,0.0,0.0,0.0,0.0,0.0,0.0,0.0,0.0,0.0,0.0,0.0,0.0,0.0,0.0,0.0,0.0,0.0,0.0,0.0,0.0,0.0,0.0,0.0,0.0,0.0,0.0,0.0,0.0,0.0,0.0,0.0,0.0,0.0,0.0,0.0,0.0,0.0,0.0,0.0,0.0,0.0,0.0,0.0,0.0,0.0,0.0,0.0,0.0,0.0,0.0,0.0,0.0,0.0,0.0,0.0,0.0,0.0,0.0,0.0,0.0,0.0,0.0,0.0,0.0,0.0,0.0,0.0,0.0,0.0,0.0,0.0,0.0,0.0,0.0,0.0,0.0,0.0,0.0,0.0,0.0,0.0,0.0,0.0,0.0,0.0,0.0,0.0,0.0,0.0,0.0,0.0,0.0,0.0,0.0,0.0,0.0,0.0,0.0,0.0,0.0,0.0,0.0,0.0,0.0,0.0,0.0,0.0,0.0,0.0,0.0,0.0,0.0,0.0,0.0,0.0,0.0,0.0,0.0,0.0,0.0,0.0,0.0,0.0,0.0,0.0,0.0,0.0,0.0,0.0,0.0,0.0,0.0,0.0,0.0,0.0,0.0,0.0,0.0,0.0,0.0,0.0,0.0,0.0,0.0,0.0,0.0,0.0,0.0,0.0,0.0,0.0,0.0,0.0,0.0,0.0,0.0,0.0,0.0,0.0,0.0,0.0,0.0,0.0,0.0,0.0,0.0,0.0,0.0,0.0,0.0,0.0,0.0,0.0,0.0,0.0,0.0,0.0,0.0,0.0,0.0,0.0,0.0,0.0,0.0,0.0,0.0,0.0,0.0,0.0,0.0,0.0,0.0,0.0,0.0,0.0,0.0,0.0,0.0,0.0,0.0,0.0,0.0,0.0,0.0,0.0,0.0,0.0,0.0,0.0,0.0,0.0,0.0,0.0,0.0,0.0,0.0,0.0,0.0,0.0,0.0,0.0,0.0,0.0,0.0,0.0,0.0,0.0,0.0,0.0,0.0,0.0,0.0,0.0,0.0,0.0,0.0,0.0,0.0,0.0,0.0,0.0,0.0,0.0,0.0,0.0,0.0,0.0,0.0,0.0,0.0,0.0,0.0,0.0,0.0,0.0,0.0,0.0,0.0,0.0,0.0,0.0,0.0,0.0,0.0,0.0,0.0,0.0,0.0,0.0,0.0,0.0,0.0,0.0,0.0,0.0,0.0,0.0,0.0,0.0,0.0,0.0,0.0,0.0,0.0,0.0,0.0,0.0,0.0,0.0,0.0,0.0,0.0,0.0,0.0,0.0,0.0,0.0,0.0,0.0,0.0,0.0,0.0,0.0,0.0,0.0,0.0,0.0,0.0,0.0,0.0,0.0,0.0,0.0,0.0,0.0,0.0,0.0,0.0,0.0,0.0,0.0,0.0,0.0,0.0,0.0,0.0,0.0,0.0,0.0,0.0,0.0,0.0,0.0,0.0,0.0,0.0,0.0,0.0,0.0,0.0,0.0,0.0,0.0,0.0,0.0,0.0,0.0,0.0,0.0,0.0,0.0,0.0,0.0,0.0,0.0,0.0,0.0,0.0,0.0,0.0,0.0,0.0,0.0,0.0,0.0,0.0,0.0,0.0,0.0,0.0,0.0,0.0,0.0,0.0,0.0,0.0,0.0,0.0,0.0,0.0,0.0,0.0,0.0,0.0,0.0,0.0,0.0,0.0,0.0,0.0,0.0,0.0,0.0,0.0,0.0,0.0,0.0,0.0,0.0,0.0,0.0,0.0,0.0,0.0,0.0,0.0,0.0,0.0,0.0,0.0,0.0,0.0,0.0,0.0,0.0,0.0,0.0,0.0,0.0,0.0,0.0,0.0,0.0,0.0,0.0,0.0,0.0,0.0,0.0,0.0,0.0,0.0,0.0,0.0,0.0,0.0,0.0,0.0,0.0,0.0,0.0,0.0,0.0,0.0,0.0,0.0,0.0,0.0,0.0,0.0,0.0,0.0,0.0,0.0,0.0,0.0,0.0,0.0,0.0,0.0,0.0,0.0,0.0,0.0,0.0,0.0,0.0,0.0,0.0,0.0,0.0,0.0,0.0,0.0,0.0,0.0,0.0,0.0,0.0,0.0,0.0,0.0,0.0,0.0,0.0,0.0,0.0,0.0,0.0,0.0,0.0,0.0,0.0,0.0,0.0,0.0,0.0,0.0,0.0,0.0,0.0,0.0,0.0,0.0,0.0,0.0,0.0,0.0,0.0,0.0,0.0,0.0,0.0,0.0,0.0,0.0,0.0,0.0,0.0,0.0,0.0,0.0,0.0,0.0,0.0,0.0,0.0,0.0,0.0,0.0,0.0,0.0,0.0,0.0,0.0,0.0,0.0,0.0,0.0,0.0,0.0,0.0,0.0,0.0,0.0,0.0,0.0,0.0,0.0,0.0,0.0,0.0,0.0,0.0,0.0,0.0,0.0,0.0,0.0,0.0,0.0,0.0,0.0,0.0,0.0,0.0,0.0,0.0,0.0,0.0,0.0,0.0,0.0,0.0,0.0,0.0,0.0,0.0,0.0,0.0,0.0,0.0,0.0,0.0,0.0,0.0,0.0,0.0,0.0,0.0,0.0,0.0,0.0,0.0,0.0,0.0,0.0,0.0,0.0,0.0,0.0,0.0,0.0,0.0,0.0,0.0,0.0,0.0,0.0,0.0,0.0,0.0,0.0,0.0,0.0,0.0,0.0,0.0,0.0,0.0,0.0,0.0,0.0,0.0,0.0,0.0,0.0,0.0,0.0,0.0,0.0,0.0,0.0,0.0,0.0,0.0,0.0,0.0,0.0,0.0,0.0,0.0,0.0,0.0,0.0,0.0,0.0,0.0,0.0,0.0,0.0,0.0,0.0,0.0,0.0,0.0,0.0,0.0,0.0,0.0,0.0,0.0,0.0,0.0,0.0,0.0,0.0,0.0,0.0,0.0,0.0,0.0,0.0,0.0,0.0,0.0,0.0,0.0,0.0,0.0,0.0,0.0,0.0,0.0,0.0,0.0,0.0,0.0,0.0,0.0,0.0,0.0,0.0,0.0,0.0,0.0,0.0,0.0,0.0,0.0,0.0,0.0,0.0,0.0,0.0,0.0,0.0,0.0,0.0,0.0,0.0,0.0,0.0,0.0,0.0,0.0,0.0,0.0,0.0,0.0,0.0,0.0,0.0,0.0,0.0,0.0,0.0,0.0,0.0,0.0,0.0,0.0,0.0,0.0,0.0,0.0,0.0,0.0,0.0,0.0,0.0,0.0,0.0,0.0,0.0,0.0,0.0,0.0,0.0,0.0,0.0,0.0,0.0,0.0,0.0,0.0,0.0,0.0,0.0,0.0,0.0,0.0,0.0,0.0,0.0,0.0,0.0,0.0,0.0,0.0,0.0,0.0,0.0,0.0,0.0,0.0,0.0,0.0,0.0,0.0,0.0,0.0,0.0,0.0,0.0,0.0,0.0,0.0,0.0,0.0,0.0,0.0,0.0,0.0,0.0,0.0,0.0,0.0,0.0,0.0,0.0,0.0,0.0,0.0,0.0,0.0,0.0,0.0,0.0,0.0,0.0,0.0,0.0,0.0,0.0,0.0,0.0,0.0,0.0,0.0,0.0,0.0,0.0,0.0,0.0,0.0,0.0,0.0,0.0,0.0,0.0,0.0,0.0,0.0,0.0,0.0,0.0,0.0,0.0,0.0,0.0,0.0,0.0,0.0,0.0,0.0,0.0,0.0,0.0,0.0,0.0,0.0,0.0,0.0,0.0,0.0,0.0,0.0,0.0,0.0,0.0,0.0,0.0,0.0,0.0,0.0,0.0,0.0,0.0,0.0,0.0,0.0,0.0,0.0,0.0,0.0,0.0,0.0,0.0,0.0,0.0,0.0,0.0,0.0,0.0,0.0,0.0,0.0,0.0,0.0,0.0,0.0,0.0,0.0,0.0,0.0,0.0,0.0,0.0,0.0,0.0,0.0,0.0,0.0,0.0,0.0,0.0,0.0,0.0,0.0,0.0,0.0,0.0,0.0,0.0,0.0,0.0,0.0,0.0,0.0,0.0,0.0,0.0,0.0,0.0,0.0,0.0,0.0,0.0,0.0,0.0,0.0,0.0,0.0,0.0,0.0,0.0,0.0,0.0,0.0,0.0,0.0,0.0,0.0,0.0,0.0,0.0,0.0,0.0,0.0,0.0,0.0,0.0,0.0,0.0,0.0,0.0,0.0,0.0,0.0,0.0,0.0,0.0,0.0,0.0,0.0,0.0,0.0,0.0,0.0,0.0,0.0,0.0,0.0,0.0,0.0,0.0,0.0,0.0,0.0,0.0,0.0,0.0,0.0,0.0,0.0,0.0,0.0,0.0,0.0,0.0,0.0,0.0,0.0,0.0,0.0,0.0,0.0,0.0,0.0,0.0,0.0,0.0,0.0,0.0,0.0,0.0,0.0,0.0,0.0,0.0,0.0,0.0,0.0,0.0,0.0,0.0,0.0,0.0,0.0,0.0,0.0,0.0,0.0,0.0,0.0,0.0,0.0,0.0,0.0,0.0,0.0,0.0,0.0,0.0,0.0,0.0,0.0,0.0,0.0,0.0,0.0,0.0,0.0,0.0,0.0,0.0,0.0,0.0,0.0,0.0,0.0,0.0,0.0,0.0,0.0,0.0,0.0,0.0,0.0,0.0,0.0,0.0,0.0,0.0,0.0,0.0,0.0,0.0,0.0,0.0,0.0,0.0,0.0,0.0,0.0,0.0,0.0,0.0,0.0,0.0,0.0,0.0,0.0,0.0,0.0,0.0,0.0,0.0,0.0,0.0,0.0,0.0,0.0,0.0,0.0,0.0,0.0,0.0,0.0,0.0,0.0,0.0,0.0,0.0,0.0,0.0,0.0,0.0,0.0,0.0,0.0,0.0,0.0,0.0,0.0,0.0,0.0,0.0,0.0,0.0,0.0,0.0,0.0,0.0,0.0,0.0,0.0,0.0,0.0,0.0,0.0,0.0,0.0,0.0,0.0,0.0,0.0,-0.0056,-0.0112,0.0,0.0,0.0,0.0,0.0,0.0,0.0,0.0,0.0,0.0,0.0,0.0,0.0,0.0,0.0,0.0,-0.0225,0.0,0.0,0.0,0.0,0.0,0.0,0.0,0.0,0.0,0.0,0.0,0.0,0.0,0.0,0.0,0.0,0.0,0.0,0.0,0.0,0.0,0.0,0.0,0.0,0.0,0.0,0.0,0.0,0.0,0.0,0.0,0.0,0.0,0.0,0.0,0.0,0.0,0.0,0.0,0.0,0.0,0.0,0.0,0.0,0.0,0.0,0.0,0.0,0.0,0.0,0.0,0.0,0.0,0.0,0.0,0.0,0.0,0.0,0.0,0.0,0.0,0.0,0.0,0.0,0.0,0.0,0.0,0.0,0.0,0.0,0.0,0.0,0.0,0.0,0.0,0.0,0.0,0.0,0.0,0.0,0.0,0.0,0.0,0.0,0.0,0.0,0.0,-0.0337,-0.073,-0.0842,-0.1178,-0.1347,-0.1122,0.0,0.0,0.0,-0.0449,-0.0618,0.0,0.0,0.0,0.0,-0.1459,-0.1403,-0.146,-0.146,-0.146,-0.1459,-0.1459,-0.146,-0.1459,-0.1459,-0.1459,-0.1459,-0.1459,0.0,0.0,0.0,0.0,0.0,0.0,0.0,0.0,0.0,0.0,0.0,0.0,0.0,0.0,0.0,0.0,0.0,0.0,0.0,0.0,0.0,0.0,0.0,0.0,0.0,0.0,0.0,0.0,0.0,0.0,0.0,0.0,0.0,0.0,0.0,0.0,0.0,0.0,0.0,0.0,0.0,0.0,0.0,0.0,0.0,0.0,0.0,0.0,0.0,0.0,0.0,0.0]},{"header":{"parameterUnit":"m.s-1","parameterCategory":1,"la1":31.0,"la2":29.5877,"lo1":-88.7671,"lo2":-86.6584,"dx":0.0162,"dy":0.0185,"nx":115,"ny":88,"refTime":"2023-01-18T06:00:00:Z","depth":0,"parameterNumber":3,"parameterNumberName":"V-component_of_WINDS"},"data":[0.0,0.0,0.0,0.0,0.0,0.0,0.0,0.0,0.0,0.0,0.0,0.0,0.0,0.0,0.0,0.0,0.0,0.0,0.0,0.0,0.0,0.0,0.0,0.0,0.0,0.0,0.0,0.0,0.0,0.0,0.0,0.0,0.0,0.0,0.0,0.0,0.0,0.0,0.0,0.0,0.0,0.0,0.0,0.0,0.0,0.0,0.0,0.0,0.0,0.0,0.0,0.0,0.0,0.0,0.0,0.0,0.0,0.0,0.0,0.0,0.0,0.0,0.0,0.0,0.0,0.0,0.0,0.0,0.0,0.0,0.0,0.0,0.0,0.0,0.0,0.0,0.0,0.0,0.0,0.0,0.0,0.0,0.0,0.0,0.0,0.0,0.0,0.0,0.0,0.0,0.0,0.0,0.0,0.0,0.0,0.0,0.0,0.0,0.0,0.0,0.0,0.0,0.0,0.0,0.0,0.0,0.0,0.0,0.0,0.0,0.0,0.0,0.0,0.0,0.0,0.0,0.0,0.0,0.0,0.0,0.0,0.0,0.0,0.0,0.0,0.0,0.0,0.0,0.0,0.0,0.0,0.0,0.0,0.0,0.0,0.0,0.0,0.0,0.0,0.0,0.0,0.0,0.0,0.0,0.0,0.0,0.0,0.0,0.0,0.0,0.0,0.0,0.0,0.0,0.0,0.0,0.0,0.0,0.0,0.0,0.0,0.0,0.0,0.0,0.0,0.0,0.0,0.0,0.0,0.0,0.0,0.0,0.0,0.0,0.0,0.0,0.0,0.0,0.0,0.0,0.0,0.0,0.0,0.0,0.0,0.0,0.0,0.0,0.0,0.0,0.0,0.0,0.0,0.0,0.0,0.0,0.0,0.0,0.0,0.0,0.0,0.0,0.0,0.0,0.0,0.0,0.0,0.0,0.0,0.0,0.0,0.0,0.0,0.0,0.0,0.0,0.0,0.0,0.0,0.0,0.0,0.0,0.0,0.0,0.0,0.0,0.0,0.0,0.0,0.0,0.0,0.0,0.0,0.0,0.0,0.0,0.0,0.0,0.0,0.0,0.0,0.0,0.0,0.0,0.0,0.0,0.0,0.0,0.0,0.0,0.0,0.0,0.0,0.0,0.0,0.0,0.0,0.0,0.0,0.0,0.0,0.0,0.0,0.0,0.0,0.0,0.0,0.0,0.0,0.0,0.0,0.0,0.0,0.0,0.0,0.0,0.0,0.0,0.0,0.0,0.0,0.0,0.0,0.0,0.0,0.0,0.0,0.0,0.0,0.0,0.0,0.0,0.0,0.0,0.0,0.0,0.0,0.0,0.0,0.0,0.0,0.0,0.0,0.0,0.0,0.0,0.0,0.0,0.0,0.0,0.0,0.0,0.0,0.0,0.0,0.0,0.0,0.0,0.0,0.0,0.0,0.0,0.0,0.0,0.0,0.0,0.0,0.0,0.0,0.0,0.0,0.0,0.0,0.0,0.0,0.0,0.0,0.0,0.0,0.0,0.0,0.0,0.0,0.0,0.0,0.0,0.0,0.0,0.0,0.0,0.0,0.0,0.0,0.0,0.0,0.0,0.0,0.0,0.0,0.0,0.0,0.0,0.0,0.0,0.0,0.0,0.0,0.0,0.0,0.0,0.0,0.0,0.0,0.0,0.0,0.0,0.0,0.0,0.0,0.0,0.0,0.0,0.0,0.0,0.0,0.0,0.0,0.0,0.0,0.0,0.0,0.0,0.0,0.0,0.0,0.0,0.0,0.0,0.0,0.0,0.0,0.0,0.0,0.0,0.0,0.0,0.0,0.0,0.0,0.0,0.0,0.0,0.0,0.0,0.0,0.0,0.0,0.0,0.0,0.0,0.0,0.0,0.0,0.0,0.0,0.0,0.0,0.0,0.0,0.0,0.0,0.0,0.0,0.0,0.0,0.0,0.0,0.0,0.0,0.0,0.0,0.0,0.0,0.0,0.0,0.0,0.0,0.0,0.0,0.0,0.0,0.0,0.0,0.0,0.0,0.0,0.0,0.0,0.0,0.0,0.0,0.0,0.0,0.0,0.0,0.0,0.0,0.0,0.0,0.0,0.0,0.0,0.0,0.0,0.0,0.0,0.0,0.0,0.0,0.0,0.0,0.0,0.0,0.0,0.0,0.0,0.0,0.0,0.0,0.0,0.0,0.0,0.0,0.0,0.0,0.0,0.0,0.0,0.0,0.0,0.0,0.0,0.0,0.0,0.0,0.0,0.0,0.0,0.0,0.0,0.0,0.0,0.0,0.0,0.0,0.0,0.0,0.0,0.0,0.0,0.0,0.0,0.0,0.0,0.0,0.0,0.0,0.0,0.0,0.0,0.0,0.0,0.0,0.0,0.0,0.0,0.0,0.0,0.0,0.0,0.0,0.0,0.0,0.0,0.0,0.0,0.0,0.0,0.0,0.0,0.0,0.0,0.0,0.0,0.0,0.0,0.0,0.0,0.0,0.0,0.0,0.0,0.0,0.0,0.0,0.0,0.0,0.0,0.0,0.0,0.0,0.0,0.0,0.0,0.0,0.0,0.0,0.0,0.0,0.0,0.0,0.0,0.0,0.0,0.0,0.0,0.0,0.0,0.0,0.0,0.0,0.0,0.0,0.0,0.0,0.0,0.0,0.0,0.0,0.0,0.0,0.0,0.0,0.0,0.0,0.0,0.0,0.0,0.0,0.0,0.0,0.0,0.0,0.0,0.0,0.0,0.0,0.0,0.0,0.0,0.0,0.0,0.0,0.0,0.0,0.0,0.0,0.0,0.0,0.0,0.0,0.0,0.0,0.0,0.0,0.0,0.0,0.0,0.0,0.0,0.0,0.0,0.0,0.0,0.0,0.0,0.0,0.0,0.0,0.0,0.0,0.0,0.0,0.0,0.0,0.0,0.0,0.0,0.0,0.0,0.0,0.0,0.0,0.0,0.0,0.0,0.0,0.0,0.0,0.0,0.0,0.0,0.0,0.0,0.0,0.0,0.0,0.0,0.0,0.0,0.0,0.0,0.0,0.0,0.0,0.0,0.0,0.0,0.0,0.0,0.0,0.0,0.0,0.0,0.0,0.0,0.0,0.0,0.0,0.0,0.0,0.0,0.0,0.0,0.0,0.0,0.0,0.0,0.0,0.0,0.0,0.0,0.0,0.0,0.0,0.0,0.0,0.0,0.0,0.0,0.0,0.0,0.0,0.0,0.0,0.0,0.0,0.0,0.0,0.0,0.0,0.0,0.0,0.0,0.0,0.0,0.0,0.0,0.0,0.0,0.0,0.0,0.0,0.0,0.0,0.0,0.0,0.0,0.0,0.0,0.0,0.0,0.0,0.0,0.0,0.0,0.0,0.0,0.0,0.0,0.0,0.0,0.0,0.0,0.0,0.0,0.0,0.0,0.0,0.0,0.0,0.0,0.0,0.0,0.0,0.0,0.0,0.0,0.0,0.0,0.0,0.0,0.0,0.0,0.0,0.0,0.0,0.0,0.0,0.0,0.0,0.0,0.0,0.0,0.0,0.0,0.0,0.0,0.0,0.0,0.0,0.0,0.0,0.0,0.0,0.0,0.0,0.0,0.0,0.0,0.0,0.0,0.0,0.0,0.0,0.0,0.0,0.0,0.0,0.0,0.0,0.0,0.0,0.0,0.0,0.0,0.0,0.0,0.0,0.0,0.0,0.0,0.0,0.0,0.0,0.0,0.0,0.0,0.0,0.0,0.0,0.0,0.0,0.0,0.0,0.0,0.0,0.0,0.0,0.0,0.0,0.0,0.0,0.0,0.0,0.0,0.0,0.0,0.0,0.0,0.0,0.0,0.0,0.0,0.0,0.0,0.0,0.0,0.0,0.0,0.0,0.0,0.0,0.0,0.0,0.0,0.0,0.0,0.0,0.0,0.0,0.0,0.0,0.0,0.0,0.0,0.0,0.0,0.0,0.0,0.0,0.0,0.0,0.0,0.0,0.0,0.0,0.0,0.0,0.0,0.0,0.0,0.0,0.0,0.0,0.0,0.0,0.0,0.0,0.0,0.0,0.0,0.0,0.0,0.0,0.0,0.0,0.0,0.0,0.0,0.0,0.0,0.0,0.0,0.0,0.0,0.0,0.0,0.0,0.0,0.0,0.0,0.0,0.0,0.0,0.0,0.0,0.0,0.0,0.0,0.0,0.0,0.0,0.0,0.0,0.0,0.0,0.0,0.0,0.0,0.0,0.0,0.0,0.0,0.0,0.0,0.0,0.0,0.0,0.0,0.0,0.0,0.0,0.0,0.0,0.0,4.8504,0.0,0.0,0.0,0.0,0.0,0.0,0.0,0.0,0.0,0.0,0.0,0.0,0.0,0.0,0.0,0.0,0.0,0.0,0.0,0.0,0.0,0.0,0.0,0.0,0.0,0.0,0.0,0.0,0.0,0.0,0.0,0.0,0.0,0.0,0.0,0.0,0.0,0.0,0.0,0.0,0.0,0.0,0.0,0.0,0.0,0.0,0.0,0.0,0.0,0.0,0.0,0.0,0.0,0.0,0.0,0.0,0.0,0.0,0.0,0.0,0.0,0.0,0.0,0.0,0.0,0.0,0.0,0.0,0.0,0.0,0.0,0.0,0.0,0.0,0.0,0.0,0.0,0.0,0.0,0.0,0.0,0.0,0.0,0.0,0.0,0.0,0.0,0.0,0.0,0.0,0.0,0.0,0.0,0.0,0.0,0.0,0.0,0.0,0.0,0.0,0.0,0.0,0.0,0.0,0.0,0.0,0.0,0.0,0.0,0.0,4.8296,4.8296,4.8296,4.8354,4.8485,0.0,0.0,0.0,0.0,0.0,0.0,0.0,0.0,0.0,0.0,0.0,0.0,0.0,0.0,0.0,0.0,0.0,0.0,0.0,0.0,0.0,0.0,0.0,0.0,0.0,0.0,0.0,0.0,0.0,0.0,0.0,0.0,0.0,0.0,0.0,0.0,0.0,0.0,0.0,0.0,0.0,0.0,0.0,0.0,0.0,0.0,0.0,0.0,0.0,0.0,0.0,0.0,0.0,0.0,0.0,0.0,0.0,0.0,0.0,0.0,0.0,0.0,0.0,0.0,0.0,0.0,0.0,0.0,0.0,0.0,0.0,0.0,0.0,0.0,0.0,0.0,0.0,0.0,0.0,0.0,0.0,0.0,0.0,0.0,0.0,0.0,0.0,0.0,0.0,0.0,0.0,0.0,0.0,0.0,0.0,0.0,0.0,0.0,0.0,0.0,0.0,0.0,0.0,0.0,0.0,0.0,0.0,0.0,0.0,0.0,0.0,0.0,4.8296,4.8344,4.8485,0.0,0.0,0.0,0.0,0.0,0.0,0.0,0.0,0.0,0.0,0.0,0.0,0.0,0.0,0.0,0.0,0.0,0.0,0.0,0.0,0.0,0.0,0.0,0.0,0.0,0.0,0.0,0.0,0.0,0.0,0.0,0.0,0.0,0.0,0.0,0.0,0.0,0.0,0.0,0.0,0.0,0.0,0.0,0.0,0.0,0.0,0.0,0.0,0.0,0.0,0.0,0.0,0.0,0.0,0.0,0.0,0.0,0.0,0.0,0.0,0.0,0.0,0.0,0.0,0.0,0.0,0.0,0.0,0.0,0.0,0.0,0.0,0.0,0.0,0.0,0.0,0.0,0.0,0.0,0.0,0.0,0.0,0.0,0.0,0.0,0.0,0.0,0.0,0.0,0.0,0.0,0.0,0.0,0.0,0.0,0.0,0.0,0.0,0.0,0.0,0.0,0.0,0.0,0.0,0.0,0.0,0.0,0.0,0.0,0.0,4.8296,4.8296,4.8296,0.0,4.8476,0.0,0.0,0.0,0.0,0.0,0.0,0.0,0.0,0.0,0.0,0.0,0.0,0.0,0.0,0.0,0.0,0.0,0.0,0.0,0.0,0.0,0.0,0.0,0.0,0.0,0.0,0.0,0.0,0.0,0.0,0.0,0.0,0.0,0.0,0.0,0.0,0.0,0.0,0.0,0.0,0.0,0.0,0.0,0.0,0.0,0.0,0.0,0.0,0.0,0.0,0.0,0.0,0.0,0.0,0.0,0.0,0.0,0.0,0.0,0.0,0.0,0.0,0.0,0.0,0.0,0.0,0.0,0.0,0.0,0.0,0.0,0.0,0.0,0.0,0.0,0.0,0.0,0.0,0.0,0.0,0.0,0.0,0.0,0.0,0.0,0.0,0.0,0.0,0.0,0.0,0.0,0.0,0.0,0.0,0.0,0.0,0.0,0.0,0.0,0.0,0.0,0.0,0.0,0.0,0.0,0.0,0.0,0.0,0.0,0.0,4.8296,4.8296,4.8296,4.8316,0.0,0.0,0.0,0.0,0.0,0.0,0.0,0.0,0.0,0.0,0.0,0.0,0.0,0.0,0.0,0.0,0.0,0.0,0.0,0.0,0.0,0.0,0.0,0.0,0.0,0.0,0.0,0.0,0.0,0.0,0.0,0.0,0.0,0.0,0.0,0.0,0.0,0.0,0.0,0.0,0.0,0.0,0.0,0.0,0.0,0.0,0.0,0.0,0.0,0.0,0.0,0.0,0.0,0.0,0.0,0.0,0.0,0.0,0.0,0.0,0.0,0.0,0.0,0.0,0.0,0.0,0.0,0.0,0.0,0.0,0.0,0.0,0.0,0.0,0.0,0.0,0.0,0.0,0.0,0.0,0.0,0.0,0.0,0.0,0.0,0.0,0.0,0.0,0.0,0.0,0.0,0.0,0.0,0.0,0.0,0.0,0.0,0.0,0.0,0.0,0.0,0.0,0.0,0.0,0.0,0.0,0.0,0.0,0.0,0.0,4.8296,4.8296,4.8296,4.8296,4.8296,4.8296,0.0,0.0,0.0,0.0,0.0,0.0,0.0,0.0,0.0,0.0,0.0,0.0,0.0,0.0,0.0,0.0,0.0,0.0,0.0,0.0,0.0,0.0,0.0,0.0,0.0,0.0,0.0,0.0,0.0,0.0,0.0,0.0,0.0,0.0,0.0,0.0,0.0,0.0,0.0,0.0,0.0,0.0,0.0,0.0,0.0,0.0,0.0,0.0,0.0,0.0,0.0,0.0,0.0,0.0,0.0,0.0,0.0,0.0,0.0,0.0,0.0,0.0,0.0,0.0,0.0,0.0,0.0,0.0,0.0,0.0,0.0,0.0,0.0,0.0,0.0,0.0,0.0,0.0,0.0,0.0,0.0,0.0,0.0,0.0,0.0,0.0,0.0,0.0,0.0,0.0,0.0,0.0,0.0,0.0,0.0,0.0,0.0,0.0,0.0,0.0,0.0,0.0,0.0,0.0,0.0,0.0,0.0,0.0,0.0,4.8333,4.8333,4.837,4.8333,4.8333,0.0,0.0,0.0,0.0,0.0,0.0,0.0,0.0,0.0,0.0,0.0,0.0,0.0,0.0,0.0,0.0,0.0,0.0,0.0,0.0,0.0,0.0,0.0,0.0,0.0,0.0,0.0,0.0,0.0,0.0,0.0,0.0,0.0,0.0,0.0,0.0,0.0,0.0,0.0,0.0,0.0,0.0,0.0,0.0,0.0,0.0,0.0,0.0,0.0,0.0,0.0,0.0,0.0,0.0,0.0,0.0,0.0,0.0,0.0,0.0,0.0,0.0,0.0,0.0,0.0,0.0,0.0,0.0,0.0,0.0,0.0,0.0,0.0,0.0,0.0,0.0,0.0,0.0,0.0,0.0,0.0,0.0,0.0,0.0,0.0,0.0,0.0,0.0,0.0,0.0,0.0,0.0,0.0,0.0,0.0,0.0,0.0,0.0,0.0,0.0,0.0,0.0,0.0,0.0,0.0,0.0,0.0,0.0,0.0,4.9921,4.9921,4.9911,4.9921,4.9884,4.9911,0.0,0.0,0.0,0.0,0.0,0.0,0.0,0.0,0.0,0.0,0.0,0.0,0.0,0.0,0.0,0.0,0.0,0.0,0.0,0.0,0.0,0.0,0.0,0.0,0.0,0.0,0.0,0.0,0.0,0.0,0.0,0.0,0.0,0.0,0.0,0.0,0.0,0.0,0.0,0.0,0.0,0.0,0.0,0.0,0.0,0.0,0.0,0.0,0.0,0.0,0.0,0.0,0.0,0.0,0.0,0.0,0.0,0.0,0.0,0.0,0.0,0.0,0.0,0.0,0.0,0.0,0.0,0.0,0.0,0.0,0.0,0.0,0.0,0.0,0.0,0.0,0.0,0.0,0.0,0.0,0.0,0.0,0.0,0.0,0.0,0.0,0.0,0.0,0.0,0.0,0.0,0.0,0.0,0.0,0.0,0.0,0.0,0.0,0.0,0.0,0.0,0.0,0.0,0.0,0.0,0.0,0.0,0.0,0.0,5.0812,0.0,5.0802,5.0802,5.0802,5.0802,0.0,0.0,0.0,0.0,0.0,0.0,0.0,0.0,0.0,0.0,0.0,0.0,0.0,0.0,0.0,0.0,0.0,0.0,0.0,0.0,0.0,0.0,0.0,0.0,0.0,0.0,0.0,0.0,0.0,0.0,0.0,0.0,0.0,0.0,0.0,0.0,0.0,0.0,0.0,0.0,0.0,0.0,0.0,0.0,0.0,0.0,0.0,0.0,0.0,0.0,0.0,0.0,0.0,0.0,0.0,0.0,0.0,0.0,0.0,0.0,0.0,0.0,0.0,0.0,0.0,0.0,0.0,0.0,0.0,0.0,0.0,0.0,0.0,0.0,0.0,0.0,0.0,0.0,0.0,0.0,0.0,0.0,0.0,0.0,0.0,0.0,0.0,0.0,0.0,0.0,0.0,0.0,0.0,0.0,0.0,0.0,0.0,0.0,0.0,0.0,0.0,0.0,0.0,0.0,0.0,0.0,0.0,0.0,5.0949,5.0839,5.0875,5.0912,5.0839,5.0912,5.0875,0.0,0.0,0.0,0.0,0.0,0.0,0.0,0.0,0.0,0.0,0.0,0.0,0.0,0.0,0.0,0.0,0.0,0.0,0.0,0.0,0.0,0.0,0.0,0.0,0.0,0.0,0.0,0.0,0.0,0.0,0.0,0.0,0.0,0.0,0.0,0.0,0.0,0.0,0.0,0.0,0.0,0.0,0.0,0.0,0.0,0.0,0.0,0.0,0.0,0.0,0.0,0.0,0.0,0.0,0.0,0.0,0.0,0.0,0.0,0.0,0.0,0.0,0.0,0.0,0.0,0.0,0.0,0.0,0.0,0.0,0.0,0.0,0.0,0.0,0.0,0.0,0.0,0.0,0.0,0.0,0.0,0.0,0.0,0.0,0.0,0.0,0.0,0.0,0.0,0.0,0.0,0.0,0.0,0.0,0.0,0.0,0.0,0.0,0.0,0.0,0.0,0.0,0.0,0.0,0.0,0.0,0.0,0.0,0.0,5.2491,5.2443,5.2443,5.2443,5.2443,5.2443,0.0,0.0,0.0,0.0,0.0,0.0,0.0,0.0,0.0,0.0,0.0,0.0,0.0,0.0,0.0,0.0,0.0,0.0,0.0,0.0,0.0,0.0,0.0,0.0,0.0,0.0,0.0,0.0,0.0,0.0,0.0,0.0,0.0,0.0,0.0,0.0,0.0,0.0,0.0,0.0,0.0,0.0,0.0,0.0,0.0,0.0,0.0,0.0,0.0,0.0,0.0,0.0,0.0,0.0,0.0,0.0,0.0,0.0,0.0,0.0,0.0,0.0,0.0,0.0,0.0,0.0,0.0,0.0,0.0,0.0,0.0,0.0,0.0,0.0,0.0,0.0,0.0,0.0,0.0,0.0,0.0,0.0,0.0,0.0,0.0,0.0,0.0,0.0,0.0,0.0,0.0,0.0,0.0,0.0,0.0,0.0,0.0,0.0,0.0,0.0,0.0,0.0,0.0,0.0,0.0,0.0,0.0,0.0,0.0,5.3702,5.3948,5.4106,5.4095,5.3801,5.3654,5.3618,0.0,0.0,0.0,0.0,0.0,0.0,0.0,0.0,0.0,0.0,0.0,0.0,0.0,0.0,0.0,0.0,0.0,0.0,0.0,0.0,0.0,0.0,0.0,0.0,0.0,0.0,0.0,0.0,0.0,0.0,0.0,0.0,0.0,0.0,0.0,0.0,0.0,0.0,0.0,0.0,0.0,0.0,0.0,0.0,0.0,0.0,0.0,0.0,0.0,0.0,0.0,0.0,0.0,0.0,0.0,0.0,0.0,0.0,0.0,0.0,0.0,0.0,0.0,0.0,0.0,0.0,0.0,0.0,0.0,0.0,0.0,0.0,0.0,0.0,0.0,0.0,0.0,0.0,0.0,0.0,0.0,0.0,0.0,0.0,0.0,0.0,0.0,0.0,0.0,0.0,0.0,0.0,0.0,0.0,0.0,0.0,0.0,0.0,0.0,0.0,0.0,0.0,0.0,0.0,0.0,0.0,0.0,0.0,5.452,5.5328,5.5658,5.5548,5.4803,5.4399,0.0,0.0,0.0,0.0,0.0,0.0,0.0,0.0,0.0,0.0,0.0,0.0,0.0,0.0,0.0,0.0,0.0,0.0,0.0,0.0,0.0,0.0,0.0,0.0,0.0,0.0,0.0,0.0,0.0,0.0,0.0,0.0,0.0,0.0,0.0,0.0,0.0,0.0,0.0,0.0,0.0,0.0,0.0,0.0,0.0,0.0,0.0,0.0,0.0,0.0,0.0,0.0,0.0,0.0,0.0,0.0,0.0,0.0,0.0,0.0,0.0,0.0,0.0,0.0,0.0,0.0,0.0,0.0,0.0,0.0,0.0,0.0,0.0,0.0,0.0,0.0,0.0,0.0,0.0,0.0,0.0,0.0,0.0,0.0,0.0,0.0,0.0,0.0,0.0,0.0,0.0,0.0,0.0,0.0,0.0,0.0,0.0,0.0,0.0,0.0,0.0,0.0,0.0,0.0,0.0,0.0,0.0,0.0,0.0,5.6172,5.6932,5.6796,5.5658,5.4803,5.4399,0.0,0.0,0.0,0.0,0.0,0.0,0.0,0.0,0.0,0.0,0.0,0.0,0.0,0.0,0.0,0.0,0.0,0.0,0.0,0.0,0.0,0.0,0.0,0.0,0.0,0.0,0.0,0.0,0.0,0.0,0.0,0.0,0.0,0.0,0.0,0.0,0.0,0.0,0.0,0.0,0.0,0.0,0.0,0.0,0.0,0.0,0.0,0.0,0.0,0.0,0.0,0.0,0.0,0.0,0.0,0.0,0.0,0.0,0.0,0.0,0.0,0.0,0.0,0.0,0.0,0.0,0.0,0.0,0.0,0.0,0.0,0.0,0.0,0.0,0.0,0.0,0.0,0.0,0.0,0.0,0.0,0.0,0.0,0.0,0.0,0.0,0.0,0.0,0.0,0.0,0.0,0.0,0.0,0.0,0.0,0.0,0.0,0.0,0.0,0.0,0.0,0.0,0.0,0.0,0.0,0.0,0.0,0.0,5.6522,5.6785,5.7593,5.7556,5.665,5.5831,5.5244,0.0,0.0,0.0,0.0,0.0,0.0,0.0,0.0,0.0,0.0,0.0,0.0,0.0,0.0,0.0,0.0,0.0,0.0,0.0,0.0,0.0,0.0,0.0,0.0,0.0,0.0,0.0,0.0,0.0,0.0,0.0,0.0,0.0,0.0,0.0,0.0,0.0,0.0,0.0,0.0,0.0,0.0,0.0,0.0,0.0,0.0,0.0,0.0,0.0,0.0,0.0,0.0,0.0,0.0,0.0,0.0,0.0,0.0,0.0,0.0,0.0,0.0,0.0,0.0,0.0,0.0,0.0,0.0,0.0,0.0,0.0,0.0,0.0,0.0,0.0,0.0,0.0,0.0,0.0,0.0,0.0,0.0,0.0,0.0,0.0,0.0,0.0,0.0,0.0,0.0,0.0,0.0,0.0,0.0,0.0,0.0,0.0,0.0,0.0,0.0,0.0,0.0,0.0,0.0,0.0,0.0,0.0,0.0,5.6971,5.6921,5.7629,5.7997,5.796,5.7214,5.6418,0.0,0.0,0.0,0.0,0.0,0.0,0.0,0.0,0.0,0.0,0.0,0.0,0.0,0.0,0.0,0.0,0.0,0.0,0.0,0.0,0.0,0.0,0.0,0.0,0.0,0.0,0.0,0.0,0.0,0.0,0.0,0.0,0.0,0.0,0.0,0.0,0.0,0.0,0.0,0.0,0.0,0.0,0.0,0.0,0.0,0.0,0.0,0.0,0.0,0.0,0.0,0.0,0.0,0.0,0.0,0.0,0.0,0.0,0.0,0.0,0.0,0.0,0.0,0.0,0.0,0.0,0.0,0.0,0.0,0.0,0.0,0.0,0.0,0.0,0.0,0.0,0.0,0.0,0.0,0.0,0.0,0.0,0.0,0.0,0.0,0.0,0.0,0.0,0.0,0.0,0.0,0.0,0.0,0.0,0.0,0.0,0.0,0.0,0.0,0.0,0.0,0.0,0.0,0.0,0.0,0.0,0.0,0.0,5.7239,5.774,5.7923,5.7997,5.7997,5.7226,5.6418,0.0,0.0,0.0,0.0,0.0,0.0,0.0,0.0,0.0,0.0,0.0,0.0,0.0,0.0,0.0,0.0,0.0,0.0,0.0,0.0,0.0,0.0,0.0,0.0,0.0,0.0,0.0,0.0,0.0,0.0,0.0,0.0,0.0,0.0,0.0,0.0,0.0,0.0,0.0,0.0,0.0,0.0,0.0,0.0,0.0,0.0,0.0,0.0,5.341,0.0,0.0,0.0,0.0,0.0,0.0,0.0,0.0,0.0,0.0,0.0,0.0,0.0,0.0,0.0,0.0,0.0,0.0,0.0,0.0,0.0,0.0,0.0,0.0,0.0,0.0,0.0,0.0,0.0,0.0,0.0,0.0,0.0,0.0,0.0,0.0,0.0,0.0,0.0,0.0,0.0,0.0,0.0,0.0,0.0,0.0,0.0,0.0,0.0,0.0,0.0,0.0,0.0,0.0,0.0,0.0,0.0,0.0,0.0,5.8201,5.8535,5.8584,5.84,5.7997,5.7593,5.7005,0.0,0.0,0.0,0.0,0.0,0.0,0.0,0.0,0.0,0.0,0.0,0.0,0.0,0.0,0.0,0.0,0.0,0.0,0.0,0.0,0.0,0.0,0.0,0.0,0.0,0.0,0.0,0.0,0.0,0.0,0.0,0.0,0.0,0.0,0.0,0.0,0.0,0.0,0.0,0.0,0.0,0.0,0.0,0.0,0.0,0.0,0.0,0.0,0.0,0.0,0.0,0.0,0.0,0.0,0.0,0.0,0.0,0.0,0.0,0.0,0.0,0.0,0.0,0.0,0.0,0.0,0.0,0.0,0.0,0.0,0.0,0.0,0.0,0.0,0.0,0.0,0.0,0.0,0.0,0.0,0.0,0.0,0.0,0.0,0.0,0.0,0.0,0.0,0.0,0.0,0.0,0.0,0.0,0.0,0.0,0.0,0.0,0.0,0.0,0.0,0.0,0.0,0.0,0.0,0.0,0.0,0.0,5.9034,5.938,5.938,5.9391,5.9084,5.8398,5.8288,5.7921,5.7246,0.0,0.0,0.0,0.0,0.0,0.0,0.0,0.0,0.0,0.0,0.0,0.0,0.0,0.0,0.0,0.0,0.0,0.0,0.0,0.0,0.0,0.0,0.0,0.0,0.0,0.0,0.0,0.0,0.0,0.0,0.0,0.0,0.0,0.0,0.0,0.0,0.0,0.0,5.3746,5.4438,0.0,0.0,0.0,0.0,0.0,0.0,0.0,0.0,5.6286,0.0,0.0,0.0,0.0,0.0,0.0,0.0,0.0,0.0,0.0,0.0,0.0,0.0,0.0,0.0,0.0,0.0,0.0,0.0,0.0,0.0,0.0,0.0,0.0,0.0,0.0,0.0,0.0,0.0,0.0,0.0,0.0,0.0,0.0,0.0,0.0,0.0,0.0,0.0,0.0,0.0,0.0,0.0,0.0,0.0,0.0,0.0,0.0,0.0,0.0,0.0,0.0,0.0,0.0,0.0,0.0,5.9036,5.9795,6.0187,6.0199,6.0306,6.0303,6.0155,5.9518,5.9159,5.9065,0.0,0.0,0.0,0.0,0.0,0.0,0.0,0.0,0.0,0.0,0.0,0.0,0.0,0.0,0.0,0.0,0.0,0.0,0.0,0.0,0.0,0.0,0.0,0.0,0.0,0.0,0.0,0.0,0.0,0.0,0.0,0.0,0.0,0.0,0.0,0.0,0.0,0.0,0.0,5.556,5.6137,0.0,0.0,0.0,0.0,0.0,0.0,0.0,0.0,5.6285,0.0,0.0,0.0,0.0,0.0,0.0,0.0,0.0,0.0,0.0,0.0,0.0,0.0,0.0,0.0,0.0,0.0,0.0,0.0,0.0,0.0,0.0,0.0,0.0,0.0,0.0,0.0,0.0,0.0,0.0,0.0,0.0,0.0,0.0,0.0,0.0,0.0,0.0,0.0,0.0,0.0,0.0,0.0,0.0,0.0,0.0,0.0,0.0,0.0,0.0,0.0,0.0,0.0,0.0,0.0,6.0503,6.0956,6.1175,6.1247,6.128,6.1131,6.0713,6.0376,6.0041,0.0,0.0,0.0,0.0,0.0,0.0,0.0,0.0,0.0,0.0,0.0,0.0,0.0,0.0,0.0,0.0,0.0,0.0,0.0,0.0,0.0,0.0,0.0,0.0,0.0,0.0,0.0,0.0,0.0,0.0,0.0,0.0,0.0,0.0,0.0,0.0,0.0,0.0,0.0,0.0,5.6725,5.7426,5.7978,0.0,0.0,0.0,0.0,0.0,0.0,5.8362,5.7815,0.0,0.0,0.0,0.0,0.0,0.0,0.0,0.0,0.0,0.0,0.0,0.0,0.0,0.0,0.0,0.0,0.0,0.0,0.0,0.0,0.0,0.0,0.0,0.0,0.0,0.0,0.0,0.0,0.0,0.0,0.0,0.0,0.0,0.0,0.0,0.0,0.0,0.0,0.0,0.0,0.0,0.0,0.0,0.0,0.0,0.0,0.0,0.0,0.0,0.0,0.0,0.0,0.0,0.0,0.0,6.1996,6.2216,6.2472,6.2761,6.2796,6.245,6.1695,6.1608,6.11,0.0,0.0,0.0,0.0,0.0,0.0,0.0,0.0,0.0,0.0,0.0,0.0,0.0,0.0,0.0,0.0,0.0,0.0,0.0,0.0,0.0,0.0,0.0,0.0,0.0,0.0,0.0,0.0,0.0,0.0,0.0,0.0,0.0,0.0,0.0,0.0,0.0,0.0,0.0,0.0,0.0,5.8776,5.9647,5.9298,0.0,0.0,0.0,0.0,5.9946,5.992,0.0,0.0,0.0,0.0,0.0,0.0,0.0,0.0,0.0,0.0,0.0,0.0,0.0,0.0,0.0,0.0,0.0,0.0,0.0,0.0,0.0,0.0,0.0,0.0,0.0,0.0,0.0,0.0,0.0,0.0,0.0,0.0,0.0,0.0,0.0,0.0,0.0,0.0,0.0,0.0,0.0,0.0,0.0,0.0,0.0,0.0,0.0,0.0,0.0,0.0,0.0,0.0,0.0,0.0,0.0,0.0,6.2855,6.3664,6.4535,6.5407,6.5477,6.5222,6.4543,6.392,6.2854,0.0,0.0,0.0,0.0,0.0,0.0,0.0,0.0,0.0,0.0,0.0,0.0,0.0,0.0,0.0,0.0,0.0,0.0,0.0,0.0,0.0,0.0,0.0,0.0,0.0,0.0,0.0,0.0,0.0,0.0,0.0,0.0,0.0,0.0,0.0,0.0,0.0,0.0,0.0,0.0,0.0,6.0021,6.0974,6.1063,6.1111,0.0,0.0,6.1017,6.0303,6.0166,0.0,0.0,0.0,0.0,0.0,0.0,0.0,0.0,0.0,0.0,0.0,0.0,0.0,0.0,0.0,0.0,0.0,0.0,0.0,0.0,0.0,0.0,0.0,0.0,0.0,0.0,0.0,0.0,0.0,0.0,0.0,0.0,0.0,0.0,0.0,0.0,0.0,0.0,0.0,0.0,0.0,0.0,0.0,0.0,0.0,0.0,0.0,0.0,0.0,0.0,0.0,0.0,0.0,0.0,0.0,6.3129,6.4002,6.4946,6.5668,6.6144,6.6269,6.6209,6.5917,6.5301,6.4397,0.0,0.0,0.0,0.0,0.0,0.0,0.0,0.0,0.0,0.0,0.0,0.0,0.0,0.0,0.0,0.0,0.0,0.0,0.0,0.0,0.0,0.0,0.0,0.0,0.0,0.0,0.0,0.0,0.0,0.0,0.0,0.0,0.0,0.0,0.0,0.0,0.0,0.0,0.0,0.0,0.0,0.0,6.1467,6.1969,0.0,0.0,0.0,6.2153,6.1349,0.0,0.0,0.0,0.0,0.0,0.0,0.0,0.0,0.0,0.0,0.0,0.0,0.0,0.0,0.0,0.0,0.0,0.0,0.0,0.0,0.0,0.0,0.0,0.0,0.0,0.0,0.0,0.0,0.0,0.0,0.0,0.0,0.0,0.0,0.0,0.0,0.0,0.0,0.0,0.0,0.0,0.0,0.0,0.0,0.0,0.0,0.0,0.0,0.0,0.0,0.0,0.0,0.0,0.0,0.0,0.0,0.0,6.55,6.6243,6.6825,6.7122,6.7268,6.723,6.7073,6.6727,0.0,0.0,0.0,0.0,0.0,0.0,0.0,0.0,0.0,0.0,0.0,0.0,0.0,0.0,0.0,0.0,0.0,0.0,0.0,0.0,0.0,0.0,0.0,0.0,0.0,0.0,0.0,5.8036,0.0,0.0,0.0,0.0,0.0,0.0,0.0,0.0,0.0,0.0,0.0,0.0,0.0,0.0,6.206,6.2344,6.2953,6.3402,0.0,0.0,6.3188,6.2407,6.226,6.1723,0.0,0.0,0.0,0.0,0.0,0.0,0.0,0.0,0.0,0.0,0.0,0.0,0.0,0.0,0.0,0.0,0.0,0.0,0.0,0.0,0.0,0.0,0.0,0.0,0.0,0.0,0.0,0.0,0.0,0.0,0.0,0.0,0.0,0.0,0.0,0.0,0.0,0.0,0.0,0.0,0.0,0.0,0.0,0.0,0.0,0.0,0.0,0.0,0.0,0.0,0.0,0.0,0.0,0.0,0.0,6.7352,6.7733,6.8307,6.9165,6.9269,6.8993,6.8412,6.8508,6.7434,0.0,0.0,0.0,0.0,0.0,0.0,0.0,0.0,0.0,0.0,0.0,0.0,0.0,0.0,0.0,0.0,0.0,0.0,0.0,0.0,0.0,0.0,0.0,0.0,0.0,0.0,0.0,0.0,0.0,0.0,0.0,0.0,0.0,0.0,0.0,0.0,0.0,0.0,0.0,0.0,0.0,6.33,6.4106,6.4326,6.4404,0.0,0.0,6.4174,6.3271,6.3105,6.281,6.187,0.0,0.0,0.0,0.0,0.0,0.0,0.0,0.0,0.0,0.0,0.0,0.0,0.0,0.0,0.0,0.0,0.0,0.0,0.0,0.0,0.0,0.0,0.0,0.0,0.0,0.0,0.0,0.0,0.0,0.0,0.0,0.0,0.0,0.0,0.0,0.0,0.0,0.0,0.0,0.0,0.0,0.0,0.0,0.0,0.0,0.0,0.0,0.0,0.0,0.0,0.0,0.0,0.0,6.679,6.8032,6.9302,7.0065,7.0445,7.1046,7.1,7.0233,6.9948,6.9044,0.0,0.0,0.0,0.0,0.0,0.0,0.0,0.0,0.0,0.0,0.0,0.0,0.0,0.0,0.0,0.0,0.0,0.0,0.0,0.0,0.0,0.0,0.0,0.0,0.0,0.0,0.0,0.0,6.1747,6.1555,6.1061,0.0,0.0,0.0,0.0,0.0,0.0,0.0,0.0,0.0,0.0,6.4943,6.5282,6.5769,0.0,0.0,6.5731,6.5083,6.4212,6.4052,6.3777,6.29,6.2477,0.0,0.0,0.0,0.0,0.0,0.0,0.0,0.0,0.0,0.0,0.0,0.0,0.0,0.0,0.0,0.0,0.0,0.0,0.0,0.0,0.0,0.0,0.0,0.0,0.0,0.0,0.0,0.0,0.0,0.0,0.0,0.0,0.0,0.0,0.0,0.0,0.0,0.0,0.0,0.0,0.0,0.0,0.0,0.0,0.0,0.0,0.0,0.0,0.0,0.0,0.0,0.0,6.8248,6.9217,7.0773,7.1589,7.1627,7.2298,7.24,7.1867,7.1455,7.0697,0.0,0.0,0.0,0.0,0.0,0.0,0.0,0.0,0.0,0.0,0.0,0.0,0.0,0.0,0.0,0.0,0.0,0.0,0.0,0.0,0.0,0.0,0.0,0.0,0.0,0.0,0.0,0.0,6.3314,6.3083,6.2518,0.0,0.0,0.0,0.0,0.0,0.0,0.0,0.0,0.0,0.0,6.6628,6.6667,6.7128,6.7475,6.7475,6.6782,6.6058,6.5436,6.5359,6.5051,6.4199,0.0,0.0,0.0,0.0,0.0,0.0,0.0,0.0,0.0,0.0,0.0,0.0,0.0,0.0,0.0,0.0,0.0,0.0,0.0,0.0,0.0,0.0,0.0,0.0,0.0,0.0,0.0,0.0,0.0,0.0,6.6065,0.0,0.0,0.0,0.0,0.0,0.0,0.0,0.0,0.0,0.0,0.0,0.0,0.0,0.0,0.0,0.0,0.0,0.0,0.0,0.0,0.0,0.0,7.0166,7.1218,7.2247,7.2764,7.2764,7.2983,7.3103,7.3073,7.3115,7.2356,7.0746,0.0,0.0,0.0,0.0,0.0,0.0,0.0,0.0,0.0,0.0,0.0,0.0,0.0,0.0,0.0,0.0,0.0,0.0,0.0,0.0,0.0,0.0,0.0,0.0,0.0,0.0,6.3391,6.3314,6.3314,0.0,0.0,0.0,0.0,0.0,0.0,0.0,0.0,0.0,0.0,6.7276,6.8353,6.8353,6.8353,6.8391,6.8391,6.7628,6.7058,6.7019,6.7019,6.6789,0.0,0.0,0.0,0.0,0.0,0.0,0.0,0.0,0.0,0.0,0.0,0.0,0.0,0.0,0.0,0.0,0.0,0.0,0.0,0.0,0.0,0.0,0.0,0.0,0.0,0.0,0.0,7.0215,7.0241,0.0,0.0,0.0,0.0,0.0,0.0,0.0,0.0,0.0,0.0,0.0,7.4998,7.4694,0.0,0.0,0.0,0.0,0.0,0.0,0.0,0.0,0.0,0.0,0.0,0.0,7.0876,7.2392,7.3403,7.3915,7.3954,7.4517,7.4579,7.4042,7.4083,7.3652,7.259,0.0,0.0,0.0,0.0,0.0,0.0,0.0,0.0,0.0,0.0,0.0,0.0,0.0,0.0,0.0,0.0,0.0,0.0,0.0,0.0,0.0,0.0,0.0,0.0,0.0,6.582,0.0,0.0,0.0,0.0,0.0,0.0,0.0,0.0,0.0,0.0,0.0,6.632,6.7436,6.8552,6.9276,6.9276,6.9244,6.9283,0.0,0.0,0.0,0.0,0.0,0.0,0.0,0.0,0.0,0.0,0.0,0.0,0.0,0.0,6.2937,6.1765,6.1567,6.1555,6.1511,0.0,0.0,0.0,0.0,0.0,0.0,0.0,0.0,0.0,0.0,0.0,0.0,0.0,0.0,7.3242,0.0,7.3258,0.0,0.0,0.0,0.0,0.0,0.0,0.0,0.0,7.6646,7.6979,7.7062,7.7062,7.6729,0.0,7.5579,7.4305,0.0,0.0,0.0,0.0,0.0,0.0,0.0,0.0,7.2283,7.35,7.4472,7.4965,7.5003,7.5534,7.5549,7.505,7.4758,7.4387,7.393,7.2552,7.1668,0.0,0.0,0.0,0.0,0.0,0.0,0.0,0.0,0.0,0.0,0.0,0.0,0.0,0.0,0.0,0.0,0.0,0.0,0.0,0.0,0.0,0.0,0.0,6.7552,0.0,0.0,0.0,0.0,0.0,0.0,0.0,0.0,0.0,6.6821,6.7051,6.7628,6.8699,6.959,7.0129,7.0129,0.0,0.0,0.0,0.0,0.0,0.0,0.0,6.893,6.9237,6.9513,6.9622,6.9321,6.8321,6.7398,6.6859,0.0,0.0,6.4506,6.4199,6.4192,6.4155,6.4142,6.4129,6.409,6.4084,6.4161,0.0,0.0,0.0,0.0,0.0,0.0,0.0,0.0,7.608,7.6182,0.0,7.6134,0.0,0.0,0.0,0.0,0.0,7.6417,0.0,0.0,7.8176,7.8309,7.8407,7.8445,7.8415,7.8415,7.8216,7.8058,7.7849,7.4372,0.0,0.0,0.0,0.0,0.0,0.0,7.4388,7.4696,7.5549,7.601,7.601,7.6055,7.6092,7.6015,7.5238,7.4776,7.47,7.393,7.3122,7.2329,7.1437,0.0,0.0,0.0,0.0,0.0,0.0,0.0,0.0,0.0,0.0,0.0,0.0,0.0,0.0,0.0,0.0,0.0,0.0,0.0,0.0,6.8507,0.0,0.0,0.0,0.0,0.0,0.0,0.0,0.0,0.0,0.0,6.8699,6.9244,6.9783,6.986,0.0,0.0,0.0,0.0,7.0975,7.0975,7.0321,6.9821,6.986,6.986,7.009,7.086,0.0,0.0,7.1129,6.9661,6.866,6.8584,6.866,6.8045,6.6519,6.6128,6.5974,6.5974,6.5974,6.5974,6.5974,6.5968,6.616,8.0076,0.0,0.0,0.0,0.0,7.7317,7.7468,7.7302,7.7941,7.7932,7.7464,7.7474,0.0,0.0,0.0,0.0,0.0,0.0,7.8733,7.9152,8.0375,8.0967,8.0993,8.1031,8.1031,8.0954,7.9702,7.908,7.9033,7.742,7.6227,7.549,0.0,0.0,0.0,0.0,7.6592,7.7246,7.7601,7.7754,7.7754,7.7777,7.7522,7.6938,7.6714,7.6245,7.5668,7.4815,7.4238,7.4014,7.3206,0.0,0.0,0.0,0.0,0.0,0.0,0.0,0.0,0.0,0.0,0.0,0.0,0.0,0.0,0.0,0.0,0.0,0.0,0.0,7.1892,7.1475,7.086,0.0,0.0,0.0,0.0,0.0,0.0,0.0,0.0,0.0,7.193,7.1706,7.1706,0.0,0.0,7.2745,7.2738,7.2738,7.2783,7.2776,7.2584,0.0,7.2392,7.2392,7.2469,7.2738,7.2969,7.3046,7.2815,7.2353,7.2045,7.2007,7.2045,7.1853,7.1321,6.9276,6.7859,6.7699,6.7699,6.766,6.7705,6.766,6.7776,8.3007,8.1708,8.0276,7.9733,7.9791,8.0354,8.0354,8.0008,8.0543,8.0531,8.016,8.0125,8.0098,8.0033,7.9997,0.0,0.0,0.0,8.104,8.1129,8.2199,8.2676,8.2676,8.2715,8.2715,8.2638,8.164,8.1102,8.1102,8.0641,8.0054,7.9378,0.0,0.0,7.7486,7.7584,7.7877,7.8408,7.85,7.8484,7.8484,7.8484,7.8253,7.7792,7.7792,7.7522,7.7022,7.6515,7.6053,7.5745,7.4938,7.4084,0.0,0.0,0.0,0.0,0.0,0.0,0.0,0.0,0.0,0.0,0.0,6.8475,0.0,0.0,0.0,0.0,7.1629,7.236,7.3392,7.3014,0.0,0.0,0.0,0.0,0.0,0.0,0.0,7.1783,7.2206,7.2822,7.3815,7.3822,7.3668,7.3507,7.3507,7.3507,7.3507,0.0,7.3507,7.3507,7.3507,7.3507,7.3507,7.3507,7.3584,7.393,7.3969,7.3969,7.3969,7.3738,7.3507,7.3507,7.3507,7.3507,7.3507,7.1776,7.043,7.043,7.043,7.043,7.043,7.043,7.043,8.473,8.4654,8.3857,8.3382,8.3224,8.3258,8.3285,8.3332,8.3302,8.3402,8.3516,8.3363,8.3402,8.347,8.3393,0.0,8.332,8.3444,8.3448,8.3486,8.3646,8.3717,8.3717,8.3708,8.3678,8.3708,8.364,8.3601,8.3563,8.3555,8.3601,8.3478,8.0364,7.8711,7.8714,7.8676,7.8638,7.8715,7.8715,7.8715,7.8715,7.8715,7.8677,7.86,7.86,7.8561,7.8484,7.8484,7.8176,7.7407,7.663,7.5822,7.5046,0.0,0.0,0.0,0.0,0.0,0.0,0.0,0.0,0.0,0.0,0.0,0.0,0.0,0.0,0.0,7.3815,0.0,7.3892,7.3892,0.0,0.0,0.0,7.2783,7.3507,7.2899,7.2745,7.3584,0.0,0.0,7.5007,7.5707,7.5637,7.413,7.3783,7.3699,7.3699,7.3776,7.3699,7.3815,7.3738,7.3699,7.3853,7.3815,7.4084,7.4707,7.4815,7.4822,7.4776,7.4276,7.3776,7.3776,7.3738,7.3738,7.3699,7.3668,7.3699,7.3584,7.3469,7.3392,7.3238,7.3199,7.3161,8.5719,8.5719,8.5535,8.4605,8.3276,8.3294,8.3376,8.3436,8.3436,8.3495,8.3569,8.3553,8.352,8.3508,8.3453,8.3444,8.3444,8.3528,8.3569,8.3607,8.4277,8.4593,8.4593,8.4593,8.4593,8.4555,8.3909,8.3601,8.3601,8.3601,8.3601,8.3555,8.2753,8.2007,8.1377,8.0761,8.0454,8.0477,8.0477,8.0477,8.0477,8.0477,8.0169,7.9515,7.9477,7.9169,7.8523,7.8484,7.8407,7.8215,7.8023,7.7823,7.7599,7.6823,0.0,0.0,0.0,0.0,0.0,0.0,0.0,0.0,0.0,7.1245,7.2738,0.0,7.3815,0.0,7.6553,7.733,7.733,7.7323,0.0,0.0,7.563,7.4899,7.4476,7.4238,7.443,7.5322,7.6169,7.6899,7.7522,7.7805,7.7841,7.7417,7.6212,7.5392,7.5399,7.5399,7.5399,7.5399,7.5406,7.5399,7.5399,7.5399,7.5476,7.5668,7.5707,7.5707,7.5707,7.5553,7.5399,7.5399,7.5399,7.5399,7.5399,7.5399,7.5399,7.5322,7.4392,7.3507,7.3507,7.3507,7.3507,8.6094,8.6094,8.6094,8.5497,8.4567,8.4567,8.4601,8.4643,8.4643,8.4668,8.4709,8.4709,8.4684,8.4643,8.4643,8.4681,8.4681,8.4692,8.4709,8.4747,8.5209,8.544,8.5431,8.5431,8.544,8.5393,8.4939,8.4709,8.4709,8.4709,8.4709,8.4717,8.4362,8.3939,8.3439,8.2631,8.2208,8.2208,8.2208,8.2208,8.2208,8.2216,8.1785,8.0977,8.0939,8.0516,7.9677,7.9677,7.9485,7.9131,7.9092,7.8907,7.8523,7.8061,7.7445,0.0,0.0,0.0,0.0,0.0,0.0,0.0,0.0,0.0,0.0,0.0,7.6092,7.7022,7.7984,7.8484,7.8484,7.8484,7.833,7.7869,7.7407,7.6899,7.6438,7.6429,7.6604,7.7112,7.7648,7.8132,7.8556,7.8669,7.8697,7.869,7.7884,7.7239,7.7239,7.7239,7.7239,7.7239,7.7239,7.7225,7.7158,7.7121,7.7138,7.7092,7.713,7.7138,7.7138,7.7092,7.7099,7.713,7.7138,7.7138,7.7099,7.713,7.7138,7.6976,7.6361,7.5515,7.4776,7.4623,7.4623,8.6094,8.6094,8.6094,8.6094,8.6094,8.6094,8.6094,8.6094,8.6094,8.6094,8.6094,8.6094,8.6094,8.6094,8.6094,8.6094,8.6094,8.6094,8.6094,8.6094,8.6094,8.6094,8.6094,8.6094,8.6094,8.6094,8.6094,8.6094,8.6094,8.6094,8.6094,8.6094,8.5401,8.5047,8.5008,8.4324,8.3832,8.3601,8.3601,8.3601,8.3601,8.3601,8.3255,8.2516,8.2477,8.2131,8.1477,8.1323,8.0977,8.0315,8.0208,7.9823,7.9177,7.9061,7.8638,0.0,7.7669,0.0,0.0,0.0,0.0,0.0,0.0,0.0,0.0,7.7753,7.8677,7.8677,7.8754,7.883,7.883,7.8838,7.8846,7.8846,7.8738,7.8707,7.8707,7.8727,7.8777,7.8784,7.9001,7.9119,7.921,7.9139,7.9185,7.9268,7.9243,7.9172,7.9121,7.8894,7.8668,7.8797,7.8797,7.8525,7.8469,7.8489,7.8452,7.8483,7.8391,7.8499,7.8422,7.8415,7.8446,7.8446,7.8369,7.8407,7.8484,7.8446,7.8446,7.8369,7.8253,7.783,7.6669,7.6322,7.6322,8.6094,8.6094,8.6094,8.6094,8.6094,8.6094,8.6094,8.6094,8.6094,8.6094,8.6094,8.6094,8.6094,8.6094,8.6094,8.6094,8.6094,8.6094,8.6094,8.6094,8.6094,8.6094,8.6094,8.6094,8.6094,8.6094,8.6094,8.6094,8.6094,8.6094,8.6094,8.6094,8.594,8.5863,8.5863,0.0,0.0,0.0,8.3601,8.3601,8.3601,8.3601,8.3524,8.337,8.337,0.0,8.3101,8.2439,8.2324,8.2832,8.2208,0.0,0.0,0.0,0.0,0.0,0.0,0.0,0.0,0.0,0.0,0.0,7.8784,7.8784,7.8138,7.8977,7.9554,7.9592,8.0208,8.0592,8.0631,8.0654,8.0691,8.0653,8.0126,7.9706,7.9706,7.9759,7.9748,7.9816,8.0453,8.0943,8.1008,8.1058,8.1088,8.1056,8.1097,8.1164,8.1164,7.9874,7.8888,7.8797,7.901,7.8874,7.8777,7.8885,7.9065,7.8749,7.8654,7.8703,7.8773,7.8683,7.8561,7.8646,7.8484,7.8561,7.8561,7.8484,7.86,7.8523,7.8523,7.8407,7.8099,7.8023,7.8023,8.7363,8.7363,8.7363,8.7401,0.0,8.7401,8.7401,8.7325,8.6478,8.6094,8.6094,8.6094,8.6094,8.6094,8.6094,8.6094,8.6094,8.6094,8.6094,8.6094,8.6094,8.6094,8.6094,8.6094,8.6094,8.6094,8.6094,8.6094,8.6094,8.6094,8.6094,8.6094,8.6094,8.6094,8.6094,8.6094,8.567,8.4824,8.4863,8.4824,8.4824,8.4824,8.4632,8.4247,8.4247,0.0,0.0,0.0,0.0,0.0,0.0,0.0,0.0,0.0,0.0,8.237,8.19,8.1485,8.1062,8.1023,8.1023,8.1023,8.1439,8.1331,8.0446,8.0785,8.1224,8.1686,8.2117,8.2402,8.2416,8.2453,8.2475,8.2475,8.2154,8.1926,8.1933,8.1993,8.2065,8.2139,8.2518,8.2869,8.2932,8.2965,8.2981,8.2981,8.3002,8.2989,8.2857,8.1447,8.0355,8.0775,8.086,8.1002,8.1343,8.1395,8.1323,8.1322,8.1249,8.1207,8.1172,8.1135,8.1113,8.1106,8.0768,8.043,8.0384,8.0085,7.9785,7.9792,7.9792,7.9785,7.9715,7.91,7.8484,8.8679,8.8679,8.8679,8.8679,8.8679,8.8679,8.8679,8.8603,0.0,0.0,0.0,8.6555,8.6555,8.6555,8.6401,8.6324,8.6324,8.617,8.6094,8.6094,8.6094,8.6094,8.6094,8.6094,8.6094,8.6094,8.6094,8.6094,8.6094,8.6094,8.6094,8.6094,8.6094,8.6094,8.6094,8.6094,8.6094,8.6094,8.6094,8.6094,8.6094,8.6094,8.5786,8.5132,8.5124,8.4786,8.4063,8.3909,8.3901,8.4024,8.3901,8.3909,8.4024,8.3901,8.3832,8.3832,8.3678,8.3601,8.3601,8.3601,8.3609,8.3617,8.3657,8.3403,8.2586,8.2555,8.2864,8.3664,8.3703,8.374,8.3821,8.3842,8.3817,8.387,8.3907,8.396,8.3966,8.4067,8.405,8.4238,8.4208,8.4335,8.4353,8.4323,8.444,8.444,8.4289,8.444,8.427,8.3092,8.2377,8.2915,8.2959,8.328,8.3861,8.3909,8.4036,8.3715,8.3805,8.3914,8.3891,8.381,8.3796,8.3512,8.3145,8.267,8.2585,8.2039,8.1601,8.1562,8.1547,8.1539,8.1424,8.0454,7.9485,8.8718,8.8679,8.8679,8.8679,8.8679,8.8679,8.8679,8.8679,8.8449,8.8333,8.8333,8.8333,8.8333,8.8286,8.7555,8.7209,8.7171,8.644,8.6094,8.6094,8.6094,8.6094,8.6094,8.6094,8.6094,8.6094,8.6094,8.6094,8.6094,8.6094,8.6094,8.6094,8.6094,8.6094,8.6094,8.6094,8.6094,8.6094,8.6094,8.6094,8.6094,8.6094,8.6047,8.5931,8.594,8.5901,8.5747,8.5093,8.5055,8.567,8.5093,8.5016,8.567,8.5055,8.4709,8.467,8.4016,8.3601,8.3601,8.3601,8.3633,8.3703,8.3748,8.3678,8.3518,8.354,8.363,8.3792,8.3876,8.3821,8.3859,8.3998,8.4102,8.4126,8.4194,8.4261,8.4338,8.4397,8.4471,8.4557,8.4457,8.4572,8.4713,8.4688,8.4727,8.4653,8.4847,8.4653,8.4674,8.4289,8.4107,8.417,8.4204,8.4238,8.451,8.4388,8.4435,8.4233,8.43,8.4326,8.4293,8.4192,8.4132,8.395,8.3825,8.3659,8.3606,8.3514,8.3268,8.3223,8.3178,8.3164,8.3125,8.2771,8.2262,9.0056,9.0056,9.0056,9.0056,9.0056,9.0056,9.0056,9.0056,9.0056,8.9517,8.8718,8.8679,8.8679,8.8679,8.8286,8.8094,8.8102,8.7671,8.7517,8.7517,8.7517,8.7487,8.7517,8.7517,8.7525,8.7478,8.7017,8.6824,8.6786,8.6324,8.6094,8.6094,8.6094,8.6094,8.6094,8.6094,8.6094,8.6094,8.6094,8.6094,8.6094,8.6094,8.6094,8.6094,8.6094,8.6094,8.6094,8.5747,8.5709,8.6094,8.5747,8.5739,8.6055,8.5739,8.5547,8.5555,8.5219,8.5012,8.5012,8.5098,8.5152,8.5195,8.5274,8.5323,8.5323,8.4857,8.4793,8.5293,8.5377,8.5423,8.5524,8.556,8.5601,8.5624,8.5734,8.583,8.5844,8.5862,8.5961,8.6016,8.6026,8.6014,8.6075,8.6083,8.6049,8.6058,8.6061,8.6063,8.6022,8.5983,8.5757,8.5335,8.5237,8.5432,8.5778,8.5899,8.587,8.5848,8.5816,8.5729,8.5651,8.5551,8.5504,8.5485,8.5107,8.4695,8.4643,8.4189,8.3961,8.3863,8.3806,8.3762,8.3748,8.3718,8.3249,9.1748,9.1787,9.1787,9.1672,9.1479,9.1287,9.1201,9.1201,9.1163,9.0479,8.9363,8.9248,8.9248,8.9257,8.9056,8.8979,8.894,8.8795,8.8679,8.8679,8.8679,8.8679,8.8679,8.8679,8.8679,8.8641,8.8017,8.7671,8.7594,8.7017,8.6671,8.6671,8.6671,8.6671,8.6671,8.6671,8.6709,8.6671,8.6671,8.6478,8.6094,8.6094,8.6094,8.6094,8.6094,8.6094,8.6094,8.6094,8.6094,8.6094,8.6094,8.6094,8.6094,8.611,8.6118,8.6126,8.6207,8.6262,8.6285,8.6375,8.6493,8.6531,8.6604,8.6674,8.6702,8.6073,8.5919,8.6594,8.6651,8.6754,8.6814,8.6879,8.6943,8.6971,8.7089,8.7055,8.7141,8.7202,8.7256,8.7323,8.7333,8.728,8.7311,8.7321,8.7248,8.7219,8.7339,8.7339,8.7339,8.734,8.7003,8.6524,8.6212,8.6434,8.713,8.7166,8.7098,8.7148,8.7094,8.6946,8.6877,8.689,8.6923,8.6708,8.6245,8.5789,8.565,8.519,8.4779,8.4766,8.4745,8.4548,8.4604,8.4597,8.4038,9.3441,9.348,9.3403,9.3018,9.2326,9.1556,9.1248,9.124,9.1201,9.1133,9.0979,9.0979,9.0941,9.0864,9.0124,8.9778,8.9739,8.9056,8.8756,8.8756,8.8679,8.8679,8.8795,8.8756,8.8679,8.8756,8.8641,8.8556,8.8564,8.8449,8.8449,8.8487,8.8449,8.841,8.841,8.8402,8.8449,8.8449,8.8449,8.7718,8.6209,8.6094,8.6094,8.6094,8.6132,8.6094,8.6209,8.6094,8.6094,8.6094,8.6132,8.6094,8.614,8.6167,8.6215,8.6184,8.6331,8.6406,8.6486,8.661,8.6674,8.6696,8.6838,8.6959,8.7055,8.6985,8.6875,8.6985,8.6941,8.6972,8.7059,8.7111,8.7187,8.7295,8.7384,8.7286,8.7415,8.7299,8.7338,8.7397,8.7604,8.743,8.7595,8.7559,8.7443,8.7367,8.7406,8.7406,8.7406,8.7406,8.7366,8.724,8.7186,8.7159,8.7297,8.7291,8.727,8.7264,8.7289,8.7231,8.7149,8.7129,8.7072,8.7025,8.6884,8.6666,8.6646,8.6643,8.6516,8.6223,8.6192,8.6326,8.6345,8.6177,8.5512,9.3672,9.3672,9.3672,9.3518,9.3172,9.2826,9.2672,9.2672,9.2672,9.2672,9.2672,9.2672,9.2133,9.1171,9.0816,9.0663,9.0624,9.0325,9.0171,9.0171,9.0171,9.0171,9.0171,9.0171,9.0171,9.0094,8.9671,8.9402,8.9325,8.894,8.8679,8.8679,8.8679,8.8679,8.8679,8.8679,8.8679,8.8679,8.8679,8.8333,8.7748,8.7632,8.7632,8.7632,8.7632,8.7632,8.7632,8.7632,8.7632,8.7602,8.7182,8.6937,8.6899,8.6555,8.6315,8.6375,8.6521,8.6636,8.6743,8.6797,8.7065,8.7578,8.7711,8.7971,8.8537,8.8647,8.8669,8.8495,8.7721,8.7102,8.727,8.7686,8.799,8.8111,8.8542,8.8875,8.8914,8.8858,8.8915,8.8919,8.8923,8.893,8.8859,8.8473,8.8005,8.7615,8.7461,8.7539,8.7461,8.7459,8.7459,8.7458,8.7416,8.7408,8.7354,8.7349,8.7337,8.736,8.735,8.7341,8.726,8.7262,8.7222,8.7244,8.7152,8.7075,8.7036,8.7055,8.704,8.6982,8.6923,8.6794,8.6771,8.6766,8.6338,9.4403,9.4364,9.4181,9.4057,9.4027,9.3787,9.3672,9.3672,9.3672,9.3672,9.3672,9.3672,9.3056,9.1979,9.1864,9.1864,9.1864,9.1902,9.1902,9.1864,9.1864,9.1902,9.1902,9.1902,9.1902,9.1787,9.1287,9.0979,9.0902,9.0402,8.9949,8.9795,8.9757,8.9603,8.941,8.9389,8.9406,8.9406,8.9431,8.944,8.9448,8.944,8.92,8.8799,8.8738,8.8755,8.8755,8.8755,8.8755,8.8716,8.8188,8.7888,8.7873,8.741,8.7203,8.728,8.739,8.7508,8.7622,8.7681,8.7968,8.8607,8.8725,8.8998,8.9592,8.9805,8.9845,8.9747,8.8714,8.8041,8.8087,8.8613,8.8945,8.9044,8.9653,8.9975,8.9937,8.9985,8.9951,8.999,8.9836,8.9994,8.9919,8.9414,8.8867,8.8398,8.8242,8.8047,8.789,8.7851,8.7773,8.7539,8.75,8.746,8.7414,8.7411,8.7408,8.7402,8.7394,8.7388,8.7328,8.731,8.733,8.7312,8.7239,8.7211,8.7199,8.7156,8.7137,8.7117,8.7038,8.6989,8.6989,8.6989,8.6957,9.6211,9.6057,9.5335,9.5027,9.4912,9.4181,9.3749,9.3864,9.3787,9.3749,9.3826,9.3787,9.3672,9.3595,9.3595,9.3557,9.3518,9.3441,9.3441,9.3441,9.348,9.3557,9.3595,9.3595,9.3518,9.3364,9.3249,9.3249,9.3373,9.3373,9.3095,9.2334,9.2189,9.1873,9.1236,9.1151,9.1184,9.1193,9.1258,9.1268,9.1268,9.1268,9.055,8.9276,8.8922,8.9,8.8969,8.893,8.893,8.893,8.8907,8.886,8.8934,8.8928,8.8946,8.916,8.9271,8.9353,8.9368,8.9379,8.9554,8.9697,8.9712,8.9816,9.0094,9.0122,9.0183,9.0044,9.0091,8.9975,8.9968,8.9926,8.9971,8.9942,9.0024,9.0143,9.0104,9.0267,9.0035,9.0114,9.0233,9.0234,9.0117,8.9961,8.9883,8.9765,8.9765,8.9531,8.8828,8.8672,8.8359,8.7812,8.7578,8.75,8.7419,8.7418,8.7416,8.7413,8.7411,8.7408,8.7405,8.74,8.7392,8.7381,8.7317,8.7295,8.7286,8.726,8.7256,8.7231,8.718,8.716,8.711,8.7156,8.7167,9.7904,9.7865,9.7567,9.7134,9.6557,9.6249,9.5826,9.5365,9.5365,9.5365,9.5365,9.5365,9.5365,9.5365,9.5365,9.4749,9.3749,9.3672,9.3672,9.3672,9.3672,9.3672,9.3672,9.3672,9.3672,9.3672,9.3672,9.3672,9.3719,9.3773,9.3684,9.347,9.3444,9.3285,9.3054,9.3002,9.3018,9.3026,9.3098,9.3145,9.3083,9.3205,9.2961,9.2363,9.1204,9.058,9.0632,9.0632,9.0632,9.0632,9.0218,8.9904,8.9906,8.9576,8.9404,8.9532,8.9592,8.9656,8.9735,8.9735,9.0047,9.063,9.0703,9.0992,9.1437,9.1608,9.1621,9.1707,9.2218,9.2455,9.2261,9.1516,9.085,9.0892,9.1325,9.164,9.1639,9.164,9.1679,9.1679,9.164,9.1484,9.1015,9.0859,9.0625,9.0117,9.0,8.9883,8.9648,8.9531,8.9219,8.8515,8.8242,8.8086,8.7499,8.746,8.746,8.746,8.7459,8.7418,8.7416,8.7414,8.7409,8.7404,8.7392,8.7346,8.7337,8.7328,8.7297,8.7284,8.7277,8.7265,8.7263,8.726,8.7273,9.8788,9.8788,9.8788,9.8442,9.7942,9.7904,9.7634,9.7134,9.7096,9.7096,9.7134,9.7096,9.7096,9.7096,9.7096,9.6519,9.5326,9.4826,9.4557,9.4518,9.4518,9.4536,9.4563,9.4572,9.459,9.4608,9.4617,9.4617,9.4617,9.4716,9.4587,9.4364,9.4417,9.4311,9.4079,9.4088,9.408,9.4095,9.4184,9.4234,9.4248,9.435,9.4413,9.4317,9.3212,9.2548,9.2561,9.2555,9.2593,9.2484,9.2096,9.1835,9.181,9.1465,9.127,9.1315,9.1438,9.1454,9.1512,9.1505,9.1802,9.2367,9.2465,9.2751,9.334,9.3424,9.3431,9.3591,9.3904,9.4335,9.4101,9.3241,9.2576,9.2616,9.3085,9.3437,9.3437,9.3437,9.3437,9.3437,9.3437,9.3047,9.2344,9.2187,9.1758,9.0976,9.0859,9.0781,9.0508,9.039,9.0117,8.9336,8.914,8.8945,8.8672,8.8633,8.7929,8.7773,8.7695,8.7617,8.7656,8.7578,8.7539,8.75,8.7453,8.7411,8.7408,8.7403,8.7395,8.7346,8.734,8.7333,8.7331,8.7329,8.7308,9.8865,9.8942,9.8836,9.8904,9.8827,9.8827,9.8788,9.8634,9.8634,9.8519,9.8442,9.8634,9.8528,9.8644,9.8499,9.8605,9.8124,9.694,9.6315,9.6306,9.6306,9.6322,9.6278,9.6287,9.6215,9.6244,9.6415,9.6377,9.6261,9.6239,9.5977,9.5445,9.5386,9.5099,9.4211,9.4512,9.4465,9.4569,9.4711,9.4661,9.4562,9.4768,9.4892,9.4902,9.4707,9.4665,9.4617,9.4529,9.4368,9.4407,9.4374,9.4581,9.4396,9.4336,9.4633,9.4511,9.4781,9.4859,9.486,9.4726,9.4544,9.4669,9.4908,9.4757,9.48,9.4918,9.492,9.4882,9.5078,9.5195,9.5234,9.5234,9.5039,9.5117,9.4883,9.4883,9.5,9.5117,9.5156,9.5,9.4922,9.4765,9.414,9.375,9.3359,9.2695,9.2422,9.2148,9.1484,9.1328,9.0898,9.0273,9.0,8.9844,8.9883,8.9883,8.8906,8.8164,8.8047,8.7969,8.8164,8.8164,8.8242,8.8203,8.789,8.7848,8.7768,8.7726,8.7451,8.7408,8.7408,8.7422,8.7364,8.736,8.7397,10.0519,10.0519,10.0519,10.0173,9.9721,9.9721,9.9375,9.8827,9.8788,9.8788,9.8788,9.8788,9.8835,9.8891,9.8862,9.8937,9.896,9.8459,9.8193,9.8119,9.8163,9.789,9.7453,9.7346,9.7079,9.6659,9.6607,9.663,9.6684,9.6761,9.6636,9.6464,9.6531,9.6437,9.6172,9.6216,9.6219,9.6237,9.6343,9.6439,9.6449,9.6485,9.6554,9.6635,9.6642,9.6653,9.6603,9.5486,9.4859,9.4855,9.4816,9.4844,9.4931,9.493,9.4976,9.5065,9.5053,9.5073,9.5091,9.5181,9.5226,9.5189,9.5192,9.5155,9.5195,9.5234,9.5273,9.5312,9.5703,9.6094,9.625,9.7187,9.7031,9.5429,9.5195,9.539,9.5469,9.5312,9.5195,9.5195,9.5195,9.5039,9.4883,9.4804,9.4453,9.3672,9.3476,9.3086,9.2422,9.2148,9.1836,9.1094,9.0937,9.0742,9.0586,9.0547,9.0039,8.9336,8.9062,8.8711,8.8789,8.8828,8.8906,8.8828,8.8515,8.832,8.8203,8.8086,8.789,8.7617,8.7617,8.7578,8.7461,8.7415,8.7451,10.1279,10.1279,10.1279,10.1019,10.0558,10.0558,10.025,9.976,9.9798,9.9807,9.9816,9.9854,9.9861,9.9906,9.9886,9.9977,10.0063,10.0096,10.0121,9.9873,9.9282,9.8861,9.8423,9.8447,9.826,9.7816,9.7817,9.7812,9.7812,9.7891,9.7949,9.7975,9.8046,9.8148,9.8115,9.8184,9.8185,9.8195,9.8264,9.8349,9.8373,9.8389,9.8438,9.8511,9.8519,9.8385,9.8102,9.6975,9.6279,9.599,9.5906,9.592,9.5983,9.6041,9.6025,9.6052,9.6068,9.6079,9.6085,9.6168,9.6131,9.6132,9.6132,9.6133,9.6133,9.6133,9.6133,9.625,9.6601,9.707,9.7539,9.8281,9.8281,9.7344,9.7226,9.7109,9.707,9.6797,9.6679,9.6719,9.6445,9.6054,9.5781,9.5664,9.5312,9.4609,9.4101,9.3828,9.3164,9.2773,9.2265,9.1914,9.1836,9.1523,9.1133,9.1054,9.1054,9.0664,9.0273,8.9844,8.9609,8.9609,8.9609,8.9531,8.9297,8.9219,8.914,8.8945,8.875,8.8398,8.8125,8.8047,8.8008,8.7578,8.7498,10.1279,10.1279,10.1279,10.1279,10.125,10.126,10.1193,10.1231,10.1326,10.1305,10.1362,10.1309,10.1448,10.1534,10.1367,10.1426,10.1685,10.1657,10.1708,10.1324,10.0439,9.9628,9.9528,9.9455,9.9357,9.9381,9.9485,9.9558,9.9402,9.9408,9.9713,9.9535,9.959,9.9837,9.9656,9.9928,9.9806,9.9732,9.9888,9.9923,9.991,10.0056,10.0085,10.0041,10.0002,9.9696,9.912,9.8848,9.841,9.7723,9.736,9.7368,9.7579,9.7701,9.7513,9.7446,9.7649,9.7534,9.7614,9.7421,9.7461,9.7422,9.7422,9.7695,9.7461,9.7344,9.7383,9.7383,9.7539,9.7929,9.8594,9.9101,9.9414,10.0234,9.9844,9.9804,10.0117,9.9375,9.8828,9.8711,9.8281,9.75,9.6797,9.6679,9.6133,9.5429,9.4687,9.4336,9.3711,9.3242,9.2773,9.2539,9.2344,9.2187,9.1797,9.1797,9.1758,9.1601,9.1289,9.0976,9.0625,9.0586,9.0625,9.0508,9.0156,9.0117,8.9961,8.9726,8.9609,8.9375,8.914,8.8906,8.8633,8.832,8.7969,10.1279,10.1279,10.1279,10.1279,10.1299,10.1404,10.1442,10.1451,10.1543,10.1594,10.1646,10.1671,10.1771,10.1866,10.1881,10.1957,10.2018,10.2098,10.2215,10.2228,10.1867,10.1132,10.0543,10.0057,9.9881,9.993,10.0041,9.989,9.9929,10.0046,10.0007,9.9929,10.0138,10.0126,10.0055,10.0235,10.0147,10.0158,10.0194,10.0251,10.0259,10.0314,10.0286,10.0292,10.0333,10.0221,9.9993,9.9959,9.9214,9.783,9.7672,9.7672,9.7794,9.78,9.7843,9.7846,9.7771,9.7734,9.7734,9.7734,9.7734,9.7695,9.7695,9.7695,9.7695,9.7695,9.7695,9.7695,9.7695,9.8086,9.8906,9.9609,10.0586,10.1758,10.1172,10.0469,10.039,10.0117,9.9961,9.9883,9.9179,9.8515,9.8164,9.7617,9.7031,9.6328,9.582,9.5312,9.4492,9.375,9.3281,9.2773,9.2539,9.2539,9.25,9.25,9.2461,9.2383,9.2226,9.2109,9.1914,9.1875,9.1953,9.1992,9.1211,9.0976,9.0703,9.0429,9.0351,9.039,8.9961,8.9687,8.9648,8.9453,8.8984,10.1279,10.1289,10.1366,10.1385,10.1404,10.1498,10.1561,10.1615,10.1663,10.1755,10.1835,10.1873,10.1986,10.2071,10.2105,10.2197,10.2266,10.2272,10.2371,10.25,10.2468,10.2154,10.1671,10.1201,10.108,10.1088,10.1083,10.1152,10.1198,10.1171,10.1177,10.1261,10.1206,10.1219,10.1302,10.1297,10.1314,10.1357,10.1335,10.1344,10.135,10.1394,10.1399,10.1401,10.1362,10.1286,10.0936,10.0507,9.9804,9.9019,9.8823,9.8784,9.8784,9.8786,9.8787,9.8788,9.8789,9.8672,9.832,9.8242,9.8047,9.7773,9.7695,9.7695,9.7695,9.7695,9.7695,9.7695,9.7695,9.832,9.9453,10.0625,10.1758,10.25,10.1953,10.1367,10.1367,10.1094,10.0898,10.0586,9.9804,9.8984,9.8984,9.8242,9.7617,9.707,9.6601,9.5976,9.5273,9.4492,9.3828,9.3398,9.2851,9.2773,9.2734,9.2695,9.2656,9.2617,9.2578,9.2578,9.2578,9.2578,9.2539,9.2383,9.2031,9.1758,9.1484,9.1328,9.1484,9.1328,9.0859,9.0586,9.0547,9.039,8.9961,10.1308,10.1366,10.1451,10.1498,10.1525,10.1615,10.168,10.1732,10.1866,10.1988,10.205,10.2171,10.2228,10.224,10.2317,10.2394,10.244,10.2454,10.2546,10.2637,10.2688,10.2605,10.2507,10.24,10.2374,10.2422,10.2665,10.2565,10.2458,10.259,10.2714,10.2558,10.2613,10.2738,10.2501,10.2712,10.2876,10.2718,10.2604,10.257,10.2573,10.2575,10.2537,10.2578,10.2578,10.2304,10.1719,10.1133,10.0625,10.0586,10.0429,10.0156,10.0195,10.0234,10.0195,10.0117,10.0,9.9765,9.9297,9.9101,9.8867,9.832,9.8164,9.7969,9.8203,9.8281,9.8242,9.8281,9.7969,9.8945,10.0273,10.1875,10.25,10.2656,10.2578,10.2695,10.2539,10.207,10.1719,10.1523,10.0117,9.9297,9.8789,9.8281,9.7656,9.7461,9.707,9.6601,9.5976,9.5351,9.4687,9.414,9.3594,9.3008,9.2929,9.2851,9.2734,9.2656,9.2617,9.2578,9.2578,9.2578,9.2578,9.2461,9.2265,9.2265,9.2304,9.2304,9.2344,9.2187,9.1679,9.1484,9.1406,9.1172,9.0781,10.1489,10.1561,10.1579,10.1594,10.1671,10.1763,10.1881,10.1944,10.206,10.219,10.2294,10.2334,10.2391,10.2431,10.2477,10.2573,10.2624,10.2656,10.268,10.2791,10.2854,10.2859,10.2803,10.2796,10.2791,10.2796,10.2852,10.2862,10.2863,10.2863,10.2867,10.2868,10.2871,10.2872,10.2874,10.2881,10.2924,10.2924,10.2927,10.289,10.289,10.289,10.289,10.289,10.289,10.2851,10.2695,10.2422,10.2344,10.2031,10.1133,10.0547,10.0508,10.0469,10.0508,10.0508,10.0429,10.0273,10.0078,10.0,9.9922,9.9648,9.9531,9.9726,9.9765,9.9648,9.9687,9.9726,9.9765,10.0078,10.1133,10.2226,10.2461,10.2187,10.1953,10.1679,10.125,10.1875,10.207,10.1484,10.0586,9.9726,9.9062,9.8242,9.7812,9.7695,9.7461,9.7148,9.664,9.6094,9.5547,9.4961,9.4492,9.3945,9.3633,9.3437,9.3125,9.289,9.2734,9.2578,9.2578,9.2578,9.2578,9.2578,9.2578,9.2578,9.2578,9.2578,9.2461,9.2461,9.2422,9.2226,9.1992,9.1797,9.164,10.1603,10.1654,10.1746,10.1827,10.1873,10.1955,10.2105,10.2189,10.2261,10.2334,10.246,10.253,10.2546,10.2588,10.2627,10.2665,10.2746,10.2774,10.28,10.2865,10.2877,10.2881,10.2921,10.288,10.2838,10.2831,10.2877,10.292,10.2921,10.2923,10.2886,10.2925,10.289,10.2886,10.2925,10.289,10.2928,10.2928,10.289,10.289,10.289,10.289,10.289,10.289,10.289,10.289,10.289,10.289,10.289,10.2695,10.2031,10.1523,10.1523,10.1523,10.1523,10.1523,10.1523,10.125,10.1054,10.0898,10.0742,10.0351,10.0312,10.0312,10.0312,10.0312,10.0312,10.0312,10.0351,10.0625,10.1523,10.2383,10.2383,10.1836,10.1562,10.1211,10.0664,10.1133,10.1562,10.0937,10.0156,9.9531,9.8867,9.8125,9.7812,9.7695,9.7695,9.7383,9.7226,9.6679,9.6289,9.5781,9.5351,9.4922,9.4531,9.414,9.3633,9.3281,9.2929,9.2734,9.2578,9.2578,9.2578,9.2578,9.2578,9.2578,9.2578,9.2578,9.2578,9.2539,9.2539,9.2578,9.25,9.2226,9.2148,10.1748,10.1772,10.1971,10.2039,10.208,10.2177,10.2317,10.2425,10.2431,10.2491,10.2542,10.2656,10.2701,10.2733,10.2719,10.2753,10.2818,10.2869,10.2876,10.2881,10.2886,10.2926,10.2927,10.2889,10.2889,10.292,10.2924,10.2926,10.2928,10.289,10.289,10.289,10.289,10.289,10.289,10.289,10.289,10.289,10.289,10.289,10.289,10.289,10.289,10.289,10.289,10.289,10.289,10.289,10.289,10.289,10.289,10.289,10.289,10.289,10.289,10.2851,10.2695,10.2344,10.1914,10.1758,10.1484,10.0703,10.0742,10.0781,10.082,10.0937,10.0976,10.0898,10.1015,10.1211,10.1797,10.2422,10.2304,10.164,10.1367,10.0937,10.0195,9.9922,9.9883,10.0039,9.9609,9.914,9.8633,9.8047,9.7851,9.7695,9.7695,9.7656,9.7461,9.7304,9.6875,9.6719,9.6367,9.5898,9.5469,9.4765,9.4297,9.3789,9.332,9.2969,9.2734,9.2578,9.2578,9.2578,9.2578,9.2578,9.2578,9.2578,9.2578,9.2578,9.2578,9.2578,9.2578,9.2578,9.2539,10.2032,10.2132,10.2215,10.2311,10.2321,10.2376,10.2464,10.2609,10.2627,10.2631,10.2686,10.2758,10.2783,10.2802,10.2859,10.2874,10.2882,10.2885,10.2926,10.289,10.289,10.289,10.289,10.289,10.289,10.2929,10.289,10.289,10.289,10.289,10.289,10.289,10.289,10.289,10.289,10.289,10.289,10.289,10.289,10.289,10.289,10.289,10.289,10.289,10.289,10.289,10.289,10.289,10.289,10.289,10.289,10.289,10.289,10.289,10.289,10.289,10.289,10.2734,10.2578,10.2617,10.2617,10.25,10.2304,10.2344,10.2344,10.2344,10.2148,10.2226,10.2265,10.2461,10.2656,10.2812,10.2031,10.1133,10.0547,10.0039,9.8828,9.8437,9.8633,9.9062,9.8906,9.875,9.8281,9.7969,9.7812,9.7695,9.7695,9.7695,9.7617,9.7578,9.7461,9.7422,9.7461,9.6914,9.6406,9.5586,9.4883,9.4414,9.3906,9.3398,9.3086,9.2734,9.2578,9.2617,9.2617,9.2578,9.2578,9.2578,9.2578,9.2578,9.2578,9.2578,9.2578,9.2578,9.2578,10.2233,10.2306,10.2391,10.2507,10.253,10.2558,10.2607,10.2671,10.2743,10.277,10.2752,10.281,10.2824,10.2875,10.2879,10.2924,10.289,10.2929,10.2929,10.289,10.289,10.289,10.289,10.289,10.289,10.289,10.289,10.289,10.289,10.289,10.289,10.289,10.289,10.289,10.289,10.289,10.289,10.289,10.289,10.289,10.289,10.289,10.289,10.289,10.289,10.289,10.289,10.289,10.289,10.289,10.289,10.289,10.289,10.289,10.289,10.289,10.289,10.289,10.289,10.289,10.2851,10.289,10.289,10.289,10.289,10.2851,10.289,10.289,10.289,10.289,10.2851,10.289,10.2226,10.125,10.0625,9.9726,9.8711,9.8047,9.8086,9.8359,9.8242,9.8125,9.7969,9.7734,9.7695,9.7695,9.7695,9.7695,9.7695,9.7695,9.7695,9.7695,9.7656,9.7461,9.6992,9.6367,9.5664,9.5117,9.4648,9.414,9.3594,9.3281,9.289,9.2656,9.2617,9.2578,9.2578,9.2578,9.2578,9.2578,9.2578,9.2578,9.2578,9.2578,9.2578,10.2454,10.2473,10.2601,10.2656,10.2692,10.2725,10.2712,10.2742,10.2808,10.282,10.2827,10.2874,10.2882,10.2926,10.2927,10.289,10.289,10.289,10.289,10.289,10.289,10.289,10.289,10.289,10.289,10.289,10.289,10.289,10.289,10.289,10.289,10.289,10.289,10.289,10.289,10.289,10.289,10.289,10.289,10.289,10.289,10.289,10.289,10.289,10.289,10.289,10.289,10.289,10.289,10.289,10.289,10.289,10.289,10.289,10.289,10.289,10.289,10.289,10.289,10.289,10.289,10.289,10.289,10.289,10.289,10.289,10.289,10.289,10.289,10.289,10.289,10.289,10.2422,10.1719,10.0898,10.0156,9.9179,9.8437,9.7969,9.8008,9.7734,9.7695,9.7695,9.7695,9.7695,9.7695,9.7695,9.7695,9.7695,9.7695,9.7695,9.7695,9.7695,9.7695,9.7422,9.7148,9.6523,9.5976,9.5547,9.5117,9.4492,9.3945,9.3515,9.3086,9.2617,9.2578,9.2578,9.2617,9.2578,9.2578,9.2578,9.2578,9.2578,9.2578,9.2578,10.2609,10.2685,10.2674,10.2753,10.2779,10.2798,10.2816,10.2867,10.2872,10.2917,10.2884,10.2885,10.2927,10.289,10.289,10.289,10.289,10.289,10.289,10.289,10.289,10.289,10.289,10.289,10.289,10.289,10.289,10.289,10.289,10.289,10.289,10.289,10.289,10.289,10.289,10.289,10.289,10.289,10.289,10.289,10.289,10.289,10.289,10.289,10.289,10.289,10.289,10.289,10.289,10.289,10.289,10.289,10.289,10.289,10.289,10.289,10.289,10.289,10.289,10.289,10.289,10.289,10.289,10.289,10.289,10.289,10.289,10.289,10.289,10.289,10.289,10.289,10.2422,10.1992,10.1445,10.0547,9.9531,9.8828,9.8359,9.8008,9.789,9.7773,9.7695,9.7695,9.7695,9.7695,9.7695,9.7695,9.7695,9.7695,9.7695,9.7695,9.7695,9.7695,9.7656,9.7422,9.7187,9.6719,9.6445,9.6015,9.539,9.4765,9.4219,9.375,9.3203,9.2812,9.2851,9.2851,9.2656,9.2578,9.2578,9.2578,9.2578,9.2578,9.2578,10.2743,10.2746,10.2793,10.2813,10.2859,10.2872,10.2878,10.2883,10.2926,10.2928,10.2929,10.2929,10.2929,10.289,10.289,10.289,10.289,10.289,10.289,10.289,10.289,10.289,10.289,10.289,10.289,10.289,10.289,10.289,10.289,10.289,10.289,10.289,10.289,10.289,10.289,10.289,10.289,10.289,10.289,10.289,10.289,10.289,10.289,10.289,10.289,10.289,10.289,10.289,10.289,10.289,10.289,10.289,10.289,10.289,10.289,10.289,10.289,10.289,10.289,10.289,10.289,10.289,10.289,10.289,10.289,10.289,10.289,10.289,10.289,10.289,10.289,10.289,10.2734,10.2383,10.1914,10.1328,10.0351,9.9375,9.875,9.8398,9.8008,9.7851,9.7695,9.7695,9.7695,9.7695,9.7695,9.7695,9.7695,9.7695,9.7695,9.7695,9.7695,9.7695,9.7695,9.7578,9.7539,9.7265,9.7265,9.6797,9.6211,9.5625,9.5078,9.4492,9.3945,9.3594,9.332,9.2929,9.2617,9.2578,9.2578,9.2578,9.2578,9.2578,9.2578,10.282,10.2813,10.2872,10.2917,10.2918,10.2925,10.2927,10.2928,10.2929,10.289,10.289,10.289,10.289,10.289,10.289,10.289,10.289,10.289,10.289,10.289,10.289,10.289,10.289,10.289,10.289,10.289,10.289,10.289,10.289,10.289,10.289,10.289,10.289,10.289,10.289,10.289,10.289,10.289,10.289,10.289,10.289,10.289,10.289,10.289,10.289,10.289,10.289,10.289,10.289,10.289,10.289,10.289,10.289,10.289,10.289,10.289,10.289,10.289,10.289,10.289,10.289,10.289,10.289,10.289,10.289,10.289,10.289,10.289,10.289,10.289,10.289,10.289,10.2851,10.2617,10.2344,10.1953,10.1445,10.0273,9.9219,9.8633,9.8242,9.7812,9.7695,9.7695,9.7695,9.7695,9.7695,9.7695,9.7695,9.7695,9.7695,9.7695,9.7695,9.7695,9.7695,9.7695,9.7695,9.7695,9.7695,9.7539,9.6875,9.6406,9.5937,9.5351,9.4765,9.4179,9.375,9.3125,9.2578,9.2578,9.2578,9.2578,9.2578,9.2578,9.2578,10.2885,10.2885,10.2885,10.2925,10.2925,10.2929,10.289,10.289,10.289,10.289,10.289,10.289,10.289,10.289,10.289,10.289,10.289,10.289,10.289,10.289,10.289,10.289,10.289,10.289,10.289,10.289,10.289,10.289,10.289,10.289,10.289,10.289,10.289,10.289,10.289,10.289,10.289,10.289,10.289,10.289,10.289,10.289,10.289,10.289,10.289,10.289,10.289,10.289,10.289,10.289,10.289,10.289,10.289,10.289,10.289,10.289,10.289,10.289,10.289,10.289,10.289,10.289,10.289,10.289,10.289,10.289,10.289,10.289,10.289,10.289,10.289,10.289,10.289,10.2812,10.2617,10.2383,10.1836,10.0976,9.9961,9.9101,9.8476,9.8086,9.7695,9.7695,9.7695,9.7695,9.7695,9.7695,9.7695,9.7695,9.7695,9.7695,9.7695,9.7695,9.7695,9.7695,9.7695,9.7695,9.7695,9.7695,9.75,9.707,9.6679,9.6289,9.5703,9.4922,9.4179,9.3789,9.3359,9.2812,9.2578,9.2578,9.2578,9.2578,9.2578,10.2929,10.2929,10.2929,10.2929,10.2929,10.289,10.289,10.289,10.289,10.289,10.289,10.289,10.289,10.289,10.289,10.289,10.289,10.289,10.289,10.289,10.289,10.289,10.289,10.289,10.289,10.289,10.289,10.289,10.289,10.289,10.289,10.289,10.289,10.289,10.289,10.289,10.289,10.289,10.289,10.289,10.289,10.289,10.289,10.289,10.289,10.289,10.289,10.289,10.289,10.289,10.289,10.289,10.289,10.289,10.289,10.289,10.289,10.289,10.289,10.289,10.289,10.289,10.289,10.289,10.289,10.289,10.289,10.289,10.289,10.289,10.289,10.289,10.289,10.289,10.2812,10.2656,10.2187,10.1406,10.0742,9.9883,9.9062,9.8398,9.8008,9.7695,9.7695,9.7695,9.7695,9.7695,9.7695,9.7695,9.7695,9.7695,9.7695,9.7695,9.7695,9.7695,9.7695,9.7695,9.7695,9.7695,9.7695,9.7656,9.7226,9.6953,9.664,9.5937,9.5273,9.4687,9.4023,9.3203,9.2773,9.2578,9.2578,9.2578,9.2578,10.289,10.289,10.289,10.289,10.289,10.289,10.289,10.289,10.289,10.289,10.289,10.289,10.289,10.289,10.289,10.289,10.289,10.289,10.289,10.289,10.289,10.289,10.289,10.289,10.289,10.289,10.289,10.289,10.289,10.289,10.289,10.289,10.289,10.289,10.289,10.289,10.289,10.289,10.289,10.289,10.289,10.289,10.289,10.289,10.289,10.289,10.289,10.289,10.289,10.289,10.289,10.289,10.289,10.289,10.289,10.289,10.289,10.289,10.289,10.289,10.289,10.289,10.289,10.289,10.289,10.289,10.289,10.289,10.289,10.289,10.289,10.289,10.289,10.289,10.289,10.2734,10.25,10.1914,10.1367,10.0703,9.9765,9.8711,9.8359,9.7969,9.7695,9.7695,9.7695,9.7695,9.7695,9.7695,9.7695,9.7695,9.7695,9.7695,9.7695,9.7695,9.7695,9.7695,9.7695,9.7695,9.7695,9.7695,9.7695,9.7422,9.7109,9.6797,9.6289,9.5586,9.4492,9.3359,9.3008,9.2695,9.2578,9.2578,9.2578,10.289,10.289,10.289,10.289,10.289,10.289,10.289,10.289,10.289,10.289,10.289,10.289,10.289,10.289,10.289,10.289,10.289,10.289,10.289,10.289,10.289,10.289,10.289,10.289,10.289,10.289,10.289,10.289,10.289,10.289,10.289,10.289,10.289,10.289,10.289,10.289,10.289,10.289,10.289,10.289,10.289,10.289,10.289,10.289,10.289,10.289,10.289,10.289,10.289,10.289,10.289,10.289,10.289,10.289,10.289,10.289,10.289,10.289,10.289,10.289,10.289,10.289,10.289,10.289,10.289,10.289,10.289,10.289,10.289,10.289,10.289,10.289,10.289,10.289,10.289,10.2851,10.2617,10.2422,10.1875,10.1328,10.0078,9.8984,9.8672,9.832,9.7851,9.7695,9.7695,9.7695,9.7695,9.7695,9.7695,9.7695,9.7695,9.7695,9.7695,9.7695,9.7695,9.7695,9.7695,9.7695,9.7695,9.7695,9.7695,9.7695,9.7539,9.7187,9.6836,9.6445,9.539,9.4375,9.3242,9.2812,9.2695,9.2578,9.2578,10.289,10.289,10.289,10.289,10.289,10.289,10.289,10.289,10.289,10.289,10.289,10.289,10.289,10.289,10.289,10.289,10.289,10.289,10.289,10.289,10.289,10.289,10.289,10.289,10.289,10.289,10.289,10.289,10.289,10.289,10.289,10.289,10.289,10.289,10.289,10.289,10.289,10.289,10.289,10.289,10.289,10.289,10.289,10.289,10.289,10.289,10.289,10.289,10.289,10.289,10.289,10.289,10.289,10.289,10.289,10.289,10.289,10.289,10.289,10.289,10.289,10.289,10.289,10.289,10.289,10.289,10.289,10.289,10.289,10.289,10.289,10.289,10.289,10.289,10.289,10.289,10.2773,10.2695,10.2383,10.1758,10.0781,9.9726,9.914,9.8554,9.8047,9.7734,9.7695,9.7695,9.7695,9.7695,9.7695,9.7695,9.7695,9.7695,9.7695,9.7695,9.7695,9.7695,9.7695,9.7695,9.7695,9.7695,9.7695,9.7695,9.7656,9.7578,9.7226,9.6875,9.6406,9.5547,9.4453,9.3633,9.3476,9.3086,9.2578,10.289,10.289,10.289,10.289,10.289,10.289,10.289,10.289,10.289,10.289,10.289,10.289,10.289,10.289,10.289,10.289,10.289,10.289,10.289,10.289,10.289,10.289,10.289,10.289,10.289,10.289,10.289,10.289,10.289,10.289,10.289,10.289,10.289,10.289,10.289,10.289,10.289,10.289,10.289,10.289,10.289,10.289,10.289,10.289,10.289,10.289,10.289,10.289,10.289,10.289,10.289,10.289,10.289,10.289,10.289,10.289,10.289,10.289,10.289,10.289,10.289,10.289,10.289,10.289,10.289,10.289,10.289,10.289,10.289,10.289,10.289,10.289,10.289,10.289,10.289,10.289,10.289,10.2812,10.2734,10.2148,10.1523,10.0508,9.9492,9.8828,9.8203,9.7929,9.7695,9.7695,9.7695,9.7695,9.7695,9.7695,9.7695,9.7695,9.7695,9.7695,9.7695,9.7695,9.7695,9.7695,9.7695,9.7695,9.7695,9.7695,9.7656,9.7656,9.7578,9.7265,9.6914,9.6484,9.5781,9.5039,9.4492,9.3789,9.3086,10.289,10.289,10.289,10.289,10.289,10.289,10.289,10.289,10.289,10.289,10.289,10.289,10.289,10.289,10.289,10.289,10.289,10.289,10.289,10.289,10.289,10.289,10.289,10.289,10.289,10.289,10.289,10.289,10.289,10.289,10.289,10.289,10.289,10.289,10.289,10.289,10.289,10.289,10.289,10.289,10.289,10.289,10.289,10.289,10.289,10.289,10.289,10.289,10.289,10.289,10.289,10.289,10.289,10.289,10.289,10.289,10.289,10.289,10.289,10.289,10.289,10.289,10.289,10.289,10.289,10.289,10.289,10.289,10.289,10.289,10.289,10.289,10.289,10.289,10.289,10.289,10.289,10.289,10.289,10.25,10.1914,10.1015,10.0,9.9219,9.8828,9.832,9.8086,9.7851,9.7812,9.7695,9.7695,9.7695,9.7695,9.7695,9.7695,9.7695,9.7695,9.7695,9.7695,9.7695,9.7695,9.7695,9.7695,9.7695,9.7695,9.7656,9.7617,9.7617,9.7578,9.7109,9.6562,9.6094,9.539,9.457,9.3906,10.289,10.289,10.289,10.289,10.289,10.289,10.289,10.289,10.289,10.289,10.289,10.289,10.289,10.289,10.289,10.289,10.289,10.289,10.289,10.289,10.289,10.289,10.289,10.289,10.289,10.289,10.289,10.289,10.289,10.289,10.289,10.289,10.289,10.289,10.289,10.289,10.289,10.289,10.289,10.289,10.289,10.289,10.289,10.289,10.289,10.289,10.289,10.289,10.289,10.289,10.289,10.289,10.289,10.289,10.289,10.289,10.289,10.289,10.289,10.289,10.289,10.289,10.289,10.289,10.289,10.289,10.289,10.289,10.289,10.289,10.289,10.289,10.289,10.289,10.289,10.289,10.289,10.289,10.289,10.2734,10.2187,10.1601,10.0586,10.0117,9.9687,9.8984,9.8515,9.8281,9.7929,9.7812,9.7695,9.7695,9.7695,9.7695,9.7695,9.7695,9.7695,9.7695,9.7695,9.7695,9.7695,9.7695,9.7695,9.7695,9.7695,9.7695,9.7695,9.7695,9.7695,9.7695,9.7265,9.6836,9.6289,9.5429,9.4804,10.289,10.289,10.289,10.289,10.289,10.289,10.289,10.289,10.289,10.289,10.289,10.289,10.289,10.289,10.289,10.289,10.289,10.289,10.289,10.289,10.289,10.289,10.289,10.289,10.289,10.289,10.289,10.289,10.289,10.289,10.289,10.289,10.289,10.289,10.289,10.289,10.289,10.289,10.289,10.289,10.289,10.289,10.289,10.289,10.289,10.289,10.289,10.289,10.289,10.289,10.289,10.289,10.289,10.289,10.289,10.289,10.289,10.289,10.289,10.289,10.289,10.289,10.289,10.289,10.289,10.289,10.289,10.289,10.289,10.289,10.289,10.289,10.289,10.289,10.289,10.289,10.289,10.289,10.289,10.2812,10.25,10.2031,10.1523,10.1054,10.0547,9.9844,9.9336,9.9062,9.8515,9.7969,9.7773,9.7695,9.7695,9.7695,9.7695,9.7695,9.7695,9.7695,9.7695,9.7695,9.7695,9.7695,9.7695,9.7695,9.7695,9.7695,9.7695,9.7695,9.7695,9.7695,9.7695,9.7344,9.6875,9.6328,9.582,10.289,10.289,10.289,10.289,10.289,10.289,10.289,10.289,10.289,10.289,10.289,10.289,10.289,10.289,10.289,10.289,10.289,10.289,10.289,10.289,10.289,10.289,10.289,10.289,10.289,10.289,10.289,10.289,10.289,10.289,10.289,10.289,10.289,10.289,10.289,10.289,10.289,10.289,10.289,10.289,10.289,10.289,10.289,10.289,10.289,10.289,10.289,10.289,10.289,10.289,10.289,10.289,10.289,10.289,10.289,10.289,10.289,10.289,10.289,10.289,10.289,10.289,10.289,10.289,10.289,10.289,10.289,10.289,10.289,10.289,10.289,10.289,10.289,10.289,10.289,10.289,10.289,10.289,10.289,10.2851,10.2773,10.2344,10.2148,10.1679,10.1367,10.0703,10.0312,10.0,9.9375,9.8594,9.8125,9.7929,9.7695,9.7695,9.7695,9.7695,9.7695,9.7695,9.7695,9.7695,9.7695,9.7695,9.7695,9.7695,9.7695,9.7695,9.7695,9.7695,9.7695,9.7695,9.7695,9.7695,9.7344,9.6914,9.6758,10.289,10.289,10.289,10.289,10.289,10.289,10.289,10.289,10.289,10.289,10.289,10.289,10.289,10.289,10.289,10.289,10.289,10.289,10.289,10.289,10.289,10.289,10.289,10.289,10.289,10.289,10.289,10.289,10.289,10.289,10.289,10.289,10.289,10.289,10.289,10.289,10.289,10.289,10.289,10.289,10.289,10.289,10.289,10.289,10.289,10.289,10.289,10.289,10.289,10.289,10.289,10.289,10.289,10.289,10.289,10.289,10.289,10.289,10.289,10.289,10.289,10.289,10.289,10.289,10.289,10.289,10.289,10.289,10.289,10.289,10.289,10.289,10.289,10.289,10.289,10.289,10.289,10.289,10.289,10.289,10.289,10.2773,10.2578,10.2344,10.207,10.1758,10.1406,10.1015,10.039,9.9687,9.8867,9.8515,9.7851,9.7734,9.7773,9.7695,9.7695,9.7695,9.7695,9.7695,9.7695,9.7695,9.7695,9.7695,9.7695,9.7695,9.7695,9.7695,9.7695,9.7695,9.7695,9.7695,9.7695,9.7344,9.7383,10.289,10.289,10.289,10.289,10.289,10.289,10.289,10.289,10.289,10.289,10.289,10.289,10.289,10.289,10.289,10.289,10.289,10.289,10.289,10.289,10.289,10.289,10.289,10.289,10.289,10.289,10.289,10.289,10.289,10.289,10.289,10.289,10.289,10.289,10.289,10.289,10.289,10.289,10.289,10.289,10.289,10.289,10.289,10.289,10.289,10.289,10.289,10.289,10.289,10.289,10.289,10.289,10.289,10.289,10.289,10.289,10.289,10.289,10.289,10.289,10.289,10.289,10.289,10.289,10.289,10.289,10.289,10.289,10.289,10.289,10.289,10.289,10.289,10.289,10.289,10.289,10.289,10.289,10.289,10.289,10.289,10.289,10.2734,10.2734,10.25,10.2461,10.2187,10.1797,10.1211,10.0859,10.0039,9.9297,9.8789,9.8359,9.8398,9.8086,9.7695,9.7695,9.7851,9.7695,9.7734,9.7695,9.7695,9.7695,9.7695,9.7695,9.7695,9.7695,9.7695,9.7695,9.7695,9.7695,9.7695,9.7695,9.7656,10.289,10.289,10.289,10.289,10.289,10.289,10.289,10.289,10.289,10.289,10.289,10.289,10.289,10.289,10.289,10.289,10.289,10.289,10.289,10.289,10.289,10.289,10.289,10.289,10.289,10.289,10.289,10.289,10.289,10.289,10.289,10.289,10.289,10.289,10.289,10.289,10.289,10.289,10.289,10.289,10.289,10.289,10.289,10.289,10.289,10.289,10.289,10.289,10.289,10.289,10.289,10.289,10.289,10.289,10.289,10.289,10.289,10.289,10.289,10.289,10.289,10.289,10.2929,10.289,10.289,10.289,10.289,10.289,10.289,10.289,10.289,10.289,10.289,10.289,10.289,10.289,10.289,10.289,10.289,10.289,10.289,10.289,10.289,10.289,10.289,10.289,10.2734,10.2383,10.2031,10.1797,10.1328,10.0703,10.0156,9.9726,9.9258,9.8828,9.8398,9.8359,9.8515,9.8086,9.7734,9.7695,9.7695,9.7695,9.7695,9.7695,9.7695,9.7695,9.7695,9.7695,9.7695,9.7695,9.7695,9.7695,9.7695,10.289,10.289,10.289,10.289,10.289,10.289,10.289,10.289,10.289,10.289,10.289,10.289,10.289,10.289,10.289,10.289,10.289,10.289,10.289,10.289,10.289,10.289,10.289,10.289,10.289,10.289,10.289,10.289,10.289,10.289,10.289,10.289,10.289,10.289,10.289,10.2929,10.2927,10.2887,10.2884,10.2882,10.2884,10.289,10.289,10.289,10.2928,10.2928,10.289,10.289,10.289,10.289,10.288,10.2881,10.2919,10.2919,10.2919,10.288,10.288,10.2919,10.288,10.288,10.288,10.288,10.288,10.289,10.289,10.289,10.289,10.289,10.289,10.289,10.289,10.289,10.289,10.289,10.289,10.289,10.289,10.289,10.289,10.289,10.289,10.289,10.289,10.289,10.289,10.289,10.289,10.2578,10.2578,10.2539,10.2461,10.1953,10.1367,10.082,10.0195,9.9922,9.957,9.9453,9.9179,9.8672,9.8203,9.7734,9.7695,9.7695,9.7695,9.7695,9.7695,9.7695,9.7695,9.7695,9.7695,9.7695,9.7695,9.7695,9.7695]}]]